<?xml version="1.0" encoding="UTF-8" standalone="no" ?>
<gpx xmlns="http://www.topografix.com/GPX/1/1" xmlns:xsi="http://www.w3.org/2001/XMLSchema-instance" xsi:schemaLocation="http://www.topografix.com/GPX/1/1 http://www.topografix.com/GPX/1/1/gpx.xsd" version="1.1" creator="VisuGPX - https://www.visugpx.com">
  <metadata>
    <name>mrt les rosaires</name>
    <desc><![CDATA[depart du parking du boulevard du roi d ys, avenue de josselin,digue des rosaires]]></desc>
  </metadata>
  <trk>
    <name><![CDATA[mrt les rosaires_1]]></name>
    <trkseg>
      <trkpt lat="48.55989" lon="-2.75868">
        <ele>43</ele>
        <time>2019-02-22T08:21:09Z</time>
      </trkpt>
      <trkpt lat="48.56012" lon="-2.75843">
        <ele>40</ele>
        <time>2019-02-22T08:21:33Z</time>
      </trkpt>
      <trkpt lat="48.56016" lon="-2.75838">
        <ele>40</ele>
        <time>2019-02-22T08:21:36Z</time>
      </trkpt>
      <trkpt lat="48.56019" lon="-2.75834">
        <ele>40</ele>
        <time>2019-02-22T08:21:39Z</time>
      </trkpt>
      <trkpt lat="48.56023" lon="-2.7583">
        <ele>37</ele>
        <time>2019-02-22T08:21:42Z</time>
      </trkpt>
      <trkpt lat="48.56027" lon="-2.75826">
        <ele>35</ele>
        <time>2019-02-22T08:21:45Z</time>
      </trkpt>
      <trkpt lat="48.56032" lon="-2.75822">
        <ele>33</ele>
        <time>2019-02-22T08:21:49Z</time>
      </trkpt>
      <trkpt lat="48.56037" lon="-2.75817">
        <ele>30</ele>
        <time>2019-02-22T08:21:52Z</time>
      </trkpt>
      <trkpt lat="48.56039" lon="-2.75812">
        <ele>29</ele>
        <time>2019-02-22T08:21:55Z</time>
      </trkpt>
      <trkpt lat="48.56043" lon="-2.7581">
        <ele>29</ele>
        <time>2019-02-22T08:21:59Z</time>
      </trkpt>
      <trkpt lat="48.56047" lon="-2.75809">
        <ele>29</ele>
        <time>2019-02-22T08:22:02Z</time>
      </trkpt>
      <trkpt lat="48.56051" lon="-2.75805">
        <ele>29</ele>
        <time>2019-02-22T08:22:05Z</time>
      </trkpt>
      <trkpt lat="48.56055" lon="-2.75802">
        <ele>28</ele>
        <time>2019-02-22T08:22:08Z</time>
      </trkpt>
      <trkpt lat="48.5606" lon="-2.75797">
        <ele>27</ele>
        <time>2019-02-22T08:22:12Z</time>
      </trkpt>
      <trkpt lat="48.56065" lon="-2.75796">
        <ele>27</ele>
        <time>2019-02-22T08:22:15Z</time>
      </trkpt>
      <trkpt lat="48.56069" lon="-2.75792">
        <ele>28</ele>
        <time>2019-02-22T08:22:19Z</time>
      </trkpt>
      <trkpt lat="48.56071" lon="-2.75787">
        <ele>29</ele>
        <time>2019-02-22T08:22:23Z</time>
      </trkpt>
      <trkpt lat="48.56071" lon="-2.7578">
        <ele>29</ele>
        <time>2019-02-22T08:22:27Z</time>
      </trkpt>
      <trkpt lat="48.56073" lon="-2.75771">
        <ele>29</ele>
        <time>2019-02-22T08:22:30Z</time>
      </trkpt>
      <trkpt lat="48.56074" lon="-2.75765">
        <ele>31</ele>
        <time>2019-02-22T08:22:33Z</time>
      </trkpt>
      <trkpt lat="48.56074" lon="-2.75759">
        <ele>31</ele>
        <time>2019-02-22T08:22:36Z</time>
      </trkpt>
      <trkpt lat="48.56073" lon="-2.75752">
        <ele>31</ele>
        <time>2019-02-22T08:22:39Z</time>
      </trkpt>
      <trkpt lat="48.56072" lon="-2.75747">
        <ele>32</ele>
        <time>2019-02-22T08:22:42Z</time>
      </trkpt>
      <trkpt lat="48.56071" lon="-2.75743">
        <ele>32</ele>
        <time>2019-02-22T08:22:45Z</time>
      </trkpt>
      <trkpt lat="48.5607" lon="-2.75738">
        <ele>32</ele>
        <time>2019-02-22T08:22:48Z</time>
      </trkpt>
      <trkpt lat="48.56068" lon="-2.7573">
        <ele>32</ele>
        <time>2019-02-22T08:22:51Z</time>
      </trkpt>
      <trkpt lat="48.56065" lon="-2.75716">
        <ele>32</ele>
        <time>2019-02-22T08:22:54Z</time>
      </trkpt>
      <trkpt lat="48.56068" lon="-2.75709">
        <ele>32</ele>
        <time>2019-02-22T08:22:57Z</time>
      </trkpt>
      <trkpt lat="48.56072" lon="-2.75704">
        <ele>31</ele>
        <time>2019-02-22T08:23:00Z</time>
      </trkpt>
      <trkpt lat="48.56076" lon="-2.75696">
        <ele>31</ele>
        <time>2019-02-22T08:23:04Z</time>
      </trkpt>
      <trkpt lat="48.56079" lon="-2.75692">
        <ele>31</ele>
        <time>2019-02-22T08:23:07Z</time>
      </trkpt>
      <trkpt lat="48.56081" lon="-2.75688">
        <ele>31</ele>
        <time>2019-02-22T08:23:11Z</time>
      </trkpt>
      <trkpt lat="48.56085" lon="-2.75682">
        <ele>31</ele>
        <time>2019-02-22T08:23:15Z</time>
      </trkpt>
      <trkpt lat="48.56087" lon="-2.75675">
        <ele>31</ele>
        <time>2019-02-22T08:23:18Z</time>
      </trkpt>
      <trkpt lat="48.56089" lon="-2.7567">
        <ele>31</ele>
        <time>2019-02-22T08:23:21Z</time>
      </trkpt>
      <trkpt lat="48.56094" lon="-2.75663">
        <ele>33</ele>
        <time>2019-02-22T08:23:25Z</time>
      </trkpt>
      <trkpt lat="48.56097" lon="-2.75659">
        <ele>36</ele>
        <time>2019-02-22T08:23:28Z</time>
      </trkpt>
      <trkpt lat="48.561" lon="-2.75655">
        <ele>38</ele>
        <time>2019-02-22T08:23:31Z</time>
      </trkpt>
      <trkpt lat="48.56105" lon="-2.7565">
        <ele>38</ele>
        <time>2019-02-22T08:23:34Z</time>
      </trkpt>
      <trkpt lat="48.56106" lon="-2.75645">
        <ele>38</ele>
        <time>2019-02-22T08:23:37Z</time>
      </trkpt>
      <trkpt lat="48.56108" lon="-2.7564">
        <ele>38</ele>
        <time>2019-02-22T08:23:40Z</time>
      </trkpt>
      <trkpt lat="48.5611" lon="-2.75633">
        <ele>38</ele>
        <time>2019-02-22T08:23:43Z</time>
      </trkpt>
      <trkpt lat="48.56112" lon="-2.75628">
        <ele>39</ele>
        <time>2019-02-22T08:23:46Z</time>
      </trkpt>
      <trkpt lat="48.56112" lon="-2.75624">
        <ele>39</ele>
        <time>2019-02-22T08:23:50Z</time>
      </trkpt>
      <trkpt lat="48.56116" lon="-2.75618">
        <ele>39</ele>
        <time>2019-02-22T08:23:54Z</time>
      </trkpt>
      <trkpt lat="48.56119" lon="-2.75611">
        <ele>39</ele>
        <time>2019-02-22T08:23:58Z</time>
      </trkpt>
      <trkpt lat="48.56121" lon="-2.75606">
        <ele>39</ele>
        <time>2019-02-22T08:24:01Z</time>
      </trkpt>
      <trkpt lat="48.56123" lon="-2.756">
        <ele>39</ele>
        <time>2019-02-22T08:24:04Z</time>
      </trkpt>
      <trkpt lat="48.56126" lon="-2.75594">
        <ele>39</ele>
        <time>2019-02-22T08:24:07Z</time>
      </trkpt>
      <trkpt lat="48.5613" lon="-2.75588">
        <ele>39</ele>
        <time>2019-02-22T08:24:10Z</time>
      </trkpt>
      <trkpt lat="48.56132" lon="-2.75586">
        <ele>39</ele>
        <time>2019-02-22T08:24:15Z</time>
      </trkpt>
      <trkpt lat="48.56132" lon="-2.75584">
        <ele>39</ele>
        <time>2019-02-22T08:24:22Z</time>
      </trkpt>
      <trkpt lat="48.56133" lon="-2.75578">
        <ele>38</ele>
        <time>2019-02-22T08:24:25Z</time>
      </trkpt>
      <trkpt lat="48.56135" lon="-2.75573">
        <ele>38</ele>
        <time>2019-02-22T08:24:28Z</time>
      </trkpt>
      <trkpt lat="48.56136" lon="-2.75567">
        <ele>38</ele>
        <time>2019-02-22T08:24:31Z</time>
      </trkpt>
      <trkpt lat="48.56136" lon="-2.75561">
        <ele>38</ele>
        <time>2019-02-22T08:24:34Z</time>
      </trkpt>
      <trkpt lat="48.56138" lon="-2.75555">
        <ele>38</ele>
        <time>2019-02-22T08:24:37Z</time>
      </trkpt>
      <trkpt lat="48.56138" lon="-2.75548">
        <ele>38</ele>
        <time>2019-02-22T08:24:40Z</time>
      </trkpt>
      <trkpt lat="48.56138" lon="-2.75542">
        <ele>38</ele>
        <time>2019-02-22T08:24:43Z</time>
      </trkpt>
      <trkpt lat="48.56138" lon="-2.75536">
        <ele>38</ele>
        <time>2019-02-22T08:24:46Z</time>
      </trkpt>
      <trkpt lat="48.56138" lon="-2.75529">
        <ele>38</ele>
        <time>2019-02-22T08:24:49Z</time>
      </trkpt>
      <trkpt lat="48.56139" lon="-2.75523">
        <ele>38</ele>
        <time>2019-02-22T08:24:52Z</time>
      </trkpt>
      <trkpt lat="48.5614" lon="-2.75517">
        <ele>38</ele>
        <time>2019-02-22T08:24:55Z</time>
      </trkpt>
      <trkpt lat="48.56139" lon="-2.75511">
        <ele>38</ele>
        <time>2019-02-22T08:24:58Z</time>
      </trkpt>
      <trkpt lat="48.56138" lon="-2.75507">
        <ele>38</ele>
        <time>2019-02-22T08:25:02Z</time>
      </trkpt>
      <trkpt lat="48.56138" lon="-2.75501">
        <ele>38</ele>
        <time>2019-02-22T08:25:06Z</time>
      </trkpt>
      <trkpt lat="48.56139" lon="-2.75497">
        <ele>38</ele>
        <time>2019-02-22T08:25:12Z</time>
      </trkpt>
      <trkpt lat="48.56138" lon="-2.7549">
        <ele>38</ele>
        <time>2019-02-22T08:25:15Z</time>
      </trkpt>
      <trkpt lat="48.56136" lon="-2.75484">
        <ele>38</ele>
        <time>2019-02-22T08:25:18Z</time>
      </trkpt>
      <trkpt lat="48.56134" lon="-2.75478">
        <ele>38</ele>
        <time>2019-02-22T08:25:21Z</time>
      </trkpt>
      <trkpt lat="48.56132" lon="-2.75472">
        <ele>38</ele>
        <time>2019-02-22T08:25:24Z</time>
      </trkpt>
      <trkpt lat="48.5613" lon="-2.75466">
        <ele>38</ele>
        <time>2019-02-22T08:25:27Z</time>
      </trkpt>
      <trkpt lat="48.56128" lon="-2.7546">
        <ele>37</ele>
        <time>2019-02-22T08:25:30Z</time>
      </trkpt>
      <trkpt lat="48.56126" lon="-2.75453">
        <ele>37</ele>
        <time>2019-02-22T08:25:33Z</time>
      </trkpt>
      <trkpt lat="48.56124" lon="-2.75447">
        <ele>37</ele>
        <time>2019-02-22T08:25:36Z</time>
      </trkpt>
      <trkpt lat="48.56123" lon="-2.75442">
        <ele>36</ele>
        <time>2019-02-22T08:25:39Z</time>
      </trkpt>
      <trkpt lat="48.5612" lon="-2.75435">
        <ele>36</ele>
        <time>2019-02-22T08:25:42Z</time>
      </trkpt>
      <trkpt lat="48.56117" lon="-2.75429">
        <ele>35</ele>
        <time>2019-02-22T08:25:45Z</time>
      </trkpt>
      <trkpt lat="48.56114" lon="-2.75423">
        <ele>34</ele>
        <time>2019-02-22T08:25:48Z</time>
      </trkpt>
      <trkpt lat="48.56112" lon="-2.75417">
        <ele>34</ele>
        <time>2019-02-22T08:25:51Z</time>
      </trkpt>
      <trkpt lat="48.5611" lon="-2.75411">
        <ele>33</ele>
        <time>2019-02-22T08:25:54Z</time>
      </trkpt>
      <trkpt lat="48.56107" lon="-2.75404">
        <ele>33</ele>
        <time>2019-02-22T08:25:57Z</time>
      </trkpt>
      <trkpt lat="48.56105" lon="-2.75397">
        <ele>33</ele>
        <time>2019-02-22T08:26:00Z</time>
      </trkpt>
      <trkpt lat="48.56103" lon="-2.75389">
        <ele>33</ele>
        <time>2019-02-22T08:26:04Z</time>
      </trkpt>
      <trkpt lat="48.56102" lon="-2.75382">
        <ele>33</ele>
        <time>2019-02-22T08:26:07Z</time>
      </trkpt>
      <trkpt lat="48.56098" lon="-2.75374">
        <ele>33</ele>
        <time>2019-02-22T08:26:11Z</time>
      </trkpt>
      <trkpt lat="48.56095" lon="-2.75368">
        <ele>33</ele>
        <time>2019-02-22T08:26:14Z</time>
      </trkpt>
      <trkpt lat="48.56093" lon="-2.75363">
        <ele>33</ele>
        <time>2019-02-22T08:26:17Z</time>
      </trkpt>
      <trkpt lat="48.5609" lon="-2.75356">
        <ele>33</ele>
        <time>2019-02-22T08:26:20Z</time>
      </trkpt>
      <trkpt lat="48.56087" lon="-2.75349">
        <ele>33</ele>
        <time>2019-02-22T08:26:23Z</time>
      </trkpt>
      <trkpt lat="48.56087" lon="-2.75341">
        <ele>33</ele>
        <time>2019-02-22T08:26:26Z</time>
      </trkpt>
      <trkpt lat="48.56084" lon="-2.75335">
        <ele>33</ele>
        <time>2019-02-22T08:26:29Z</time>
      </trkpt>
      <trkpt lat="48.56087" lon="-2.75331">
        <ele>33</ele>
        <time>2019-02-22T08:26:33Z</time>
      </trkpt>
      <trkpt lat="48.56091" lon="-2.75326">
        <ele>33</ele>
        <time>2019-02-22T08:26:36Z</time>
      </trkpt>
      <trkpt lat="48.56097" lon="-2.75329">
        <ele>33</ele>
        <time>2019-02-22T08:26:39Z</time>
      </trkpt>
      <trkpt lat="48.561" lon="-2.75332">
        <ele>33</ele>
        <time>2019-02-22T08:26:42Z</time>
      </trkpt>
      <trkpt lat="48.56102" lon="-2.75338">
        <ele>33</ele>
        <time>2019-02-22T08:26:45Z</time>
      </trkpt>
      <trkpt lat="48.56104" lon="-2.75344">
        <ele>33</ele>
        <time>2019-02-22T08:26:48Z</time>
      </trkpt>
      <trkpt lat="48.56107" lon="-2.75347">
        <ele>33</ele>
        <time>2019-02-22T08:26:51Z</time>
      </trkpt>
      <trkpt lat="48.56111" lon="-2.75354">
        <ele>31</ele>
        <time>2019-02-22T08:26:55Z</time>
      </trkpt>
      <trkpt lat="48.56114" lon="-2.75357">
        <ele>30</ele>
        <time>2019-02-22T08:26:58Z</time>
      </trkpt>
      <trkpt lat="48.56117" lon="-2.75364">
        <ele>30</ele>
        <time>2019-02-22T08:27:02Z</time>
      </trkpt>
      <trkpt lat="48.5612" lon="-2.75368">
        <ele>30</ele>
        <time>2019-02-22T08:27:05Z</time>
      </trkpt>
      <trkpt lat="48.56124" lon="-2.75371">
        <ele>30</ele>
        <time>2019-02-22T08:27:08Z</time>
      </trkpt>
      <trkpt lat="48.56127" lon="-2.75377">
        <ele>31</ele>
        <time>2019-02-22T08:27:11Z</time>
      </trkpt>
      <trkpt lat="48.5613" lon="-2.75381">
        <ele>33</ele>
        <time>2019-02-22T08:27:14Z</time>
      </trkpt>
      <trkpt lat="48.56133" lon="-2.75387">
        <ele>34</ele>
        <time>2019-02-22T08:27:18Z</time>
      </trkpt>
      <trkpt lat="48.56135" lon="-2.75393">
        <ele>34</ele>
        <time>2019-02-22T08:27:21Z</time>
      </trkpt>
      <trkpt lat="48.5614" lon="-2.75396">
        <ele>34</ele>
        <time>2019-02-22T08:27:24Z</time>
      </trkpt>
      <trkpt lat="48.56143" lon="-2.75399">
        <ele>34</ele>
        <time>2019-02-22T08:27:27Z</time>
      </trkpt>
      <trkpt lat="48.56149" lon="-2.754">
        <ele>32</ele>
        <time>2019-02-22T08:27:30Z</time>
      </trkpt>
      <trkpt lat="48.56153" lon="-2.75397">
        <ele>29</ele>
        <time>2019-02-22T08:27:33Z</time>
      </trkpt>
      <trkpt lat="48.56155" lon="-2.7539">
        <ele>28</ele>
        <time>2019-02-22T08:27:36Z</time>
      </trkpt>
      <trkpt lat="48.56154" lon="-2.75382">
        <ele>27</ele>
        <time>2019-02-22T08:27:39Z</time>
      </trkpt>
      <trkpt lat="48.56151" lon="-2.75375">
        <ele>27</ele>
        <time>2019-02-22T08:27:42Z</time>
      </trkpt>
      <trkpt lat="48.56147" lon="-2.75369">
        <ele>26</ele>
        <time>2019-02-22T08:27:45Z</time>
      </trkpt>
      <trkpt lat="48.56147" lon="-2.75362">
        <ele>25</ele>
        <time>2019-02-22T08:27:48Z</time>
      </trkpt>
      <trkpt lat="48.56145" lon="-2.75355">
        <ele>25</ele>
        <time>2019-02-22T08:27:51Z</time>
      </trkpt>
      <trkpt lat="48.56144" lon="-2.75348">
        <ele>25</ele>
        <time>2019-02-22T08:27:54Z</time>
      </trkpt>
      <trkpt lat="48.56143" lon="-2.75342">
        <ele>25</ele>
        <time>2019-02-22T08:27:57Z</time>
      </trkpt>
      <trkpt lat="48.56143" lon="-2.75335">
        <ele>25</ele>
        <time>2019-02-22T08:28:00Z</time>
      </trkpt>
      <trkpt lat="48.56143" lon="-2.75328">
        <ele>25</ele>
        <time>2019-02-22T08:28:03Z</time>
      </trkpt>
      <trkpt lat="48.56145" lon="-2.75323">
        <ele>25</ele>
        <time>2019-02-22T08:28:06Z</time>
      </trkpt>
      <trkpt lat="48.56147" lon="-2.75319">
        <ele>25</ele>
        <time>2019-02-22T08:28:09Z</time>
      </trkpt>
      <trkpt lat="48.56153" lon="-2.75317">
        <ele>25</ele>
        <time>2019-02-22T08:28:13Z</time>
      </trkpt>
      <trkpt lat="48.56156" lon="-2.75315">
        <ele>23</ele>
        <time>2019-02-22T08:28:17Z</time>
      </trkpt>
      <trkpt lat="48.56159" lon="-2.75314">
        <ele>22</ele>
        <time>2019-02-22T08:28:20Z</time>
      </trkpt>
      <trkpt lat="48.56163" lon="-2.75312">
        <ele>20</ele>
        <time>2019-02-22T08:28:23Z</time>
      </trkpt>
      <trkpt lat="48.56167" lon="-2.7531">
        <ele>19</ele>
        <time>2019-02-22T08:28:26Z</time>
      </trkpt>
      <trkpt lat="48.56171" lon="-2.75309">
        <ele>18</ele>
        <time>2019-02-22T08:28:29Z</time>
      </trkpt>
      <trkpt lat="48.56174" lon="-2.75307">
        <ele>16</ele>
        <time>2019-02-22T08:28:33Z</time>
      </trkpt>
      <trkpt lat="48.56178" lon="-2.75304">
        <ele>16</ele>
        <time>2019-02-22T08:28:37Z</time>
      </trkpt>
      <trkpt lat="48.56181" lon="-2.75299">
        <ele>16</ele>
        <time>2019-02-22T08:28:40Z</time>
      </trkpt>
      <trkpt lat="48.56184" lon="-2.75293">
        <ele>16</ele>
        <time>2019-02-22T08:28:44Z</time>
      </trkpt>
      <trkpt lat="48.56186" lon="-2.75288">
        <ele>15</ele>
        <time>2019-02-22T08:28:47Z</time>
      </trkpt>
      <trkpt lat="48.56186" lon="-2.75281">
        <ele>15</ele>
        <time>2019-02-22T08:28:50Z</time>
      </trkpt>
      <trkpt lat="48.56183" lon="-2.75274">
        <ele>15</ele>
        <time>2019-02-22T08:28:54Z</time>
      </trkpt>
      <trkpt lat="48.56181" lon="-2.75268">
        <ele>15</ele>
        <time>2019-02-22T08:28:57Z</time>
      </trkpt>
      <trkpt lat="48.56179" lon="-2.75263">
        <ele>15</ele>
        <time>2019-02-22T08:29:01Z</time>
      </trkpt>
      <trkpt lat="48.56179" lon="-2.7526">
        <ele>15</ele>
        <time>2019-02-22T08:29:04Z</time>
      </trkpt>
      <trkpt lat="48.56178" lon="-2.75255">
        <ele>15</ele>
        <time>2019-02-22T08:29:07Z</time>
      </trkpt>
      <trkpt lat="48.56175" lon="-2.7525">
        <ele>15</ele>
        <time>2019-02-22T08:29:11Z</time>
      </trkpt>
      <trkpt lat="48.56173" lon="-2.75245">
        <ele>14</ele>
        <time>2019-02-22T08:29:14Z</time>
      </trkpt>
      <trkpt lat="48.56171" lon="-2.7524">
        <ele>12</ele>
        <time>2019-02-22T08:29:18Z</time>
      </trkpt>
      <trkpt lat="48.56168" lon="-2.75235">
        <ele>11</ele>
        <time>2019-02-22T08:29:21Z</time>
      </trkpt>
      <trkpt lat="48.56166" lon="-2.75227">
        <ele>10</ele>
        <time>2019-02-22T08:29:25Z</time>
      </trkpt>
      <trkpt lat="48.56165" lon="-2.7522">
        <ele>10</ele>
        <time>2019-02-22T08:29:29Z</time>
      </trkpt>
      <trkpt lat="48.56163" lon="-2.75214">
        <ele>10</ele>
        <time>2019-02-22T08:29:32Z</time>
      </trkpt>
      <trkpt lat="48.56161" lon="-2.75208">
        <ele>10</ele>
        <time>2019-02-22T08:29:35Z</time>
      </trkpt>
      <trkpt lat="48.5616" lon="-2.75202">
        <ele>10</ele>
        <time>2019-02-22T08:29:38Z</time>
      </trkpt>
      <trkpt lat="48.56158" lon="-2.75195">
        <ele>10</ele>
        <time>2019-02-22T08:29:41Z</time>
      </trkpt>
      <trkpt lat="48.56156" lon="-2.75188">
        <ele>10</ele>
        <time>2019-02-22T08:29:44Z</time>
      </trkpt>
      <trkpt lat="48.56154" lon="-2.75182">
        <ele>10</ele>
        <time>2019-02-22T08:29:47Z</time>
      </trkpt>
      <trkpt lat="48.56153" lon="-2.75176">
        <ele>10</ele>
        <time>2019-02-22T08:29:50Z</time>
      </trkpt>
      <trkpt lat="48.56151" lon="-2.7517">
        <ele>10</ele>
        <time>2019-02-22T08:29:53Z</time>
      </trkpt>
      <trkpt lat="48.56151" lon="-2.75163">
        <ele>10</ele>
        <time>2019-02-22T08:29:56Z</time>
      </trkpt>
      <trkpt lat="48.5615" lon="-2.75157">
        <ele>10</ele>
        <time>2019-02-22T08:29:59Z</time>
      </trkpt>
      <trkpt lat="48.56149" lon="-2.7515">
        <ele>10</ele>
        <time>2019-02-22T08:30:02Z</time>
      </trkpt>
      <trkpt lat="48.56149" lon="-2.75143">
        <ele>10</ele>
        <time>2019-02-22T08:30:05Z</time>
      </trkpt>
      <trkpt lat="48.56148" lon="-2.75137">
        <ele>10</ele>
        <time>2019-02-22T08:30:08Z</time>
      </trkpt>
      <trkpt lat="48.5615" lon="-2.75132">
        <ele>10</ele>
        <time>2019-02-22T08:30:12Z</time>
      </trkpt>
      <trkpt lat="48.56153" lon="-2.75129">
        <ele>10</ele>
        <time>2019-02-22T08:30:15Z</time>
      </trkpt>
      <trkpt lat="48.56158" lon="-2.75129">
        <ele>10</ele>
        <time>2019-02-22T08:30:18Z</time>
      </trkpt>
      <trkpt lat="48.56162" lon="-2.75128">
        <ele>10</ele>
        <time>2019-02-22T08:30:23Z</time>
      </trkpt>
      <trkpt lat="48.56166" lon="-2.75127">
        <ele>10</ele>
        <time>2019-02-22T08:30:26Z</time>
      </trkpt>
      <trkpt lat="48.5617" lon="-2.75125">
        <ele>7</ele>
        <time>2019-02-22T08:30:30Z</time>
      </trkpt>
      <trkpt lat="48.56174" lon="-2.75124">
        <ele>6</ele>
        <time>2019-02-22T08:30:33Z</time>
      </trkpt>
      <trkpt lat="48.5618" lon="-2.75123">
        <ele>4</ele>
        <time>2019-02-22T08:30:36Z</time>
      </trkpt>
      <trkpt lat="48.56183" lon="-2.7512">
        <ele>4</ele>
        <time>2019-02-22T08:30:39Z</time>
      </trkpt>
      <trkpt lat="48.56186" lon="-2.7512">
        <ele>4</ele>
        <time>2019-02-22T08:30:42Z</time>
      </trkpt>
      <trkpt lat="48.56191" lon="-2.75119">
        <ele>3</ele>
        <time>2019-02-22T08:30:46Z</time>
      </trkpt>
      <trkpt lat="48.56194" lon="-2.75117">
        <ele>3</ele>
        <time>2019-02-22T08:30:49Z</time>
      </trkpt>
      <trkpt lat="48.56198" lon="-2.75115">
        <ele>3</ele>
        <time>2019-02-22T08:30:52Z</time>
      </trkpt>
      <trkpt lat="48.56204" lon="-2.75112">
        <ele>3</ele>
        <time>2019-02-22T08:30:56Z</time>
      </trkpt>
      <trkpt lat="48.56209" lon="-2.7511">
        <ele>4</ele>
        <time>2019-02-22T08:30:59Z</time>
      </trkpt>
      <trkpt lat="48.56214" lon="-2.75109">
        <ele>4</ele>
        <time>2019-02-22T08:31:02Z</time>
      </trkpt>
      <trkpt lat="48.5622" lon="-2.75106">
        <ele>4</ele>
        <time>2019-02-22T08:31:06Z</time>
      </trkpt>
      <trkpt lat="48.56224" lon="-2.75104">
        <ele>4</ele>
        <time>2019-02-22T08:31:09Z</time>
      </trkpt>
      <trkpt lat="48.56227" lon="-2.75104">
        <ele>4</ele>
        <time>2019-02-22T08:31:12Z</time>
      </trkpt>
      <trkpt lat="48.56231" lon="-2.75102">
        <ele>4</ele>
        <time>2019-02-22T08:31:15Z</time>
      </trkpt>
      <trkpt lat="48.56235" lon="-2.751">
        <ele>4</ele>
        <time>2019-02-22T08:31:18Z</time>
      </trkpt>
      <trkpt lat="48.56238" lon="-2.75098">
        <ele>4</ele>
        <time>2019-02-22T08:31:21Z</time>
      </trkpt>
      <trkpt lat="48.56242" lon="-2.75097">
        <ele>4</ele>
        <time>2019-02-22T08:31:24Z</time>
      </trkpt>
      <trkpt lat="48.56245" lon="-2.75096">
        <ele>4</ele>
        <time>2019-02-22T08:31:27Z</time>
      </trkpt>
      <trkpt lat="48.56248" lon="-2.75095">
        <ele>4</ele>
        <time>2019-02-22T08:31:31Z</time>
      </trkpt>
      <trkpt lat="48.56249" lon="-2.75097">
        <ele>4</ele>
        <time>2019-02-22T08:31:43Z</time>
      </trkpt>
      <trkpt lat="48.56251" lon="-2.75101">
        <ele>4</ele>
        <time>2019-02-22T08:31:47Z</time>
      </trkpt>
      <trkpt lat="48.56253" lon="-2.75105">
        <ele>4</ele>
        <time>2019-02-22T08:31:51Z</time>
      </trkpt>
      <trkpt lat="48.56254" lon="-2.75109">
        <ele>4</ele>
        <time>2019-02-22T08:31:55Z</time>
      </trkpt>
      <trkpt lat="48.56255" lon="-2.75111">
        <ele>4</ele>
        <time>2019-02-22T08:31:58Z</time>
      </trkpt>
      <trkpt lat="48.56256" lon="-2.75114">
        <ele>4</ele>
        <time>2019-02-22T08:32:02Z</time>
      </trkpt>
      <trkpt lat="48.56259" lon="-2.75117">
        <ele>4</ele>
        <time>2019-02-22T08:32:06Z</time>
      </trkpt>
      <trkpt lat="48.56261" lon="-2.75121">
        <ele>4</ele>
        <time>2019-02-22T08:32:10Z</time>
      </trkpt>
      <trkpt lat="48.56263" lon="-2.75125">
        <ele>4</ele>
        <time>2019-02-22T08:32:15Z</time>
      </trkpt>
      <trkpt lat="48.56264" lon="-2.75126">
        <ele>3</ele>
        <time>2019-02-22T08:32:25Z</time>
      </trkpt>
      <trkpt lat="48.56262" lon="-2.75125">
        <ele>3</ele>
        <time>2019-02-22T08:32:31Z</time>
      </trkpt>
      <trkpt lat="48.56264" lon="-2.75126">
        <ele>3</ele>
        <time>2019-02-22T08:32:46Z</time>
      </trkpt>
      <trkpt lat="48.56263" lon="-2.75126">
        <ele>4</ele>
        <time>2019-02-22T08:32:53Z</time>
      </trkpt>
      <trkpt lat="48.5626" lon="-2.75124">
        <ele>4</ele>
        <time>2019-02-22T08:32:58Z</time>
      </trkpt>
      <trkpt lat="48.5626" lon="-2.75126">
        <ele>4</ele>
        <time>2019-02-22T08:33:04Z</time>
      </trkpt>
      <trkpt lat="48.56261" lon="-2.75128">
        <ele>4</ele>
        <time>2019-02-22T08:33:07Z</time>
      </trkpt>
      <trkpt lat="48.56261" lon="-2.75129">
        <ele>4</ele>
        <time>2019-02-22T08:33:10Z</time>
      </trkpt>
      <trkpt lat="48.56263" lon="-2.7513">
        <ele>4</ele>
        <time>2019-02-22T08:33:16Z</time>
      </trkpt>
      <trkpt lat="48.56264" lon="-2.75133">
        <ele>4</ele>
        <time>2019-02-22T08:33:20Z</time>
      </trkpt>
      <trkpt lat="48.56266" lon="-2.75138">
        <ele>4</ele>
        <time>2019-02-22T08:33:24Z</time>
      </trkpt>
      <trkpt lat="48.56267" lon="-2.75145">
        <ele>4</ele>
        <time>2019-02-22T08:33:27Z</time>
      </trkpt>
      <trkpt lat="48.56269" lon="-2.75151">
        <ele>4</ele>
        <time>2019-02-22T08:33:31Z</time>
      </trkpt>
      <trkpt lat="48.5627" lon="-2.75159">
        <ele>4</ele>
        <time>2019-02-22T08:33:34Z</time>
      </trkpt>
      <trkpt lat="48.56271" lon="-2.75166">
        <ele>4</ele>
        <time>2019-02-22T08:33:37Z</time>
      </trkpt>
      <trkpt lat="48.56274" lon="-2.75172">
        <ele>4</ele>
        <time>2019-02-22T08:33:40Z</time>
      </trkpt>
      <trkpt lat="48.56276" lon="-2.75178">
        <ele>4</ele>
        <time>2019-02-22T08:33:43Z</time>
      </trkpt>
      <trkpt lat="48.56277" lon="-2.75183">
        <ele>4</ele>
        <time>2019-02-22T08:33:46Z</time>
      </trkpt>
      <trkpt lat="48.56279" lon="-2.75189">
        <ele>4</ele>
        <time>2019-02-22T08:33:50Z</time>
      </trkpt>
      <trkpt lat="48.5628" lon="-2.75196">
        <ele>4</ele>
        <time>2019-02-22T08:33:53Z</time>
      </trkpt>
      <trkpt lat="48.56282" lon="-2.75202">
        <ele>4</ele>
        <time>2019-02-22T08:33:56Z</time>
      </trkpt>
      <trkpt lat="48.56282" lon="-2.75208">
        <ele>4</ele>
        <time>2019-02-22T08:33:59Z</time>
      </trkpt>
      <trkpt lat="48.56284" lon="-2.75212">
        <ele>4</ele>
        <time>2019-02-22T08:34:02Z</time>
      </trkpt>
      <trkpt lat="48.56286" lon="-2.75217">
        <ele>4</ele>
        <time>2019-02-22T08:34:05Z</time>
      </trkpt>
      <trkpt lat="48.56287" lon="-2.75222">
        <ele>4</ele>
        <time>2019-02-22T08:34:09Z</time>
      </trkpt>
      <trkpt lat="48.56289" lon="-2.75225">
        <ele>4</ele>
        <time>2019-02-22T08:34:16Z</time>
      </trkpt>
      <trkpt lat="48.5629" lon="-2.75225">
        <ele>4</ele>
        <time>2019-02-22T08:34:50Z</time>
      </trkpt>
      <trkpt lat="48.56292" lon="-2.75224">
        <ele>4</ele>
        <time>2019-02-22T08:35:09Z</time>
      </trkpt>
      <trkpt lat="48.5629" lon="-2.75224">
        <ele>4</ele>
        <time>2019-02-22T08:35:18Z</time>
      </trkpt>
      <trkpt lat="48.56286" lon="-2.75222">
        <ele>4</ele>
        <time>2019-02-22T08:35:25Z</time>
      </trkpt>
      <trkpt lat="48.56287" lon="-2.75225">
        <ele>4</ele>
        <time>2019-02-22T08:35:28Z</time>
      </trkpt>
      <trkpt lat="48.56288" lon="-2.7523">
        <ele>4</ele>
        <time>2019-02-22T08:35:31Z</time>
      </trkpt>
      <trkpt lat="48.56291" lon="-2.75228">
        <ele>4</ele>
        <time>2019-02-22T08:35:35Z</time>
      </trkpt>
      <trkpt lat="48.56292" lon="-2.75232">
        <ele>4</ele>
        <time>2019-02-22T08:35:38Z</time>
      </trkpt>
      <trkpt lat="48.56293" lon="-2.75237">
        <ele>4</ele>
        <time>2019-02-22T08:35:41Z</time>
      </trkpt>
      <trkpt lat="48.56294" lon="-2.75243">
        <ele>4</ele>
        <time>2019-02-22T08:35:44Z</time>
      </trkpt>
      <trkpt lat="48.56296" lon="-2.75249">
        <ele>4</ele>
        <time>2019-02-22T08:35:47Z</time>
      </trkpt>
      <trkpt lat="48.56298" lon="-2.75258">
        <ele>4</ele>
        <time>2019-02-22T08:35:52Z</time>
      </trkpt>
      <trkpt lat="48.563" lon="-2.75265">
        <ele>4</ele>
        <time>2019-02-22T08:35:55Z</time>
      </trkpt>
      <trkpt lat="48.56302" lon="-2.75271">
        <ele>4</ele>
        <time>2019-02-22T08:35:59Z</time>
      </trkpt>
      <trkpt lat="48.56304" lon="-2.75279">
        <ele>4</ele>
        <time>2019-02-22T08:36:03Z</time>
      </trkpt>
      <trkpt lat="48.56307" lon="-2.75288">
        <ele>4</ele>
        <time>2019-02-22T08:36:06Z</time>
      </trkpt>
      <trkpt lat="48.56308" lon="-2.75294">
        <ele>4</ele>
        <time>2019-02-22T08:36:10Z</time>
      </trkpt>
      <trkpt lat="48.56311" lon="-2.75303">
        <ele>4</ele>
        <time>2019-02-22T08:36:15Z</time>
      </trkpt>
      <trkpt lat="48.56312" lon="-2.75308">
        <ele>4</ele>
        <time>2019-02-22T08:36:18Z</time>
      </trkpt>
      <trkpt lat="48.56314" lon="-2.75315">
        <ele>4</ele>
        <time>2019-02-22T08:36:21Z</time>
      </trkpt>
      <trkpt lat="48.56315" lon="-2.75321">
        <ele>4</ele>
        <time>2019-02-22T08:36:24Z</time>
      </trkpt>
      <trkpt lat="48.56317" lon="-2.75329">
        <ele>4</ele>
        <time>2019-02-22T08:36:29Z</time>
      </trkpt>
      <trkpt lat="48.56319" lon="-2.75335">
        <ele>5</ele>
        <time>2019-02-22T08:36:33Z</time>
      </trkpt>
      <trkpt lat="48.5632" lon="-2.75341">
        <ele>5</ele>
        <time>2019-02-22T08:36:36Z</time>
      </trkpt>
      <trkpt lat="48.56322" lon="-2.75347">
        <ele>5</ele>
        <time>2019-02-22T08:36:39Z</time>
      </trkpt>
      <trkpt lat="48.56325" lon="-2.75354">
        <ele>5</ele>
        <time>2019-02-22T08:36:43Z</time>
      </trkpt>
      <trkpt lat="48.56327" lon="-2.75362">
        <ele>5</ele>
        <time>2019-02-22T08:36:47Z</time>
      </trkpt>
      <trkpt lat="48.56329" lon="-2.75369">
        <ele>5</ele>
        <time>2019-02-22T08:36:50Z</time>
      </trkpt>
      <trkpt lat="48.5633" lon="-2.75372">
        <ele>5</ele>
        <time>2019-02-22T08:36:53Z</time>
      </trkpt>
      <trkpt lat="48.56332" lon="-2.75377">
        <ele>5</ele>
        <time>2019-02-22T08:36:57Z</time>
      </trkpt>
      <trkpt lat="48.56334" lon="-2.75383">
        <ele>5</ele>
        <time>2019-02-22T08:37:00Z</time>
      </trkpt>
      <trkpt lat="48.56335" lon="-2.75389">
        <ele>5</ele>
        <time>2019-02-22T08:37:03Z</time>
      </trkpt>
      <trkpt lat="48.56337" lon="-2.75395">
        <ele>5</ele>
        <time>2019-02-22T08:37:06Z</time>
      </trkpt>
      <trkpt lat="48.56338" lon="-2.754">
        <ele>5</ele>
        <time>2019-02-22T08:37:09Z</time>
      </trkpt>
      <trkpt lat="48.5634" lon="-2.75407">
        <ele>5</ele>
        <time>2019-02-22T08:37:12Z</time>
      </trkpt>
      <trkpt lat="48.56341" lon="-2.75414">
        <ele>5</ele>
        <time>2019-02-22T08:37:15Z</time>
      </trkpt>
      <trkpt lat="48.56343" lon="-2.7542">
        <ele>5</ele>
        <time>2019-02-22T08:37:18Z</time>
      </trkpt>
      <trkpt lat="48.56345" lon="-2.75425">
        <ele>5</ele>
        <time>2019-02-22T08:37:21Z</time>
      </trkpt>
      <trkpt lat="48.56347" lon="-2.75431">
        <ele>5</ele>
        <time>2019-02-22T08:37:26Z</time>
      </trkpt>
      <trkpt lat="48.5635" lon="-2.75439">
        <ele>5</ele>
        <time>2019-02-22T08:37:29Z</time>
      </trkpt>
      <trkpt lat="48.56351" lon="-2.75445">
        <ele>5</ele>
        <time>2019-02-22T08:37:32Z</time>
      </trkpt>
      <trkpt lat="48.56353" lon="-2.75451">
        <ele>5</ele>
        <time>2019-02-22T08:37:36Z</time>
      </trkpt>
      <trkpt lat="48.56355" lon="-2.75459">
        <ele>5</ele>
        <time>2019-02-22T08:37:40Z</time>
      </trkpt>
      <trkpt lat="48.56357" lon="-2.75462">
        <ele>5</ele>
        <time>2019-02-22T08:37:45Z</time>
      </trkpt>
      <trkpt lat="48.56358" lon="-2.75463">
        <ele>5</ele>
        <time>2019-02-22T08:37:55Z</time>
      </trkpt>
      <trkpt lat="48.56358" lon="-2.75468">
        <ele>5</ele>
        <time>2019-02-22T08:37:58Z</time>
      </trkpt>
      <trkpt lat="48.56359" lon="-2.75474">
        <ele>5</ele>
        <time>2019-02-22T08:38:01Z</time>
      </trkpt>
      <trkpt lat="48.56361" lon="-2.7548">
        <ele>5</ele>
        <time>2019-02-22T08:38:05Z</time>
      </trkpt>
      <trkpt lat="48.56363" lon="-2.75488">
        <ele>5</ele>
        <time>2019-02-22T08:38:08Z</time>
      </trkpt>
      <trkpt lat="48.56364" lon="-2.75494">
        <ele>7</ele>
        <time>2019-02-22T08:38:11Z</time>
      </trkpt>
      <trkpt lat="48.56366" lon="-2.755">
        <ele>7</ele>
        <time>2019-02-22T08:38:14Z</time>
      </trkpt>
      <trkpt lat="48.56369" lon="-2.75505">
        <ele>8</ele>
        <time>2019-02-22T08:38:17Z</time>
      </trkpt>
      <trkpt lat="48.56372" lon="-2.75511">
        <ele>9</ele>
        <time>2019-02-22T08:38:21Z</time>
      </trkpt>
      <trkpt lat="48.56373" lon="-2.75519">
        <ele>9</ele>
        <time>2019-02-22T08:38:24Z</time>
      </trkpt>
      <trkpt lat="48.56372" lon="-2.75526">
        <ele>9</ele>
        <time>2019-02-22T08:38:27Z</time>
      </trkpt>
      <trkpt lat="48.56375" lon="-2.75532">
        <ele>9</ele>
        <time>2019-02-22T08:38:30Z</time>
      </trkpt>
      <trkpt lat="48.56375" lon="-2.75538">
        <ele>9</ele>
        <time>2019-02-22T08:38:33Z</time>
      </trkpt>
      <trkpt lat="48.56377" lon="-2.75545">
        <ele>10</ele>
        <time>2019-02-22T08:38:36Z</time>
      </trkpt>
      <trkpt lat="48.56378" lon="-2.75552">
        <ele>10</ele>
        <time>2019-02-22T08:38:39Z</time>
      </trkpt>
      <trkpt lat="48.56379" lon="-2.75558">
        <ele>10</ele>
        <time>2019-02-22T08:38:43Z</time>
      </trkpt>
      <trkpt lat="48.56381" lon="-2.7556">
        <ele>10</ele>
        <time>2019-02-22T08:38:48Z</time>
      </trkpt>
      <trkpt lat="48.56385" lon="-2.75565">
        <ele>9</ele>
        <time>2019-02-22T08:38:51Z</time>
      </trkpt>
      <trkpt lat="48.56384" lon="-2.75564">
        <ele>8</ele>
        <time>2019-02-22T08:38:56Z</time>
      </trkpt>
      <trkpt lat="48.56383" lon="-2.75564">
        <ele>8</ele>
        <time>2019-02-22T08:39:11Z</time>
      </trkpt>
      <trkpt lat="48.56382" lon="-2.75566">
        <ele>8</ele>
        <time>2019-02-22T08:39:24Z</time>
      </trkpt>
      <trkpt lat="48.56387" lon="-2.75578">
        <ele>7</ele>
        <time>2019-02-22T08:39:27Z</time>
      </trkpt>
      <trkpt lat="48.56389" lon="-2.75582">
        <ele>7</ele>
        <time>2019-02-22T08:39:30Z</time>
      </trkpt>
      <trkpt lat="48.56392" lon="-2.75588">
        <ele>7</ele>
        <time>2019-02-22T08:39:35Z</time>
      </trkpt>
      <trkpt lat="48.56393" lon="-2.75592">
        <ele>7</ele>
        <time>2019-02-22T08:39:40Z</time>
      </trkpt>
      <trkpt lat="48.56392" lon="-2.75593">
        <ele>7</ele>
        <time>2019-02-22T08:39:43Z</time>
      </trkpt>
      <trkpt lat="48.56393" lon="-2.75593">
        <ele>7</ele>
        <time>2019-02-22T08:39:49Z</time>
      </trkpt>
      <trkpt lat="48.56392" lon="-2.75592">
        <ele>7</ele>
        <time>2019-02-22T08:39:58Z</time>
      </trkpt>
      <trkpt lat="48.5639" lon="-2.75592">
        <ele>11</ele>
        <time>2019-02-22T08:40:01Z</time>
      </trkpt>
      <trkpt lat="48.5639" lon="-2.75593">
        <ele>16</ele>
        <time>2019-02-22T08:40:14Z</time>
      </trkpt>
      <trkpt lat="48.56393" lon="-2.75593">
        <ele>16</ele>
        <time>2019-02-22T08:40:17Z</time>
      </trkpt>
      <trkpt lat="48.56395" lon="-2.75593">
        <ele>11</ele>
        <time>2019-02-22T08:40:42Z</time>
      </trkpt>
      <trkpt lat="48.56397" lon="-2.75594">
        <ele>10</ele>
        <time>2019-02-22T08:40:45Z</time>
      </trkpt>
      <trkpt lat="48.56398" lon="-2.75594">
        <ele>9</ele>
        <time>2019-02-22T08:40:50Z</time>
      </trkpt>
      <trkpt lat="48.56401" lon="-2.75595">
        <ele>9</ele>
        <time>2019-02-22T08:40:57Z</time>
      </trkpt>
      <trkpt lat="48.56399" lon="-2.75595">
        <ele>9</ele>
        <time>2019-02-22T08:41:03Z</time>
      </trkpt>
      <trkpt lat="48.56398" lon="-2.75597">
        <ele>7</ele>
        <time>2019-02-22T08:41:17Z</time>
      </trkpt>
      <trkpt lat="48.564" lon="-2.75596">
        <ele>6</ele>
        <time>2019-02-22T08:41:27Z</time>
      </trkpt>
      <trkpt lat="48.56401" lon="-2.75596">
        <ele>6</ele>
        <time>2019-02-22T08:41:34Z</time>
      </trkpt>
      <trkpt lat="48.56402" lon="-2.75595">
        <ele>6</ele>
        <time>2019-02-22T08:41:42Z</time>
      </trkpt>
      <trkpt lat="48.564" lon="-2.75596">
        <ele>5</ele>
        <time>2019-02-22T08:41:47Z</time>
      </trkpt>
      <trkpt lat="48.56401" lon="-2.75601">
        <ele>5</ele>
        <time>2019-02-22T08:41:59Z</time>
      </trkpt>
      <trkpt lat="48.56402" lon="-2.75603">
        <ele>8</ele>
        <time>2019-02-22T08:42:05Z</time>
      </trkpt>
      <trkpt lat="48.56401" lon="-2.75606">
        <ele>8</ele>
        <time>2019-02-22T08:42:09Z</time>
      </trkpt>
      <trkpt lat="48.56399" lon="-2.75612">
        <ele>9</ele>
        <time>2019-02-22T08:42:14Z</time>
      </trkpt>
      <trkpt lat="48.56398" lon="-2.75617">
        <ele>9</ele>
        <time>2019-02-22T08:42:18Z</time>
      </trkpt>
      <trkpt lat="48.56401" lon="-2.75623">
        <ele>10</ele>
        <time>2019-02-22T08:42:21Z</time>
      </trkpt>
      <trkpt lat="48.56403" lon="-2.75626">
        <ele>10</ele>
        <time>2019-02-22T08:42:26Z</time>
      </trkpt>
      <trkpt lat="48.56405" lon="-2.7563">
        <ele>10</ele>
        <time>2019-02-22T08:42:29Z</time>
      </trkpt>
      <trkpt lat="48.56408" lon="-2.75632">
        <ele>10</ele>
        <time>2019-02-22T08:42:39Z</time>
      </trkpt>
      <trkpt lat="48.56408" lon="-2.75634">
        <ele>10</ele>
        <time>2019-02-22T08:42:42Z</time>
      </trkpt>
      <trkpt lat="48.56406" lon="-2.75633">
        <ele>9</ele>
        <time>2019-02-22T08:42:47Z</time>
      </trkpt>
      <trkpt lat="48.56403" lon="-2.75628">
        <ele>9</ele>
        <time>2019-02-22T08:42:50Z</time>
      </trkpt>
      <trkpt lat="48.564" lon="-2.75625">
        <ele>9</ele>
        <time>2019-02-22T08:42:54Z</time>
      </trkpt>
      <trkpt lat="48.56398" lon="-2.75625">
        <ele>9</ele>
        <time>2019-02-22T08:43:06Z</time>
      </trkpt>
      <trkpt lat="48.56395" lon="-2.75624">
        <ele>9</ele>
        <time>2019-02-22T08:43:17Z</time>
      </trkpt>
      <trkpt lat="48.56398" lon="-2.75625">
        <ele>8</ele>
        <time>2019-02-22T08:43:53Z</time>
      </trkpt>
      <trkpt lat="48.56403" lon="-2.7563">
        <ele>6</ele>
        <time>2019-02-22T08:43:56Z</time>
      </trkpt>
      <trkpt lat="48.56406" lon="-2.75634">
        <ele>6</ele>
        <time>2019-02-22T08:43:59Z</time>
      </trkpt>
      <trkpt lat="48.56408" lon="-2.7564">
        <ele>6</ele>
        <time>2019-02-22T08:44:03Z</time>
      </trkpt>
      <trkpt lat="48.56408" lon="-2.75648">
        <ele>6</ele>
        <time>2019-02-22T08:44:06Z</time>
      </trkpt>
      <trkpt lat="48.5641" lon="-2.75654">
        <ele>6</ele>
        <time>2019-02-22T08:44:09Z</time>
      </trkpt>
      <trkpt lat="48.56411" lon="-2.75661">
        <ele>6</ele>
        <time>2019-02-22T08:44:13Z</time>
      </trkpt>
      <trkpt lat="48.56414" lon="-2.75668">
        <ele>6</ele>
        <time>2019-02-22T08:44:16Z</time>
      </trkpt>
      <trkpt lat="48.56416" lon="-2.75669">
        <ele>6</ele>
        <time>2019-02-22T08:44:20Z</time>
      </trkpt>
      <trkpt lat="48.56418" lon="-2.75674">
        <ele>6</ele>
        <time>2019-02-22T08:44:23Z</time>
      </trkpt>
      <trkpt lat="48.56419" lon="-2.75676">
        <ele>5</ele>
        <time>2019-02-22T08:44:27Z</time>
      </trkpt>
      <trkpt lat="48.5642" lon="-2.75685">
        <ele>5</ele>
        <time>2019-02-22T08:44:30Z</time>
      </trkpt>
      <trkpt lat="48.56422" lon="-2.75692">
        <ele>5</ele>
        <time>2019-02-22T08:44:33Z</time>
      </trkpt>
      <trkpt lat="48.56422" lon="-2.75699">
        <ele>5</ele>
        <time>2019-02-22T08:44:37Z</time>
      </trkpt>
      <trkpt lat="48.56423" lon="-2.75703">
        <ele>5</ele>
        <time>2019-02-22T08:44:40Z</time>
      </trkpt>
      <trkpt lat="48.56425" lon="-2.75708">
        <ele>5</ele>
        <time>2019-02-22T08:44:43Z</time>
      </trkpt>
      <trkpt lat="48.56427" lon="-2.75713">
        <ele>5</ele>
        <time>2019-02-22T08:44:47Z</time>
      </trkpt>
      <trkpt lat="48.56429" lon="-2.7572">
        <ele>5</ele>
        <time>2019-02-22T08:44:50Z</time>
      </trkpt>
      <trkpt lat="48.56431" lon="-2.75726">
        <ele>5</ele>
        <time>2019-02-22T08:44:53Z</time>
      </trkpt>
      <trkpt lat="48.56433" lon="-2.75733">
        <ele>5</ele>
        <time>2019-02-22T08:44:57Z</time>
      </trkpt>
      <trkpt lat="48.56436" lon="-2.75743">
        <ele>5</ele>
        <time>2019-02-22T08:45:00Z</time>
      </trkpt>
      <trkpt lat="48.56438" lon="-2.7575">
        <ele>5</ele>
        <time>2019-02-22T08:45:03Z</time>
      </trkpt>
      <trkpt lat="48.56441" lon="-2.75755">
        <ele>4</ele>
        <time>2019-02-22T08:45:07Z</time>
      </trkpt>
      <trkpt lat="48.56444" lon="-2.75764">
        <ele>4</ele>
        <time>2019-02-22T08:45:10Z</time>
      </trkpt>
      <trkpt lat="48.56445" lon="-2.75771">
        <ele>4</ele>
        <time>2019-02-22T08:45:13Z</time>
      </trkpt>
      <trkpt lat="48.56448" lon="-2.75778">
        <ele>4</ele>
        <time>2019-02-22T08:45:17Z</time>
      </trkpt>
      <trkpt lat="48.5645" lon="-2.75787">
        <ele>4</ele>
        <time>2019-02-22T08:45:20Z</time>
      </trkpt>
      <trkpt lat="48.56452" lon="-2.75794">
        <ele>4</ele>
        <time>2019-02-22T08:45:23Z</time>
      </trkpt>
      <trkpt lat="48.56454" lon="-2.75801">
        <ele>4</ele>
        <time>2019-02-22T08:45:28Z</time>
      </trkpt>
      <trkpt lat="48.56453" lon="-2.75802">
        <ele>4</ele>
        <time>2019-02-22T08:45:34Z</time>
      </trkpt>
      <trkpt lat="48.56453" lon="-2.75806">
        <ele>4</ele>
        <time>2019-02-22T08:45:37Z</time>
      </trkpt>
      <trkpt lat="48.56455" lon="-2.75812">
        <ele>4</ele>
        <time>2019-02-22T08:45:40Z</time>
      </trkpt>
      <trkpt lat="48.56457" lon="-2.75818">
        <ele>4</ele>
        <time>2019-02-22T08:45:43Z</time>
      </trkpt>
      <trkpt lat="48.56459" lon="-2.75824">
        <ele>4</ele>
        <time>2019-02-22T08:45:46Z</time>
      </trkpt>
      <trkpt lat="48.56461" lon="-2.75831">
        <ele>4</ele>
        <time>2019-02-22T08:45:50Z</time>
      </trkpt>
      <trkpt lat="48.56462" lon="-2.75837">
        <ele>4</ele>
        <time>2019-02-22T08:45:53Z</time>
      </trkpt>
      <trkpt lat="48.56463" lon="-2.75847">
        <ele>6</ele>
        <time>2019-02-22T08:46:05Z</time>
      </trkpt>
      <trkpt lat="48.56467" lon="-2.75856">
        <ele>6</ele>
        <time>2019-02-22T08:46:08Z</time>
      </trkpt>
      <trkpt lat="48.56469" lon="-2.75864">
        <ele>6</ele>
        <time>2019-02-22T08:46:11Z</time>
      </trkpt>
      <trkpt lat="48.5647" lon="-2.75868">
        <ele>6</ele>
        <time>2019-02-22T08:46:17Z</time>
      </trkpt>
      <trkpt lat="48.56471" lon="-2.75873">
        <ele>6</ele>
        <time>2019-02-22T08:46:20Z</time>
      </trkpt>
      <trkpt lat="48.56475" lon="-2.75881">
        <ele>6</ele>
        <time>2019-02-22T08:46:23Z</time>
      </trkpt>
      <trkpt lat="48.56477" lon="-2.75887">
        <ele>6</ele>
        <time>2019-02-22T08:46:26Z</time>
      </trkpt>
      <trkpt lat="48.56479" lon="-2.75894">
        <ele>6</ele>
        <time>2019-02-22T08:46:29Z</time>
      </trkpt>
      <trkpt lat="48.56482" lon="-2.75901">
        <ele>6</ele>
        <time>2019-02-22T08:46:33Z</time>
      </trkpt>
      <trkpt lat="48.56485" lon="-2.7591">
        <ele>6</ele>
        <time>2019-02-22T08:46:36Z</time>
      </trkpt>
      <trkpt lat="48.56488" lon="-2.75917">
        <ele>5</ele>
        <time>2019-02-22T08:46:39Z</time>
      </trkpt>
      <trkpt lat="48.56491" lon="-2.75924">
        <ele>4</ele>
        <time>2019-02-22T08:46:42Z</time>
      </trkpt>
      <trkpt lat="48.56493" lon="-2.75931">
        <ele>3</ele>
        <time>2019-02-22T08:46:45Z</time>
      </trkpt>
      <trkpt lat="48.56496" lon="-2.75939">
        <ele>3</ele>
        <time>2019-02-22T08:46:48Z</time>
      </trkpt>
      <trkpt lat="48.56498" lon="-2.75947">
        <ele>2</ele>
        <time>2019-02-22T08:46:51Z</time>
      </trkpt>
      <trkpt lat="48.56501" lon="-2.75954">
        <ele>2</ele>
        <time>2019-02-22T08:46:54Z</time>
      </trkpt>
      <trkpt lat="48.56502" lon="-2.75961">
        <ele>2</ele>
        <time>2019-02-22T08:46:57Z</time>
      </trkpt>
      <trkpt lat="48.56504" lon="-2.75968">
        <ele>2</ele>
        <time>2019-02-22T08:47:00Z</time>
      </trkpt>
      <trkpt lat="48.56507" lon="-2.75975">
        <ele>2</ele>
        <time>2019-02-22T08:47:03Z</time>
      </trkpt>
      <trkpt lat="48.56509" lon="-2.75982">
        <ele>2</ele>
        <time>2019-02-22T08:47:06Z</time>
      </trkpt>
      <trkpt lat="48.5651" lon="-2.7599">
        <ele>2</ele>
        <time>2019-02-22T08:47:09Z</time>
      </trkpt>
      <trkpt lat="48.56512" lon="-2.75996">
        <ele>2</ele>
        <time>2019-02-22T08:47:12Z</time>
      </trkpt>
      <trkpt lat="48.56515" lon="-2.76002">
        <ele>2</ele>
        <time>2019-02-22T08:47:15Z</time>
      </trkpt>
      <trkpt lat="48.56514" lon="-2.76009">
        <ele>2</ele>
        <time>2019-02-22T08:47:18Z</time>
      </trkpt>
      <trkpt lat="48.56516" lon="-2.76015">
        <ele>2</ele>
        <time>2019-02-22T08:47:21Z</time>
      </trkpt>
      <trkpt lat="48.56519" lon="-2.76022">
        <ele>2</ele>
        <time>2019-02-22T08:47:24Z</time>
      </trkpt>
      <trkpt lat="48.56522" lon="-2.76029">
        <ele>2</ele>
        <time>2019-02-22T08:47:27Z</time>
      </trkpt>
      <trkpt lat="48.56525" lon="-2.76035">
        <ele>2</ele>
        <time>2019-02-22T08:47:30Z</time>
      </trkpt>
      <trkpt lat="48.56528" lon="-2.76041">
        <ele>2</ele>
        <time>2019-02-22T08:47:33Z</time>
      </trkpt>
      <trkpt lat="48.56532" lon="-2.76047">
        <ele>2</ele>
        <time>2019-02-22T08:47:36Z</time>
      </trkpt>
      <trkpt lat="48.56535" lon="-2.76055">
        <ele>2</ele>
        <time>2019-02-22T08:47:39Z</time>
      </trkpt>
      <trkpt lat="48.56536" lon="-2.76061">
        <ele>2</ele>
        <time>2019-02-22T08:47:42Z</time>
      </trkpt>
      <trkpt lat="48.56539" lon="-2.76067">
        <ele>2</ele>
        <time>2019-02-22T08:47:45Z</time>
      </trkpt>
      <trkpt lat="48.56541" lon="-2.76073">
        <ele>2</ele>
        <time>2019-02-22T08:47:48Z</time>
      </trkpt>
      <trkpt lat="48.56544" lon="-2.76079">
        <ele>2</ele>
        <time>2019-02-22T08:47:51Z</time>
      </trkpt>
      <trkpt lat="48.56547" lon="-2.76084">
        <ele>2</ele>
        <time>2019-02-22T08:47:54Z</time>
      </trkpt>
      <trkpt lat="48.56551" lon="-2.76091">
        <ele>1</ele>
        <time>2019-02-22T08:47:57Z</time>
      </trkpt>
      <trkpt lat="48.56554" lon="-2.76097">
        <ele>1</ele>
        <time>2019-02-22T08:48:00Z</time>
      </trkpt>
      <trkpt lat="48.56556" lon="-2.76103">
        <ele>1</ele>
        <time>2019-02-22T08:48:03Z</time>
      </trkpt>
      <trkpt lat="48.56559" lon="-2.76109">
        <ele>1</ele>
        <time>2019-02-22T08:48:07Z</time>
      </trkpt>
      <trkpt lat="48.56561" lon="-2.76114">
        <ele>1</ele>
        <time>2019-02-22T08:48:10Z</time>
      </trkpt>
      <trkpt lat="48.56563" lon="-2.7612">
        <ele>2</ele>
        <time>2019-02-22T08:48:13Z</time>
      </trkpt>
      <trkpt lat="48.56567" lon="-2.76129">
        <ele>6</ele>
        <time>2019-02-22T08:48:16Z</time>
      </trkpt>
      <trkpt lat="48.56568" lon="-2.76136">
        <ele>6</ele>
        <time>2019-02-22T08:48:19Z</time>
      </trkpt>
      <trkpt lat="48.5657" lon="-2.76142">
        <ele>6</ele>
        <time>2019-02-22T08:48:22Z</time>
      </trkpt>
      <trkpt lat="48.56572" lon="-2.76148">
        <ele>6</ele>
        <time>2019-02-22T08:48:25Z</time>
      </trkpt>
      <trkpt lat="48.56573" lon="-2.76155">
        <ele>4</ele>
        <time>2019-02-22T08:48:28Z</time>
      </trkpt>
      <trkpt lat="48.56577" lon="-2.76162">
        <ele>4</ele>
        <time>2019-02-22T08:48:31Z</time>
      </trkpt>
      <trkpt lat="48.56577" lon="-2.76169">
        <ele>4</ele>
        <time>2019-02-22T08:48:34Z</time>
      </trkpt>
      <trkpt lat="48.56581" lon="-2.76176">
        <ele>4</ele>
        <time>2019-02-22T08:48:37Z</time>
      </trkpt>
      <trkpt lat="48.56584" lon="-2.76183">
        <ele>4</ele>
        <time>2019-02-22T08:48:40Z</time>
      </trkpt>
      <trkpt lat="48.56586" lon="-2.76189">
        <ele>4</ele>
        <time>2019-02-22T08:48:43Z</time>
      </trkpt>
      <trkpt lat="48.56588" lon="-2.76196">
        <ele>3</ele>
        <time>2019-02-22T08:48:46Z</time>
      </trkpt>
      <trkpt lat="48.56592" lon="-2.76203">
        <ele>3</ele>
        <time>2019-02-22T08:48:49Z</time>
      </trkpt>
      <trkpt lat="48.56595" lon="-2.7621">
        <ele>3</ele>
        <time>2019-02-22T08:48:52Z</time>
      </trkpt>
      <trkpt lat="48.56594" lon="-2.76215">
        <ele>3</ele>
        <time>2019-02-22T08:48:56Z</time>
      </trkpt>
      <trkpt lat="48.56594" lon="-2.76218">
        <ele>3</ele>
        <time>2019-02-22T08:49:02Z</time>
      </trkpt>
      <trkpt lat="48.56598" lon="-2.76227">
        <ele>3</ele>
        <time>2019-02-22T08:49:05Z</time>
      </trkpt>
      <trkpt lat="48.56602" lon="-2.76235">
        <ele>2</ele>
        <time>2019-02-22T08:49:09Z</time>
      </trkpt>
      <trkpt lat="48.566" lon="-2.76242">
        <ele>1</ele>
        <time>2019-02-22T08:49:12Z</time>
      </trkpt>
      <trkpt lat="48.56604" lon="-2.76246">
        <ele>1</ele>
        <time>2019-02-22T08:49:16Z</time>
      </trkpt>
      <trkpt lat="48.56607" lon="-2.7625">
        <ele>1</ele>
        <time>2019-02-22T08:49:19Z</time>
      </trkpt>
      <trkpt lat="48.56608" lon="-2.76255">
        <ele>7.9</ele>
        <time>2019-02-22T08:49:22Z</time>
      </trkpt>
      <trkpt lat="48.5661" lon="-2.76262">
        <ele>8.1</ele>
        <time>2019-02-22T08:49:26Z</time>
      </trkpt>
      <trkpt lat="48.56614" lon="-2.76271">
        <ele>8</ele>
        <time>2019-02-22T08:49:30Z</time>
      </trkpt>
      <trkpt lat="48.56616" lon="-2.76277">
        <ele>8.1</ele>
        <time>2019-02-22T08:49:33Z</time>
      </trkpt>
      <trkpt lat="48.56622" lon="-2.76286">
        <ele>2</ele>
        <time>2019-02-22T08:49:36Z</time>
      </trkpt>
      <trkpt lat="48.56624" lon="-2.76293">
        <ele>3</ele>
        <time>2019-02-22T08:49:39Z</time>
      </trkpt>
      <trkpt lat="48.56626" lon="-2.76302">
        <ele>3</ele>
        <time>2019-02-22T08:49:42Z</time>
      </trkpt>
      <trkpt lat="48.56628" lon="-2.76309">
        <ele>3</ele>
        <time>2019-02-22T08:49:45Z</time>
      </trkpt>
      <trkpt lat="48.5663" lon="-2.76316">
        <ele>3</ele>
        <time>2019-02-22T08:49:48Z</time>
      </trkpt>
      <trkpt lat="48.56631" lon="-2.76323">
        <ele>3</ele>
        <time>2019-02-22T08:49:51Z</time>
      </trkpt>
      <trkpt lat="48.56633" lon="-2.76329">
        <ele>3</ele>
        <time>2019-02-22T08:49:54Z</time>
      </trkpt>
      <trkpt lat="48.56636" lon="-2.76336">
        <ele>3</ele>
        <time>2019-02-22T08:49:57Z</time>
      </trkpt>
      <trkpt lat="48.56639" lon="-2.76343">
        <ele>3</ele>
        <time>2019-02-22T08:50:00Z</time>
      </trkpt>
      <trkpt lat="48.56641" lon="-2.7635">
        <ele>3</ele>
        <time>2019-02-22T08:50:03Z</time>
      </trkpt>
      <trkpt lat="48.56642" lon="-2.76358">
        <ele>3</ele>
        <time>2019-02-22T08:50:06Z</time>
      </trkpt>
      <trkpt lat="48.56646" lon="-2.76364">
        <ele>3</ele>
        <time>2019-02-22T08:50:09Z</time>
      </trkpt>
      <trkpt lat="48.5665" lon="-2.76371">
        <ele>3</ele>
        <time>2019-02-22T08:50:12Z</time>
      </trkpt>
      <trkpt lat="48.56654" lon="-2.76378">
        <ele>3</ele>
        <time>2019-02-22T08:50:15Z</time>
      </trkpt>
      <trkpt lat="48.56654" lon="-2.76382">
        <ele>3</ele>
        <time>2019-02-22T08:50:18Z</time>
      </trkpt>
      <trkpt lat="48.56656" lon="-2.76388">
        <ele>3</ele>
        <time>2019-02-22T08:50:21Z</time>
      </trkpt>
      <trkpt lat="48.56656" lon="-2.76392">
        <ele>3</ele>
        <time>2019-02-22T08:50:24Z</time>
      </trkpt>
      <trkpt lat="48.56653" lon="-2.76394">
        <ele>3</ele>
        <time>2019-02-22T08:50:29Z</time>
      </trkpt>
      <trkpt lat="48.56657" lon="-2.764">
        <ele>4</ele>
        <time>2019-02-22T08:50:32Z</time>
      </trkpt>
      <trkpt lat="48.5666" lon="-2.76405">
        <ele>5</ele>
        <time>2019-02-22T08:50:35Z</time>
      </trkpt>
      <trkpt lat="48.56659" lon="-2.76411">
        <ele>5</ele>
        <time>2019-02-22T08:50:39Z</time>
      </trkpt>
      <trkpt lat="48.56662" lon="-2.76416">
        <ele>5</ele>
        <time>2019-02-22T08:50:43Z</time>
      </trkpt>
      <trkpt lat="48.56667" lon="-2.76421">
        <ele>5</ele>
        <time>2019-02-22T08:50:46Z</time>
      </trkpt>
      <trkpt lat="48.56673" lon="-2.76426">
        <ele>5</ele>
        <time>2019-02-22T08:50:49Z</time>
      </trkpt>
      <trkpt lat="48.56672" lon="-2.76432">
        <ele>5</ele>
        <time>2019-02-22T08:50:53Z</time>
      </trkpt>
      <trkpt lat="48.5667" lon="-2.76431">
        <ele>5</ele>
        <time>2019-02-22T08:50:59Z</time>
      </trkpt>
      <trkpt lat="48.56671" lon="-2.76436">
        <ele>5</ele>
        <time>2019-02-22T08:51:02Z</time>
      </trkpt>
      <trkpt lat="48.56676" lon="-2.76442">
        <ele>5</ele>
        <time>2019-02-22T08:51:05Z</time>
      </trkpt>
      <trkpt lat="48.56682" lon="-2.76449">
        <ele>5</ele>
        <time>2019-02-22T08:51:08Z</time>
      </trkpt>
      <trkpt lat="48.56686" lon="-2.76455">
        <ele>5</ele>
        <time>2019-02-22T08:51:11Z</time>
      </trkpt>
      <trkpt lat="48.56694" lon="-2.7646">
        <ele>5</ele>
        <time>2019-02-22T08:51:14Z</time>
      </trkpt>
      <trkpt lat="48.56699" lon="-2.76467">
        <ele>5</ele>
        <time>2019-02-22T08:51:17Z</time>
      </trkpt>
      <trkpt lat="48.567" lon="-2.76471">
        <ele>5</ele>
        <time>2019-02-22T08:51:21Z</time>
      </trkpt>
      <trkpt lat="48.56702" lon="-2.76476">
        <ele>5</ele>
        <time>2019-02-22T08:51:24Z</time>
      </trkpt>
      <trkpt lat="48.56707" lon="-2.76482">
        <ele>5</ele>
        <time>2019-02-22T08:51:27Z</time>
      </trkpt>
      <trkpt lat="48.56711" lon="-2.76486">
        <ele>5</ele>
        <time>2019-02-22T08:51:30Z</time>
      </trkpt>
      <trkpt lat="48.56717" lon="-2.76491">
        <ele>5</ele>
        <time>2019-02-22T08:51:33Z</time>
      </trkpt>
      <trkpt lat="48.56723" lon="-2.76495">
        <ele>5</ele>
        <time>2019-02-22T08:51:36Z</time>
      </trkpt>
      <trkpt lat="48.5673" lon="-2.76499">
        <ele>5</ele>
        <time>2019-02-22T08:51:40Z</time>
      </trkpt>
      <trkpt lat="48.56735" lon="-2.765">
        <ele>5</ele>
        <time>2019-02-22T08:51:43Z</time>
      </trkpt>
      <trkpt lat="48.56741" lon="-2.76501">
        <ele>5</ele>
        <time>2019-02-22T08:51:46Z</time>
      </trkpt>
      <trkpt lat="48.56746" lon="-2.76501">
        <ele>5</ele>
        <time>2019-02-22T08:51:51Z</time>
      </trkpt>
      <trkpt lat="48.56749" lon="-2.76501">
        <ele>6</ele>
        <time>2019-02-22T08:51:54Z</time>
      </trkpt>
      <trkpt lat="48.56753" lon="-2.76501">
        <ele>7</ele>
        <time>2019-02-22T08:51:58Z</time>
      </trkpt>
      <trkpt lat="48.56755" lon="-2.765">
        <ele>7</ele>
        <time>2019-02-22T08:52:01Z</time>
      </trkpt>
      <trkpt lat="48.56759" lon="-2.76498">
        <ele>7</ele>
        <time>2019-02-22T08:52:05Z</time>
      </trkpt>
      <trkpt lat="48.56764" lon="-2.76497">
        <ele>7</ele>
        <time>2019-02-22T08:52:09Z</time>
      </trkpt>
      <trkpt lat="48.56767" lon="-2.76498">
        <ele>7</ele>
        <time>2019-02-22T08:52:14Z</time>
      </trkpt>
      <trkpt lat="48.56768" lon="-2.76499">
        <ele>7</ele>
        <time>2019-02-22T08:52:17Z</time>
      </trkpt>
      <trkpt lat="48.5677" lon="-2.76501">
        <ele>7</ele>
        <time>2019-02-22T08:52:20Z</time>
      </trkpt>
      <trkpt lat="48.5677" lon="-2.76499">
        <ele>7</ele>
        <time>2019-02-22T08:52:29Z</time>
      </trkpt>
      <trkpt lat="48.5677" lon="-2.76497">
        <ele>7</ele>
        <time>2019-02-22T08:52:32Z</time>
      </trkpt>
      <trkpt lat="48.56772" lon="-2.76496">
        <ele>7</ele>
        <time>2019-02-22T08:52:37Z</time>
      </trkpt>
      <trkpt lat="48.56775" lon="-2.76498">
        <ele>7</ele>
        <time>2019-02-22T08:52:40Z</time>
      </trkpt>
      <trkpt lat="48.56778" lon="-2.765">
        <ele>5</ele>
        <time>2019-02-22T08:52:44Z</time>
      </trkpt>
      <trkpt lat="48.56779" lon="-2.765">
        <ele>5</ele>
        <time>2019-02-22T08:52:47Z</time>
      </trkpt>
      <trkpt lat="48.56779" lon="-2.76498">
        <ele>5</ele>
        <time>2019-02-22T08:52:57Z</time>
      </trkpt>
      <trkpt lat="48.56778" lon="-2.765">
        <ele>5</ele>
        <time>2019-02-22T08:53:23Z</time>
      </trkpt>
      <trkpt lat="48.56777" lon="-2.76501">
        <ele>5</ele>
        <time>2019-02-22T08:53:26Z</time>
      </trkpt>
      <trkpt lat="48.56774" lon="-2.76505">
        <ele>5</ele>
        <time>2019-02-22T08:53:30Z</time>
      </trkpt>
      <trkpt lat="48.56771" lon="-2.76508">
        <ele>5</ele>
        <time>2019-02-22T08:53:34Z</time>
      </trkpt>
      <trkpt lat="48.56769" lon="-2.76513">
        <ele>5</ele>
        <time>2019-02-22T08:53:38Z</time>
      </trkpt>
      <trkpt lat="48.56768" lon="-2.76517">
        <ele>5</ele>
        <time>2019-02-22T08:53:42Z</time>
      </trkpt>
      <trkpt lat="48.56767" lon="-2.76521">
        <ele>5</ele>
        <time>2019-02-22T08:53:46Z</time>
      </trkpt>
      <trkpt lat="48.56765" lon="-2.76524">
        <ele>6</ele>
        <time>2019-02-22T08:53:52Z</time>
      </trkpt>
      <trkpt lat="48.56762" lon="-2.76525">
        <ele>6</ele>
        <time>2019-02-22T08:53:55Z</time>
      </trkpt>
      <trkpt lat="48.5676" lon="-2.76527">
        <ele>6</ele>
        <time>2019-02-22T08:53:58Z</time>
      </trkpt>
      <trkpt lat="48.56758" lon="-2.76531">
        <ele>6</ele>
        <time>2019-02-22T08:54:01Z</time>
      </trkpt>
      <trkpt lat="48.56756" lon="-2.76534">
        <ele>7</ele>
        <time>2019-02-22T08:54:05Z</time>
      </trkpt>
      <trkpt lat="48.56754" lon="-2.76538">
        <ele>8</ele>
        <time>2019-02-22T08:54:09Z</time>
      </trkpt>
      <trkpt lat="48.56754" lon="-2.7654">
        <ele>10</ele>
        <time>2019-02-22T08:54:18Z</time>
      </trkpt>
      <trkpt lat="48.56755" lon="-2.76537">
        <ele>11</ele>
        <time>2019-02-22T08:54:22Z</time>
      </trkpt>
      <trkpt lat="48.56758" lon="-2.76535">
        <ele>12</ele>
        <time>2019-02-22T08:54:26Z</time>
      </trkpt>
      <trkpt lat="48.56759" lon="-2.76528">
        <ele>13</ele>
        <time>2019-02-22T08:54:30Z</time>
      </trkpt>
      <trkpt lat="48.5676" lon="-2.76527">
        <ele>14</ele>
        <time>2019-02-22T08:54:34Z</time>
      </trkpt>
      <trkpt lat="48.56763" lon="-2.76523">
        <ele>14</ele>
        <time>2019-02-22T08:54:38Z</time>
      </trkpt>
      <trkpt lat="48.56763" lon="-2.76521">
        <ele>14</ele>
        <time>2019-02-22T08:54:42Z</time>
      </trkpt>
      <trkpt lat="48.56765" lon="-2.76517">
        <ele>14</ele>
        <time>2019-02-22T08:54:46Z</time>
      </trkpt>
      <trkpt lat="48.56765" lon="-2.76512">
        <ele>11</ele>
        <time>2019-02-22T08:54:51Z</time>
      </trkpt>
      <trkpt lat="48.56768" lon="-2.76508">
        <ele>11</ele>
        <time>2019-02-22T08:54:54Z</time>
      </trkpt>
      <trkpt lat="48.56772" lon="-2.76502">
        <ele>11</ele>
        <time>2019-02-22T08:54:58Z</time>
      </trkpt>
      <trkpt lat="48.56771" lon="-2.76498">
        <ele>10</ele>
        <time>2019-02-22T08:55:02Z</time>
      </trkpt>
      <trkpt lat="48.56771" lon="-2.765">
        <ele>9</ele>
        <time>2019-02-22T08:55:06Z</time>
      </trkpt>
      <trkpt lat="48.5677" lon="-2.76499">
        <ele>8</ele>
        <time>2019-02-22T08:55:09Z</time>
      </trkpt>
      <trkpt lat="48.56767" lon="-2.76498">
        <ele>7</ele>
        <time>2019-02-22T08:55:12Z</time>
      </trkpt>
      <trkpt lat="48.56763" lon="-2.76497">
        <ele>7</ele>
        <time>2019-02-22T08:55:16Z</time>
      </trkpt>
      <trkpt lat="48.5676" lon="-2.76498">
        <ele>6</ele>
        <time>2019-02-22T08:55:19Z</time>
      </trkpt>
      <trkpt lat="48.56758" lon="-2.76499">
        <ele>6</ele>
        <time>2019-02-22T08:55:23Z</time>
      </trkpt>
      <trkpt lat="48.56754" lon="-2.765">
        <ele>6</ele>
        <time>2019-02-22T08:55:26Z</time>
      </trkpt>
      <trkpt lat="48.56751" lon="-2.76501">
        <ele>6</ele>
        <time>2019-02-22T08:55:29Z</time>
      </trkpt>
      <trkpt lat="48.56747" lon="-2.76501">
        <ele>6</ele>
        <time>2019-02-22T08:55:32Z</time>
      </trkpt>
      <trkpt lat="48.56742" lon="-2.76502">
        <ele>6</ele>
        <time>2019-02-22T08:55:35Z</time>
      </trkpt>
      <trkpt lat="48.56736" lon="-2.76501">
        <ele>6</ele>
        <time>2019-02-22T08:55:38Z</time>
      </trkpt>
      <trkpt lat="48.56733" lon="-2.76501">
        <ele>6</ele>
        <time>2019-02-22T08:55:42Z</time>
      </trkpt>
      <trkpt lat="48.56727" lon="-2.76501">
        <ele>6</ele>
        <time>2019-02-22T08:55:45Z</time>
      </trkpt>
      <trkpt lat="48.56722" lon="-2.765">
        <ele>6</ele>
        <time>2019-02-22T08:55:48Z</time>
      </trkpt>
      <trkpt lat="48.56717" lon="-2.76497">
        <ele>6</ele>
        <time>2019-02-22T08:55:52Z</time>
      </trkpt>
      <trkpt lat="48.56714" lon="-2.76492">
        <ele>6</ele>
        <time>2019-02-22T08:55:55Z</time>
      </trkpt>
      <trkpt lat="48.5671" lon="-2.76489">
        <ele>6</ele>
        <time>2019-02-22T08:55:59Z</time>
      </trkpt>
      <trkpt lat="48.56706" lon="-2.76486">
        <ele>6</ele>
        <time>2019-02-22T08:56:02Z</time>
      </trkpt>
      <trkpt lat="48.56703" lon="-2.76481">
        <ele>6</ele>
        <time>2019-02-22T08:56:06Z</time>
      </trkpt>
      <trkpt lat="48.56701" lon="-2.76477">
        <ele>6</ele>
        <time>2019-02-22T08:56:09Z</time>
      </trkpt>
      <trkpt lat="48.56698" lon="-2.76472">
        <ele>6</ele>
        <time>2019-02-22T08:56:13Z</time>
      </trkpt>
      <trkpt lat="48.56695" lon="-2.76467">
        <ele>6</ele>
        <time>2019-02-22T08:56:17Z</time>
      </trkpt>
      <trkpt lat="48.56692" lon="-2.76461">
        <ele>6</ele>
        <time>2019-02-22T08:56:20Z</time>
      </trkpt>
      <trkpt lat="48.56689" lon="-2.76455">
        <ele>6</ele>
        <time>2019-02-22T08:56:23Z</time>
      </trkpt>
      <trkpt lat="48.56686" lon="-2.7645">
        <ele>6</ele>
        <time>2019-02-22T08:56:26Z</time>
      </trkpt>
      <trkpt lat="48.56683" lon="-2.76443">
        <ele>6</ele>
        <time>2019-02-22T08:56:30Z</time>
      </trkpt>
      <trkpt lat="48.5668" lon="-2.76439">
        <ele>6</ele>
        <time>2019-02-22T08:56:33Z</time>
      </trkpt>
      <trkpt lat="48.56676" lon="-2.76434">
        <ele>6</ele>
        <time>2019-02-22T08:56:37Z</time>
      </trkpt>
      <trkpt lat="48.56673" lon="-2.76426">
        <ele>6</ele>
        <time>2019-02-22T08:56:41Z</time>
      </trkpt>
      <trkpt lat="48.56671" lon="-2.76419">
        <ele>6</ele>
        <time>2019-02-22T08:56:44Z</time>
      </trkpt>
      <trkpt lat="48.56668" lon="-2.76413">
        <ele>6</ele>
        <time>2019-02-22T08:56:47Z</time>
      </trkpt>
      <trkpt lat="48.56664" lon="-2.76406">
        <ele>6</ele>
        <time>2019-02-22T08:56:50Z</time>
      </trkpt>
      <trkpt lat="48.56661" lon="-2.76399">
        <ele>6</ele>
        <time>2019-02-22T08:56:53Z</time>
      </trkpt>
      <trkpt lat="48.56659" lon="-2.76394">
        <ele>6</ele>
        <time>2019-02-22T08:56:56Z</time>
      </trkpt>
      <trkpt lat="48.56657" lon="-2.76388">
        <ele>6</ele>
        <time>2019-02-22T08:56:59Z</time>
      </trkpt>
      <trkpt lat="48.56655" lon="-2.76384">
        <ele>6</ele>
        <time>2019-02-22T08:57:02Z</time>
      </trkpt>
      <trkpt lat="48.56652" lon="-2.7638">
        <ele>6</ele>
        <time>2019-02-22T08:57:05Z</time>
      </trkpt>
      <trkpt lat="48.5665" lon="-2.76374">
        <ele>6</ele>
        <time>2019-02-22T08:57:08Z</time>
      </trkpt>
      <trkpt lat="48.56647" lon="-2.76366">
        <ele>6</ele>
        <time>2019-02-22T08:57:12Z</time>
      </trkpt>
      <trkpt lat="48.56645" lon="-2.76359">
        <ele>6</ele>
        <time>2019-02-22T08:57:15Z</time>
      </trkpt>
      <trkpt lat="48.56643" lon="-2.76353">
        <ele>6</ele>
        <time>2019-02-22T08:57:18Z</time>
      </trkpt>
      <trkpt lat="48.56641" lon="-2.76346">
        <ele>6</ele>
        <time>2019-02-22T08:57:21Z</time>
      </trkpt>
      <trkpt lat="48.56638" lon="-2.76339">
        <ele>6</ele>
        <time>2019-02-22T08:57:24Z</time>
      </trkpt>
      <trkpt lat="48.56636" lon="-2.76332">
        <ele>6</ele>
        <time>2019-02-22T08:57:27Z</time>
      </trkpt>
      <trkpt lat="48.56634" lon="-2.76325">
        <ele>6</ele>
        <time>2019-02-22T08:57:30Z</time>
      </trkpt>
      <trkpt lat="48.56632" lon="-2.7632">
        <ele>6</ele>
        <time>2019-02-22T08:57:33Z</time>
      </trkpt>
      <trkpt lat="48.56629" lon="-2.76314">
        <ele>6</ele>
        <time>2019-02-22T08:57:36Z</time>
      </trkpt>
      <trkpt lat="48.56626" lon="-2.76308">
        <ele>6</ele>
        <time>2019-02-22T08:57:39Z</time>
      </trkpt>
      <trkpt lat="48.56623" lon="-2.76303">
        <ele>6</ele>
        <time>2019-02-22T08:57:42Z</time>
      </trkpt>
      <trkpt lat="48.5662" lon="-2.76297">
        <ele>6</ele>
        <time>2019-02-22T08:57:45Z</time>
      </trkpt>
      <trkpt lat="48.56617" lon="-2.76292">
        <ele>6</ele>
        <time>2019-02-22T08:57:48Z</time>
      </trkpt>
      <trkpt lat="48.56614" lon="-2.76286">
        <ele>6</ele>
        <time>2019-02-22T08:57:51Z</time>
      </trkpt>
      <trkpt lat="48.56612" lon="-2.76281">
        <ele>6</ele>
        <time>2019-02-22T08:57:54Z</time>
      </trkpt>
      <trkpt lat="48.56611" lon="-2.76277">
        <ele>6</ele>
        <time>2019-02-22T08:57:57Z</time>
      </trkpt>
      <trkpt lat="48.56608" lon="-2.76272">
        <ele>6</ele>
        <time>2019-02-22T08:58:00Z</time>
      </trkpt>
      <trkpt lat="48.56604" lon="-2.76268">
        <ele>6</ele>
        <time>2019-02-22T08:58:04Z</time>
      </trkpt>
      <trkpt lat="48.56601" lon="-2.76266">
        <ele>6</ele>
        <time>2019-02-22T08:58:07Z</time>
      </trkpt>
      <trkpt lat="48.56597" lon="-2.76269">
        <ele>6</ele>
        <time>2019-02-22T08:58:11Z</time>
      </trkpt>
      <trkpt lat="48.56597" lon="-2.76275">
        <ele>6</ele>
        <time>2019-02-22T08:58:15Z</time>
      </trkpt>
      <trkpt lat="48.56597" lon="-2.76281">
        <ele>6</ele>
        <time>2019-02-22T08:58:19Z</time>
      </trkpt>
      <trkpt lat="48.56593" lon="-2.76284">
        <ele>6</ele>
        <time>2019-02-22T08:58:22Z</time>
      </trkpt>
      <trkpt lat="48.5659" lon="-2.76284">
        <ele>6</ele>
        <time>2019-02-22T08:58:25Z</time>
      </trkpt>
      <trkpt lat="48.56588" lon="-2.76285">
        <ele>6</ele>
        <time>2019-02-22T08:58:28Z</time>
      </trkpt>
      <trkpt lat="48.56584" lon="-2.76288">
        <ele>7</ele>
        <time>2019-02-22T08:58:32Z</time>
      </trkpt>
      <trkpt lat="48.5658" lon="-2.7629">
        <ele>8</ele>
        <time>2019-02-22T08:58:36Z</time>
      </trkpt>
      <trkpt lat="48.56576" lon="-2.76293">
        <ele>9</ele>
        <time>2019-02-22T08:58:40Z</time>
      </trkpt>
      <trkpt lat="48.56574" lon="-2.76297">
        <ele>10</ele>
        <time>2019-02-22T08:58:44Z</time>
      </trkpt>
      <trkpt lat="48.56573" lon="-2.76302">
        <ele>11</ele>
        <time>2019-02-22T08:58:51Z</time>
      </trkpt>
      <trkpt lat="48.56574" lon="-2.76307">
        <ele>11</ele>
        <time>2019-02-22T08:58:55Z</time>
      </trkpt>
      <trkpt lat="48.56574" lon="-2.76309">
        <ele>11</ele>
        <time>2019-02-22T08:59:00Z</time>
      </trkpt>
      <trkpt lat="48.56575" lon="-2.76314">
        <ele>12</ele>
        <time>2019-02-22T08:59:03Z</time>
      </trkpt>
      <trkpt lat="48.56577" lon="-2.76319">
        <ele>12</ele>
        <time>2019-02-22T08:59:06Z</time>
      </trkpt>
      <trkpt lat="48.56578" lon="-2.76324">
        <ele>12</ele>
        <time>2019-02-22T08:59:09Z</time>
      </trkpt>
      <trkpt lat="48.5658" lon="-2.76329">
        <ele>12</ele>
        <time>2019-02-22T08:59:12Z</time>
      </trkpt>
      <trkpt lat="48.56581" lon="-2.76335">
        <ele>13</ele>
        <time>2019-02-22T08:59:15Z</time>
      </trkpt>
      <trkpt lat="48.56583" lon="-2.76339">
        <ele>14</ele>
        <time>2019-02-22T08:59:18Z</time>
      </trkpt>
      <trkpt lat="48.56586" lon="-2.76343">
        <ele>14</ele>
        <time>2019-02-22T08:59:21Z</time>
      </trkpt>
      <trkpt lat="48.56586" lon="-2.76348">
        <ele>14</ele>
        <time>2019-02-22T08:59:28Z</time>
      </trkpt>
      <trkpt lat="48.56588" lon="-2.76352">
        <ele>15</ele>
        <time>2019-02-22T08:59:32Z</time>
      </trkpt>
      <trkpt lat="48.56591" lon="-2.76356">
        <ele>15</ele>
        <time>2019-02-22T08:59:35Z</time>
      </trkpt>
      <trkpt lat="48.56591" lon="-2.7636">
        <ele>15</ele>
        <time>2019-02-22T08:59:38Z</time>
      </trkpt>
      <trkpt lat="48.56593" lon="-2.76364">
        <ele>15</ele>
        <time>2019-02-22T08:59:42Z</time>
      </trkpt>
      <trkpt lat="48.56595" lon="-2.7637">
        <ele>15</ele>
        <time>2019-02-22T08:59:46Z</time>
      </trkpt>
      <trkpt lat="48.56596" lon="-2.76376">
        <ele>17</ele>
        <time>2019-02-22T08:59:50Z</time>
      </trkpt>
      <trkpt lat="48.56595" lon="-2.7638">
        <ele>19</ele>
        <time>2019-02-22T08:59:53Z</time>
      </trkpt>
      <trkpt lat="48.56596" lon="-2.76384">
        <ele>21</ele>
        <time>2019-02-22T08:59:56Z</time>
      </trkpt>
      <trkpt lat="48.56598" lon="-2.76389">
        <ele>21</ele>
        <time>2019-02-22T08:59:59Z</time>
      </trkpt>
      <trkpt lat="48.56597" lon="-2.76394">
        <ele>22</ele>
        <time>2019-02-22T09:00:02Z</time>
      </trkpt>
      <trkpt lat="48.56598" lon="-2.76399">
        <ele>22</ele>
        <time>2019-02-22T09:00:05Z</time>
      </trkpt>
      <trkpt lat="48.56601" lon="-2.76403">
        <ele>22</ele>
        <time>2019-02-22T09:00:08Z</time>
      </trkpt>
      <trkpt lat="48.56603" lon="-2.76408">
        <ele>22</ele>
        <time>2019-02-22T09:00:12Z</time>
      </trkpt>
      <trkpt lat="48.56605" lon="-2.76414">
        <ele>22</ele>
        <time>2019-02-22T09:00:16Z</time>
      </trkpt>
      <trkpt lat="48.56607" lon="-2.76418">
        <ele>22</ele>
        <time>2019-02-22T09:00:19Z</time>
      </trkpt>
      <trkpt lat="48.56609" lon="-2.76424">
        <ele>22</ele>
        <time>2019-02-22T09:00:22Z</time>
      </trkpt>
      <trkpt lat="48.56612" lon="-2.76428">
        <ele>22</ele>
        <time>2019-02-22T09:00:25Z</time>
      </trkpt>
      <trkpt lat="48.56614" lon="-2.76433">
        <ele>22</ele>
        <time>2019-02-22T09:00:28Z</time>
      </trkpt>
      <trkpt lat="48.56617" lon="-2.76438">
        <ele>23</ele>
        <time>2019-02-22T09:00:32Z</time>
      </trkpt>
      <trkpt lat="48.56618" lon="-2.76442">
        <ele>23</ele>
        <time>2019-02-22T09:00:35Z</time>
      </trkpt>
      <trkpt lat="48.56621" lon="-2.76447">
        <ele>23</ele>
        <time>2019-02-22T09:00:38Z</time>
      </trkpt>
      <trkpt lat="48.56625" lon="-2.76451">
        <ele>23</ele>
        <time>2019-02-22T09:00:41Z</time>
      </trkpt>
      <trkpt lat="48.56626" lon="-2.76456">
        <ele>23</ele>
        <time>2019-02-22T09:00:44Z</time>
      </trkpt>
      <trkpt lat="48.56627" lon="-2.76461">
        <ele>23</ele>
        <time>2019-02-22T09:00:47Z</time>
      </trkpt>
      <trkpt lat="48.56631" lon="-2.76466">
        <ele>23</ele>
        <time>2019-02-22T09:00:50Z</time>
      </trkpt>
      <trkpt lat="48.56635" lon="-2.76472">
        <ele>23</ele>
        <time>2019-02-22T09:00:54Z</time>
      </trkpt>
      <trkpt lat="48.56637" lon="-2.76477">
        <ele>23</ele>
        <time>2019-02-22T09:00:57Z</time>
      </trkpt>
      <trkpt lat="48.5664" lon="-2.76481">
        <ele>23</ele>
        <time>2019-02-22T09:01:00Z</time>
      </trkpt>
      <trkpt lat="48.56644" lon="-2.76486">
        <ele>22</ele>
        <time>2019-02-22T09:01:03Z</time>
      </trkpt>
      <trkpt lat="48.56645" lon="-2.7649">
        <ele>22</ele>
        <time>2019-02-22T09:01:06Z</time>
      </trkpt>
      <trkpt lat="48.56648" lon="-2.76495">
        <ele>22</ele>
        <time>2019-02-22T09:01:09Z</time>
      </trkpt>
      <trkpt lat="48.56651" lon="-2.76501">
        <ele>22</ele>
        <time>2019-02-22T09:01:13Z</time>
      </trkpt>
      <trkpt lat="48.56654" lon="-2.76506">
        <ele>22</ele>
        <time>2019-02-22T09:01:17Z</time>
      </trkpt>
      <trkpt lat="48.56657" lon="-2.76511">
        <ele>22</ele>
        <time>2019-02-22T09:01:20Z</time>
      </trkpt>
      <trkpt lat="48.5666" lon="-2.76517">
        <ele>22</ele>
        <time>2019-02-22T09:01:24Z</time>
      </trkpt>
      <trkpt lat="48.56663" lon="-2.76522">
        <ele>23</ele>
        <time>2019-02-22T09:01:28Z</time>
      </trkpt>
      <trkpt lat="48.56665" lon="-2.76529">
        <ele>23</ele>
        <time>2019-02-22T09:01:32Z</time>
      </trkpt>
      <trkpt lat="48.56668" lon="-2.76533">
        <ele>23</ele>
        <time>2019-02-22T09:01:35Z</time>
      </trkpt>
      <trkpt lat="48.56671" lon="-2.76537">
        <ele>23</ele>
        <time>2019-02-22T09:01:38Z</time>
      </trkpt>
      <trkpt lat="48.56674" lon="-2.76542">
        <ele>23</ele>
        <time>2019-02-22T09:01:41Z</time>
      </trkpt>
      <trkpt lat="48.56677" lon="-2.76547">
        <ele>23</ele>
        <time>2019-02-22T09:01:44Z</time>
      </trkpt>
      <trkpt lat="48.5668" lon="-2.76552">
        <ele>23</ele>
        <time>2019-02-22T09:01:47Z</time>
      </trkpt>
      <trkpt lat="48.56682" lon="-2.76558">
        <ele>23</ele>
        <time>2019-02-22T09:01:51Z</time>
      </trkpt>
      <trkpt lat="48.56685" lon="-2.76564">
        <ele>23</ele>
        <time>2019-02-22T09:01:55Z</time>
      </trkpt>
      <trkpt lat="48.56687" lon="-2.76568">
        <ele>23</ele>
        <time>2019-02-22T09:01:58Z</time>
      </trkpt>
      <trkpt lat="48.56691" lon="-2.76572">
        <ele>23</ele>
        <time>2019-02-22T09:02:02Z</time>
      </trkpt>
      <trkpt lat="48.56693" lon="-2.76577">
        <ele>23</ele>
        <time>2019-02-22T09:02:06Z</time>
      </trkpt>
      <trkpt lat="48.56696" lon="-2.76582">
        <ele>23</ele>
        <time>2019-02-22T09:02:09Z</time>
      </trkpt>
      <trkpt lat="48.56699" lon="-2.76585">
        <ele>23</ele>
        <time>2019-02-22T09:02:13Z</time>
      </trkpt>
      <trkpt lat="48.56702" lon="-2.76589">
        <ele>23</ele>
        <time>2019-02-22T09:02:17Z</time>
      </trkpt>
      <trkpt lat="48.56705" lon="-2.76594">
        <ele>23</ele>
        <time>2019-02-22T09:02:21Z</time>
      </trkpt>
      <trkpt lat="48.56709" lon="-2.76599">
        <ele>23</ele>
        <time>2019-02-22T09:02:25Z</time>
      </trkpt>
      <trkpt lat="48.56713" lon="-2.76604">
        <ele>23</ele>
        <time>2019-02-22T09:02:29Z</time>
      </trkpt>
      <trkpt lat="48.56716" lon="-2.7661">
        <ele>23</ele>
        <time>2019-02-22T09:02:33Z</time>
      </trkpt>
      <trkpt lat="48.56719" lon="-2.76615">
        <ele>23</ele>
        <time>2019-02-22T09:02:36Z</time>
      </trkpt>
      <trkpt lat="48.56723" lon="-2.76619">
        <ele>23</ele>
        <time>2019-02-22T09:02:39Z</time>
      </trkpt>
      <trkpt lat="48.56728" lon="-2.76624">
        <ele>23</ele>
        <time>2019-02-22T09:02:43Z</time>
      </trkpt>
      <trkpt lat="48.56731" lon="-2.76629">
        <ele>23</ele>
        <time>2019-02-22T09:02:47Z</time>
      </trkpt>
      <trkpt lat="48.56735" lon="-2.76632">
        <ele>23</ele>
        <time>2019-02-22T09:02:51Z</time>
      </trkpt>
      <trkpt lat="48.56738" lon="-2.76636">
        <ele>23</ele>
        <time>2019-02-22T09:02:54Z</time>
      </trkpt>
      <trkpt lat="48.56741" lon="-2.76641">
        <ele>23</ele>
        <time>2019-02-22T09:02:57Z</time>
      </trkpt>
      <trkpt lat="48.56745" lon="-2.76645">
        <ele>24</ele>
        <time>2019-02-22T09:03:00Z</time>
      </trkpt>
      <trkpt lat="48.56748" lon="-2.7665">
        <ele>25</ele>
        <time>2019-02-22T09:03:03Z</time>
      </trkpt>
      <trkpt lat="48.56751" lon="-2.76656">
        <ele>25</ele>
        <time>2019-02-22T09:03:06Z</time>
      </trkpt>
      <trkpt lat="48.56753" lon="-2.76661">
        <ele>25</ele>
        <time>2019-02-22T09:03:09Z</time>
      </trkpt>
      <trkpt lat="48.56754" lon="-2.76665">
        <ele>26</ele>
        <time>2019-02-22T09:03:12Z</time>
      </trkpt>
      <trkpt lat="48.56755" lon="-2.76672">
        <ele>27</ele>
        <time>2019-02-22T09:03:15Z</time>
      </trkpt>
      <trkpt lat="48.56757" lon="-2.76677">
        <ele>27</ele>
        <time>2019-02-22T09:03:18Z</time>
      </trkpt>
      <trkpt lat="48.56759" lon="-2.76681">
        <ele>27</ele>
        <time>2019-02-22T09:03:21Z</time>
      </trkpt>
      <trkpt lat="48.56762" lon="-2.76686">
        <ele>27</ele>
        <time>2019-02-22T09:03:24Z</time>
      </trkpt>
      <trkpt lat="48.56764" lon="-2.76691">
        <ele>27</ele>
        <time>2019-02-22T09:03:27Z</time>
      </trkpt>
      <trkpt lat="48.56766" lon="-2.76697">
        <ele>27</ele>
        <time>2019-02-22T09:03:31Z</time>
      </trkpt>
      <trkpt lat="48.56767" lon="-2.76703">
        <ele>27</ele>
        <time>2019-02-22T09:03:35Z</time>
      </trkpt>
      <trkpt lat="48.5677" lon="-2.76708">
        <ele>27</ele>
        <time>2019-02-22T09:03:38Z</time>
      </trkpt>
      <trkpt lat="48.56771" lon="-2.76713">
        <ele>27</ele>
        <time>2019-02-22T09:03:41Z</time>
      </trkpt>
      <trkpt lat="48.56774" lon="-2.76718">
        <ele>27</ele>
        <time>2019-02-22T09:03:44Z</time>
      </trkpt>
      <trkpt lat="48.56776" lon="-2.76724">
        <ele>27</ele>
        <time>2019-02-22T09:03:47Z</time>
      </trkpt>
      <trkpt lat="48.56779" lon="-2.76728">
        <ele>27</ele>
        <time>2019-02-22T09:03:50Z</time>
      </trkpt>
      <trkpt lat="48.56781" lon="-2.76733">
        <ele>27</ele>
        <time>2019-02-22T09:03:54Z</time>
      </trkpt>
      <trkpt lat="48.56784" lon="-2.76739">
        <ele>27</ele>
        <time>2019-02-22T09:03:57Z</time>
      </trkpt>
      <trkpt lat="48.56786" lon="-2.76744">
        <ele>27</ele>
        <time>2019-02-22T09:04:00Z</time>
      </trkpt>
      <trkpt lat="48.56788" lon="-2.7675">
        <ele>27</ele>
        <time>2019-02-22T09:04:03Z</time>
      </trkpt>
      <trkpt lat="48.5679" lon="-2.76755">
        <ele>27</ele>
        <time>2019-02-22T09:04:06Z</time>
      </trkpt>
      <trkpt lat="48.56791" lon="-2.7676">
        <ele>27</ele>
        <time>2019-02-22T09:04:09Z</time>
      </trkpt>
      <trkpt lat="48.56792" lon="-2.76765">
        <ele>27</ele>
        <time>2019-02-22T09:04:12Z</time>
      </trkpt>
      <trkpt lat="48.56797" lon="-2.76771">
        <ele>27</ele>
        <time>2019-02-22T09:04:16Z</time>
      </trkpt>
      <trkpt lat="48.568" lon="-2.76777">
        <ele>27</ele>
        <time>2019-02-22T09:04:19Z</time>
      </trkpt>
      <trkpt lat="48.56802" lon="-2.76784">
        <ele>28</ele>
        <time>2019-02-22T09:04:22Z</time>
      </trkpt>
      <trkpt lat="48.56802" lon="-2.76791">
        <ele>30</ele>
        <time>2019-02-22T09:04:25Z</time>
      </trkpt>
      <trkpt lat="48.56803" lon="-2.76798">
        <ele>32</ele>
        <time>2019-02-22T09:04:28Z</time>
      </trkpt>
      <trkpt lat="48.56805" lon="-2.76804">
        <ele>34</ele>
        <time>2019-02-22T09:04:31Z</time>
      </trkpt>
      <trkpt lat="48.56807" lon="-2.7681">
        <ele>35</ele>
        <time>2019-02-22T09:04:34Z</time>
      </trkpt>
      <trkpt lat="48.56807" lon="-2.76817">
        <ele>35</ele>
        <time>2019-02-22T09:04:37Z</time>
      </trkpt>
      <trkpt lat="48.5681" lon="-2.76822">
        <ele>35</ele>
        <time>2019-02-22T09:04:40Z</time>
      </trkpt>
      <trkpt lat="48.56809" lon="-2.76828">
        <ele>35</ele>
        <time>2019-02-22T09:04:43Z</time>
      </trkpt>
      <trkpt lat="48.5681" lon="-2.76835">
        <ele>35</ele>
        <time>2019-02-22T09:04:47Z</time>
      </trkpt>
      <trkpt lat="48.56813" lon="-2.76839">
        <ele>35</ele>
        <time>2019-02-22T09:04:50Z</time>
      </trkpt>
      <trkpt lat="48.56816" lon="-2.76843">
        <ele>35</ele>
        <time>2019-02-22T09:04:53Z</time>
      </trkpt>
      <trkpt lat="48.56815" lon="-2.76848">
        <ele>34</ele>
        <time>2019-02-22T09:04:56Z</time>
      </trkpt>
      <trkpt lat="48.56818" lon="-2.76853">
        <ele>33</ele>
        <time>2019-02-22T09:04:59Z</time>
      </trkpt>
      <trkpt lat="48.56818" lon="-2.76859">
        <ele>32</ele>
        <time>2019-02-22T09:05:02Z</time>
      </trkpt>
      <trkpt lat="48.56819" lon="-2.76866">
        <ele>32</ele>
        <time>2019-02-22T09:05:05Z</time>
      </trkpt>
      <trkpt lat="48.56821" lon="-2.76871">
        <ele>32</ele>
        <time>2019-02-22T09:05:08Z</time>
      </trkpt>
      <trkpt lat="48.5682" lon="-2.76878">
        <ele>32</ele>
        <time>2019-02-22T09:05:11Z</time>
      </trkpt>
      <trkpt lat="48.5682" lon="-2.76884">
        <ele>32</ele>
        <time>2019-02-22T09:05:14Z</time>
      </trkpt>
      <trkpt lat="48.5682" lon="-2.7689">
        <ele>31</ele>
        <time>2019-02-22T09:05:17Z</time>
      </trkpt>
      <trkpt lat="48.5682" lon="-2.76896">
        <ele>29</ele>
        <time>2019-02-22T09:05:20Z</time>
      </trkpt>
      <trkpt lat="48.56821" lon="-2.76901">
        <ele>28</ele>
        <time>2019-02-22T09:05:23Z</time>
      </trkpt>
      <trkpt lat="48.56823" lon="-2.76906">
        <ele>28</ele>
        <time>2019-02-22T09:05:26Z</time>
      </trkpt>
      <trkpt lat="48.56823" lon="-2.76911">
        <ele>28</ele>
        <time>2019-02-22T09:05:29Z</time>
      </trkpt>
      <trkpt lat="48.56824" lon="-2.76917">
        <ele>28</ele>
        <time>2019-02-22T09:05:32Z</time>
      </trkpt>
      <trkpt lat="48.56825" lon="-2.76922">
        <ele>28</ele>
        <time>2019-02-22T09:05:35Z</time>
      </trkpt>
      <trkpt lat="48.56828" lon="-2.76929">
        <ele>28</ele>
        <time>2019-02-22T09:05:38Z</time>
      </trkpt>
      <trkpt lat="48.56827" lon="-2.76936">
        <ele>27</ele>
        <time>2019-02-22T09:05:41Z</time>
      </trkpt>
      <trkpt lat="48.56828" lon="-2.76941">
        <ele>27</ele>
        <time>2019-02-22T09:05:44Z</time>
      </trkpt>
      <trkpt lat="48.56828" lon="-2.76947">
        <ele>27</ele>
        <time>2019-02-22T09:05:47Z</time>
      </trkpt>
      <trkpt lat="48.56829" lon="-2.76953">
        <ele>26</ele>
        <time>2019-02-22T09:05:50Z</time>
      </trkpt>
      <trkpt lat="48.56833" lon="-2.76959">
        <ele>25</ele>
        <time>2019-02-22T09:05:53Z</time>
      </trkpt>
      <trkpt lat="48.56834" lon="-2.76966">
        <ele>25</ele>
        <time>2019-02-22T09:05:56Z</time>
      </trkpt>
      <trkpt lat="48.56837" lon="-2.76968">
        <ele>25</ele>
        <time>2019-02-22T09:05:59Z</time>
      </trkpt>
      <trkpt lat="48.56839" lon="-2.76971">
        <ele>25</ele>
        <time>2019-02-22T09:06:05Z</time>
      </trkpt>
      <trkpt lat="48.56842" lon="-2.76974">
        <ele>24</ele>
        <time>2019-02-22T09:06:08Z</time>
      </trkpt>
      <trkpt lat="48.56845" lon="-2.76977">
        <ele>24</ele>
        <time>2019-02-22T09:06:11Z</time>
      </trkpt>
      <trkpt lat="48.56844" lon="-2.76981">
        <ele>24</ele>
        <time>2019-02-22T09:06:15Z</time>
      </trkpt>
      <trkpt lat="48.56843" lon="-2.76986">
        <ele>24</ele>
        <time>2019-02-22T09:06:19Z</time>
      </trkpt>
      <trkpt lat="48.56845" lon="-2.76991">
        <ele>24</ele>
        <time>2019-02-22T09:06:23Z</time>
      </trkpt>
      <trkpt lat="48.5685" lon="-2.76993">
        <ele>24</ele>
        <time>2019-02-22T09:06:26Z</time>
      </trkpt>
      <trkpt lat="48.56851" lon="-2.76997">
        <ele>24</ele>
        <time>2019-02-22T09:06:29Z</time>
      </trkpt>
      <trkpt lat="48.56852" lon="-2.77003">
        <ele>22</ele>
        <time>2019-02-22T09:06:33Z</time>
      </trkpt>
      <trkpt lat="48.56854" lon="-2.77007">
        <ele>20</ele>
        <time>2019-02-22T09:06:37Z</time>
      </trkpt>
      <trkpt lat="48.56854" lon="-2.7701">
        <ele>18</ele>
        <time>2019-02-22T09:06:40Z</time>
      </trkpt>
      <trkpt lat="48.56855" lon="-2.77013">
        <ele>16</ele>
        <time>2019-02-22T09:06:44Z</time>
      </trkpt>
      <trkpt lat="48.56854" lon="-2.77016">
        <ele>16</ele>
        <time>2019-02-22T09:06:47Z</time>
      </trkpt>
      <trkpt lat="48.56855" lon="-2.77018">
        <ele>16</ele>
        <time>2019-02-22T09:06:50Z</time>
      </trkpt>
      <trkpt lat="48.56857" lon="-2.77022">
        <ele>16</ele>
        <time>2019-02-22T09:06:53Z</time>
      </trkpt>
      <trkpt lat="48.56858" lon="-2.77026">
        <ele>16</ele>
        <time>2019-02-22T09:06:56Z</time>
      </trkpt>
      <trkpt lat="48.5686" lon="-2.77029">
        <ele>16</ele>
        <time>2019-02-22T09:07:00Z</time>
      </trkpt>
      <trkpt lat="48.56861" lon="-2.77033">
        <ele>13</ele>
        <time>2019-02-22T09:07:06Z</time>
      </trkpt>
      <trkpt lat="48.5686" lon="-2.77037">
        <ele>13</ele>
        <time>2019-02-22T09:07:11Z</time>
      </trkpt>
      <trkpt lat="48.56859" lon="-2.7704">
        <ele>13</ele>
        <time>2019-02-22T09:07:14Z</time>
      </trkpt>
      <trkpt lat="48.56857" lon="-2.77044">
        <ele>13</ele>
        <time>2019-02-22T09:07:18Z</time>
      </trkpt>
      <trkpt lat="48.56858" lon="-2.77047">
        <ele>13</ele>
        <time>2019-02-22T09:07:22Z</time>
      </trkpt>
      <trkpt lat="48.56861" lon="-2.77045">
        <ele>13</ele>
        <time>2019-02-22T09:07:25Z</time>
      </trkpt>
      <trkpt lat="48.56864" lon="-2.77042">
        <ele>13</ele>
        <time>2019-02-22T09:07:28Z</time>
      </trkpt>
      <trkpt lat="48.56867" lon="-2.77039">
        <ele>13</ele>
        <time>2019-02-22T09:07:31Z</time>
      </trkpt>
      <trkpt lat="48.5687" lon="-2.77036">
        <ele>11</ele>
        <time>2019-02-22T09:07:34Z</time>
      </trkpt>
      <trkpt lat="48.56875" lon="-2.77033">
        <ele>10</ele>
        <time>2019-02-22T09:07:37Z</time>
      </trkpt>
      <trkpt lat="48.56879" lon="-2.7703">
        <ele>10</ele>
        <time>2019-02-22T09:07:40Z</time>
      </trkpt>
      <trkpt lat="48.56882" lon="-2.77025">
        <ele>9</ele>
        <time>2019-02-22T09:07:44Z</time>
      </trkpt>
      <trkpt lat="48.56887" lon="-2.77022">
        <ele>9</ele>
        <time>2019-02-22T09:07:47Z</time>
      </trkpt>
      <trkpt lat="48.56892" lon="-2.77019">
        <ele>9</ele>
        <time>2019-02-22T09:07:50Z</time>
      </trkpt>
      <trkpt lat="48.56896" lon="-2.77015">
        <ele>9</ele>
        <time>2019-02-22T09:07:53Z</time>
      </trkpt>
      <trkpt lat="48.56899" lon="-2.77011">
        <ele>9</ele>
        <time>2019-02-22T09:07:56Z</time>
      </trkpt>
      <trkpt lat="48.56903" lon="-2.77005">
        <ele>9</ele>
        <time>2019-02-22T09:08:00Z</time>
      </trkpt>
      <trkpt lat="48.56906" lon="-2.77001">
        <ele>9</ele>
        <time>2019-02-22T09:08:03Z</time>
      </trkpt>
      <trkpt lat="48.5691" lon="-2.76997">
        <ele>9</ele>
        <time>2019-02-22T09:08:06Z</time>
      </trkpt>
      <trkpt lat="48.56915" lon="-2.76992">
        <ele>9</ele>
        <time>2019-02-22T09:08:10Z</time>
      </trkpt>
      <trkpt lat="48.56919" lon="-2.76988">
        <ele>9</ele>
        <time>2019-02-22T09:08:13Z</time>
      </trkpt>
      <trkpt lat="48.56922" lon="-2.76984">
        <ele>9</ele>
        <time>2019-02-22T09:08:16Z</time>
      </trkpt>
      <trkpt lat="48.56926" lon="-2.76981">
        <ele>9</ele>
        <time>2019-02-22T09:08:20Z</time>
      </trkpt>
      <trkpt lat="48.5693" lon="-2.76979">
        <ele>8</ele>
        <time>2019-02-22T09:08:23Z</time>
      </trkpt>
      <trkpt lat="48.56934" lon="-2.76976">
        <ele>8</ele>
        <time>2019-02-22T09:08:27Z</time>
      </trkpt>
      <trkpt lat="48.56938" lon="-2.76973">
        <ele>8</ele>
        <time>2019-02-22T09:08:30Z</time>
      </trkpt>
      <trkpt lat="48.56942" lon="-2.76971">
        <ele>8</ele>
        <time>2019-02-22T09:08:34Z</time>
      </trkpt>
      <trkpt lat="48.56944" lon="-2.76969">
        <ele>8</ele>
        <time>2019-02-22T09:08:38Z</time>
      </trkpt>
      <trkpt lat="48.56945" lon="-2.76968">
        <ele>8</ele>
        <time>2019-02-22T09:08:42Z</time>
      </trkpt>
      <trkpt lat="48.56949" lon="-2.7697">
        <ele>8</ele>
        <time>2019-02-22T09:08:46Z</time>
      </trkpt>
      <trkpt lat="48.56952" lon="-2.76974">
        <ele>8</ele>
        <time>2019-02-22T09:08:50Z</time>
      </trkpt>
      <trkpt lat="48.56953" lon="-2.76979">
        <ele>8</ele>
        <time>2019-02-22T09:08:54Z</time>
      </trkpt>
      <trkpt lat="48.56954" lon="-2.76985">
        <ele>8</ele>
        <time>2019-02-22T09:08:58Z</time>
      </trkpt>
      <trkpt lat="48.56955" lon="-2.76989">
        <ele>8</ele>
        <time>2019-02-22T09:09:01Z</time>
      </trkpt>
      <trkpt lat="48.56955" lon="-2.76995">
        <ele>7</ele>
        <time>2019-02-22T09:09:04Z</time>
      </trkpt>
      <trkpt lat="48.56956" lon="-2.77">
        <ele>6</ele>
        <time>2019-02-22T09:09:07Z</time>
      </trkpt>
      <trkpt lat="48.56958" lon="-2.77005">
        <ele>6</ele>
        <time>2019-02-22T09:09:10Z</time>
      </trkpt>
      <trkpt lat="48.56958" lon="-2.7701">
        <ele>6</ele>
        <time>2019-02-22T09:09:13Z</time>
      </trkpt>
      <trkpt lat="48.5696" lon="-2.77016">
        <ele>6</ele>
        <time>2019-02-22T09:09:16Z</time>
      </trkpt>
      <trkpt lat="48.56961" lon="-2.77021">
        <ele>6</ele>
        <time>2019-02-22T09:09:19Z</time>
      </trkpt>
      <trkpt lat="48.56963" lon="-2.77026">
        <ele>6</ele>
        <time>2019-02-22T09:09:22Z</time>
      </trkpt>
      <trkpt lat="48.56964" lon="-2.77031">
        <ele>6</ele>
        <time>2019-02-22T09:09:25Z</time>
      </trkpt>
      <trkpt lat="48.56966" lon="-2.77037">
        <ele>5</ele>
        <time>2019-02-22T09:09:28Z</time>
      </trkpt>
      <trkpt lat="48.56967" lon="-2.77042">
        <ele>5</ele>
        <time>2019-02-22T09:09:31Z</time>
      </trkpt>
      <trkpt lat="48.56969" lon="-2.77047">
        <ele>5</ele>
        <time>2019-02-22T09:09:34Z</time>
      </trkpt>
      <trkpt lat="48.56973" lon="-2.77053">
        <ele>5</ele>
        <time>2019-02-22T09:09:37Z</time>
      </trkpt>
      <trkpt lat="48.56973" lon="-2.7706">
        <ele>5</ele>
        <time>2019-02-22T09:09:40Z</time>
      </trkpt>
      <trkpt lat="48.56975" lon="-2.77065">
        <ele>4</ele>
        <time>2019-02-22T09:09:43Z</time>
      </trkpt>
      <trkpt lat="48.56977" lon="-2.77071">
        <ele>3</ele>
        <time>2019-02-22T09:09:46Z</time>
      </trkpt>
      <trkpt lat="48.56979" lon="-2.77077">
        <ele>3</ele>
        <time>2019-02-22T09:09:49Z</time>
      </trkpt>
      <trkpt lat="48.56981" lon="-2.77082">
        <ele>2</ele>
        <time>2019-02-22T09:09:52Z</time>
      </trkpt>
      <trkpt lat="48.56983" lon="-2.77087">
        <ele>2</ele>
        <time>2019-02-22T09:09:55Z</time>
      </trkpt>
      <trkpt lat="48.56985" lon="-2.77093">
        <ele>2</ele>
        <time>2019-02-22T09:09:58Z</time>
      </trkpt>
      <trkpt lat="48.56988" lon="-2.77098">
        <ele>2</ele>
        <time>2019-02-22T09:10:01Z</time>
      </trkpt>
      <trkpt lat="48.56991" lon="-2.77104">
        <ele>2</ele>
        <time>2019-02-22T09:10:04Z</time>
      </trkpt>
      <trkpt lat="48.56992" lon="-2.77111">
        <ele>1</ele>
        <time>2019-02-22T09:10:08Z</time>
      </trkpt>
      <trkpt lat="48.56993" lon="-2.77116">
        <ele>1</ele>
        <time>2019-02-22T09:10:11Z</time>
      </trkpt>
      <trkpt lat="48.56995" lon="-2.77122">
        <ele>7.9</ele>
        <time>2019-02-22T09:10:14Z</time>
      </trkpt>
      <trkpt lat="48.56997" lon="-2.77127">
        <ele>7.8</ele>
        <time>2019-02-22T09:10:17Z</time>
      </trkpt>
      <trkpt lat="48.56999" lon="-2.77133">
        <ele>7.8</ele>
        <time>2019-02-22T09:10:20Z</time>
      </trkpt>
      <trkpt lat="48.57" lon="-2.77139">
        <ele>7.9</ele>
        <time>2019-02-22T09:10:23Z</time>
      </trkpt>
      <trkpt lat="48.57003" lon="-2.77144">
        <ele>8.1</ele>
        <time>2019-02-22T09:10:26Z</time>
      </trkpt>
      <trkpt lat="48.57004" lon="-2.7715">
        <ele>8.2</ele>
        <time>2019-02-22T09:10:29Z</time>
      </trkpt>
      <trkpt lat="48.57006" lon="-2.77155">
        <ele>8.2</ele>
        <time>2019-02-22T09:10:32Z</time>
      </trkpt>
      <trkpt lat="48.5701" lon="-2.7716">
        <ele>7.9</ele>
        <time>2019-02-22T09:10:35Z</time>
      </trkpt>
      <trkpt lat="48.57012" lon="-2.77165">
        <ele>7.8</ele>
        <time>2019-02-22T09:10:38Z</time>
      </trkpt>
      <trkpt lat="48.57013" lon="-2.7717">
        <ele>7.7</ele>
        <time>2019-02-22T09:10:41Z</time>
      </trkpt>
      <trkpt lat="48.57015" lon="-2.77174">
        <ele>7.5</ele>
        <time>2019-02-22T09:10:44Z</time>
      </trkpt>
      <trkpt lat="48.57018" lon="-2.7718">
        <ele>7.3</ele>
        <time>2019-02-22T09:10:48Z</time>
      </trkpt>
      <trkpt lat="48.57021" lon="-2.77184">
        <ele>7</ele>
        <time>2019-02-22T09:10:51Z</time>
      </trkpt>
      <trkpt lat="48.57024" lon="-2.77188">
        <ele>6.9</ele>
        <time>2019-02-22T09:10:54Z</time>
      </trkpt>
      <trkpt lat="48.57027" lon="-2.77193">
        <ele>7</ele>
        <time>2019-02-22T09:10:57Z</time>
      </trkpt>
      <trkpt lat="48.57029" lon="-2.77197">
        <ele>6.8</ele>
        <time>2019-02-22T09:11:00Z</time>
      </trkpt>
      <trkpt lat="48.57031" lon="-2.77202">
        <ele>6.4</ele>
        <time>2019-02-22T09:11:03Z</time>
      </trkpt>
      <trkpt lat="48.57033" lon="-2.77209">
        <ele>6.1</ele>
        <time>2019-02-22T09:11:07Z</time>
      </trkpt>
      <trkpt lat="48.57035" lon="-2.77215">
        <ele>5.9</ele>
        <time>2019-02-22T09:11:10Z</time>
      </trkpt>
      <trkpt lat="48.57036" lon="-2.77221">
        <ele>5.7</ele>
        <time>2019-02-22T09:11:14Z</time>
      </trkpt>
      <trkpt lat="48.57035" lon="-2.77225">
        <ele>5.9</ele>
        <time>2019-02-22T09:11:18Z</time>
      </trkpt>
      <trkpt lat="48.57036" lon="-2.77226">
        <ele>6</ele>
        <time>2019-02-22T09:11:37Z</time>
      </trkpt>
      <trkpt lat="48.57036" lon="-2.77225">
        <ele>5.9</ele>
        <time>2019-02-22T09:11:46Z</time>
      </trkpt>
      <trkpt lat="48.57038" lon="-2.77225">
        <ele>1</ele>
        <time>2019-02-22T09:11:49Z</time>
      </trkpt>
      <trkpt lat="48.57042" lon="-2.77228">
        <ele>1</ele>
        <time>2019-02-22T09:11:53Z</time>
      </trkpt>
      <trkpt lat="48.57045" lon="-2.77234">
        <ele>1</ele>
        <time>2019-02-22T09:11:57Z</time>
      </trkpt>
      <trkpt lat="48.57049" lon="-2.77239">
        <ele>2</ele>
        <time>2019-02-22T09:12:00Z</time>
      </trkpt>
      <trkpt lat="48.57051" lon="-2.77243">
        <ele>4</ele>
        <time>2019-02-22T09:12:03Z</time>
      </trkpt>
      <trkpt lat="48.57053" lon="-2.77248">
        <ele>4</ele>
        <time>2019-02-22T09:12:07Z</time>
      </trkpt>
      <trkpt lat="48.57055" lon="-2.77255">
        <ele>4</ele>
        <time>2019-02-22T09:12:11Z</time>
      </trkpt>
      <trkpt lat="48.57058" lon="-2.7726">
        <ele>4</ele>
        <time>2019-02-22T09:12:14Z</time>
      </trkpt>
      <trkpt lat="48.57059" lon="-2.77265">
        <ele>4</ele>
        <time>2019-02-22T09:12:17Z</time>
      </trkpt>
      <trkpt lat="48.5706" lon="-2.77271">
        <ele>4</ele>
        <time>2019-02-22T09:12:21Z</time>
      </trkpt>
      <trkpt lat="48.57061" lon="-2.77272">
        <ele>4</ele>
        <time>2019-02-22T09:12:24Z</time>
      </trkpt>
      <trkpt lat="48.57061" lon="-2.77274">
        <ele>4</ele>
        <time>2019-02-22T09:12:27Z</time>
      </trkpt>
      <trkpt lat="48.57058" lon="-2.77276">
        <ele>4</ele>
        <time>2019-02-22T09:12:31Z</time>
      </trkpt>
      <trkpt lat="48.57056" lon="-2.77279">
        <ele>4</ele>
        <time>2019-02-22T09:12:38Z</time>
      </trkpt>
      <trkpt lat="48.57053" lon="-2.77281">
        <ele>4</ele>
        <time>2019-02-22T09:12:41Z</time>
      </trkpt>
      <trkpt lat="48.5705" lon="-2.77281">
        <ele>4</ele>
        <time>2019-02-22T09:12:46Z</time>
      </trkpt>
      <trkpt lat="48.57047" lon="-2.77281">
        <ele>4</ele>
        <time>2019-02-22T09:12:49Z</time>
      </trkpt>
      <trkpt lat="48.57046" lon="-2.77283">
        <ele>4</ele>
        <time>2019-02-22T09:12:53Z</time>
      </trkpt>
      <trkpt lat="48.57045" lon="-2.77284">
        <ele>5</ele>
        <time>2019-02-22T09:12:58Z</time>
      </trkpt>
      <trkpt lat="48.57042" lon="-2.77285">
        <ele>6</ele>
        <time>2019-02-22T09:13:01Z</time>
      </trkpt>
      <trkpt lat="48.57038" lon="-2.77287">
        <ele>6</ele>
        <time>2019-02-22T09:13:04Z</time>
      </trkpt>
      <trkpt lat="48.57035" lon="-2.77287">
        <ele>6</ele>
        <time>2019-02-22T09:13:07Z</time>
      </trkpt>
      <trkpt lat="48.57031" lon="-2.77287">
        <ele>6</ele>
        <time>2019-02-22T09:13:10Z</time>
      </trkpt>
      <trkpt lat="48.57027" lon="-2.77288">
        <ele>7</ele>
        <time>2019-02-22T09:13:13Z</time>
      </trkpt>
      <trkpt lat="48.57023" lon="-2.77289">
        <ele>8</ele>
        <time>2019-02-22T09:13:16Z</time>
      </trkpt>
      <trkpt lat="48.5702" lon="-2.77291">
        <ele>9</ele>
        <time>2019-02-22T09:13:20Z</time>
      </trkpt>
      <trkpt lat="48.57017" lon="-2.77293">
        <ele>10</ele>
        <time>2019-02-22T09:13:23Z</time>
      </trkpt>
      <trkpt lat="48.57013" lon="-2.77293">
        <ele>11</ele>
        <time>2019-02-22T09:13:26Z</time>
      </trkpt>
      <trkpt lat="48.57008" lon="-2.77295">
        <ele>12</ele>
        <time>2019-02-22T09:13:30Z</time>
      </trkpt>
      <trkpt lat="48.57003" lon="-2.77296">
        <ele>12</ele>
        <time>2019-02-22T09:13:34Z</time>
      </trkpt>
      <trkpt lat="48.56999" lon="-2.77298">
        <ele>12</ele>
        <time>2019-02-22T09:13:37Z</time>
      </trkpt>
      <trkpt lat="48.56994" lon="-2.77299">
        <ele>12</ele>
        <time>2019-02-22T09:13:40Z</time>
      </trkpt>
      <trkpt lat="48.5699" lon="-2.773">
        <ele>12</ele>
        <time>2019-02-22T09:13:43Z</time>
      </trkpt>
      <trkpt lat="48.56987" lon="-2.773">
        <ele>12</ele>
        <time>2019-02-22T09:13:46Z</time>
      </trkpt>
      <trkpt lat="48.56982" lon="-2.77302">
        <ele>12</ele>
        <time>2019-02-22T09:13:49Z</time>
      </trkpt>
      <trkpt lat="48.56978" lon="-2.77304">
        <ele>13</ele>
        <time>2019-02-22T09:13:52Z</time>
      </trkpt>
      <trkpt lat="48.56972" lon="-2.77304">
        <ele>13</ele>
        <time>2019-02-22T09:13:56Z</time>
      </trkpt>
      <trkpt lat="48.56969" lon="-2.77306">
        <ele>13</ele>
        <time>2019-02-22T09:13:59Z</time>
      </trkpt>
      <trkpt lat="48.56966" lon="-2.77308">
        <ele>13</ele>
        <time>2019-02-22T09:14:02Z</time>
      </trkpt>
      <trkpt lat="48.56963" lon="-2.7731">
        <ele>13</ele>
        <time>2019-02-22T09:14:06Z</time>
      </trkpt>
      <trkpt lat="48.56958" lon="-2.77311">
        <ele>13</ele>
        <time>2019-02-22T09:14:09Z</time>
      </trkpt>
      <trkpt lat="48.56954" lon="-2.77314">
        <ele>13</ele>
        <time>2019-02-22T09:14:13Z</time>
      </trkpt>
      <trkpt lat="48.5695" lon="-2.77317">
        <ele>13</ele>
        <time>2019-02-22T09:14:16Z</time>
      </trkpt>
      <trkpt lat="48.56946" lon="-2.77319">
        <ele>13</ele>
        <time>2019-02-22T09:14:20Z</time>
      </trkpt>
      <trkpt lat="48.56941" lon="-2.77322">
        <ele>13</ele>
        <time>2019-02-22T09:14:24Z</time>
      </trkpt>
      <trkpt lat="48.56937" lon="-2.77327">
        <ele>13</ele>
        <time>2019-02-22T09:14:28Z</time>
      </trkpt>
      <trkpt lat="48.56934" lon="-2.77332">
        <ele>13</ele>
        <time>2019-02-22T09:14:32Z</time>
      </trkpt>
      <trkpt lat="48.56929" lon="-2.77336">
        <ele>13</ele>
        <time>2019-02-22T09:14:36Z</time>
      </trkpt>
      <trkpt lat="48.56925" lon="-2.77338">
        <ele>13</ele>
        <time>2019-02-22T09:14:39Z</time>
      </trkpt>
      <trkpt lat="48.56921" lon="-2.7734">
        <ele>13</ele>
        <time>2019-02-22T09:14:42Z</time>
      </trkpt>
      <trkpt lat="48.56917" lon="-2.77343">
        <ele>13</ele>
        <time>2019-02-22T09:14:46Z</time>
      </trkpt>
      <trkpt lat="48.56913" lon="-2.77347">
        <ele>13</ele>
        <time>2019-02-22T09:14:50Z</time>
      </trkpt>
      <trkpt lat="48.56913" lon="-2.77349">
        <ele>13</ele>
        <time>2019-02-22T09:14:53Z</time>
      </trkpt>
      <trkpt lat="48.56914" lon="-2.7735">
        <ele>13</ele>
        <time>2019-02-22T09:14:57Z</time>
      </trkpt>
      <trkpt lat="48.56918" lon="-2.77348">
        <ele>13</ele>
        <time>2019-02-22T09:15:01Z</time>
      </trkpt>
      <trkpt lat="48.56922" lon="-2.77344">
        <ele>13</ele>
        <time>2019-02-22T09:15:05Z</time>
      </trkpt>
      <trkpt lat="48.56925" lon="-2.77341">
        <ele>13</ele>
        <time>2019-02-22T09:15:08Z</time>
      </trkpt>
      <trkpt lat="48.56929" lon="-2.7734">
        <ele>13</ele>
        <time>2019-02-22T09:15:11Z</time>
      </trkpt>
      <trkpt lat="48.56932" lon="-2.77338">
        <ele>13</ele>
        <time>2019-02-22T09:15:14Z</time>
      </trkpt>
      <trkpt lat="48.56936" lon="-2.77336">
        <ele>13</ele>
        <time>2019-02-22T09:15:17Z</time>
      </trkpt>
      <trkpt lat="48.56939" lon="-2.77334">
        <ele>13</ele>
        <time>2019-02-22T09:15:21Z</time>
      </trkpt>
      <trkpt lat="48.56943" lon="-2.77332">
        <ele>13</ele>
        <time>2019-02-22T09:15:24Z</time>
      </trkpt>
      <trkpt lat="48.56946" lon="-2.7733">
        <ele>13</ele>
        <time>2019-02-22T09:15:27Z</time>
      </trkpt>
      <trkpt lat="48.5695" lon="-2.77329">
        <ele>13</ele>
        <time>2019-02-22T09:15:30Z</time>
      </trkpt>
      <trkpt lat="48.56954" lon="-2.7733">
        <ele>13</ele>
        <time>2019-02-22T09:15:34Z</time>
      </trkpt>
      <trkpt lat="48.56958" lon="-2.77331">
        <ele>14</ele>
        <time>2019-02-22T09:15:37Z</time>
      </trkpt>
      <trkpt lat="48.56961" lon="-2.77331">
        <ele>14</ele>
        <time>2019-02-22T09:15:40Z</time>
      </trkpt>
      <trkpt lat="48.56966" lon="-2.77332">
        <ele>14</ele>
        <time>2019-02-22T09:15:44Z</time>
      </trkpt>
      <trkpt lat="48.56969" lon="-2.77332">
        <ele>15</ele>
        <time>2019-02-22T09:15:48Z</time>
      </trkpt>
      <trkpt lat="48.56972" lon="-2.77333">
        <ele>16</ele>
        <time>2019-02-22T09:15:51Z</time>
      </trkpt>
      <trkpt lat="48.56975" lon="-2.77333">
        <ele>17</ele>
        <time>2019-02-22T09:15:54Z</time>
      </trkpt>
      <trkpt lat="48.56978" lon="-2.77334">
        <ele>18</ele>
        <time>2019-02-22T09:15:58Z</time>
      </trkpt>
      <trkpt lat="48.56981" lon="-2.77336">
        <ele>18</ele>
        <time>2019-02-22T09:16:02Z</time>
      </trkpt>
      <trkpt lat="48.56985" lon="-2.77337">
        <ele>18</ele>
        <time>2019-02-22T09:16:05Z</time>
      </trkpt>
      <trkpt lat="48.5699" lon="-2.7734">
        <ele>18</ele>
        <time>2019-02-22T09:16:08Z</time>
      </trkpt>
      <trkpt lat="48.56995" lon="-2.77341">
        <ele>18</ele>
        <time>2019-02-22T09:16:12Z</time>
      </trkpt>
      <trkpt lat="48.56999" lon="-2.77343">
        <ele>20</ele>
        <time>2019-02-22T09:16:15Z</time>
      </trkpt>
      <trkpt lat="48.57005" lon="-2.77347">
        <ele>22</ele>
        <time>2019-02-22T09:16:19Z</time>
      </trkpt>
      <trkpt lat="48.57006" lon="-2.7735">
        <ele>23</ele>
        <time>2019-02-22T09:16:23Z</time>
      </trkpt>
      <trkpt lat="48.57011" lon="-2.77353">
        <ele>25</ele>
        <time>2019-02-22T09:16:28Z</time>
      </trkpt>
      <trkpt lat="48.57013" lon="-2.77354">
        <ele>30</ele>
        <time>2019-02-22T09:16:34Z</time>
      </trkpt>
      <trkpt lat="48.57014" lon="-2.77358">
        <ele>31</ele>
        <time>2019-02-22T09:16:37Z</time>
      </trkpt>
      <trkpt lat="48.57017" lon="-2.77363">
        <ele>31</ele>
        <time>2019-02-22T09:16:41Z</time>
      </trkpt>
      <trkpt lat="48.57021" lon="-2.77366">
        <ele>32</ele>
        <time>2019-02-22T09:16:45Z</time>
      </trkpt>
      <trkpt lat="48.57022" lon="-2.77368">
        <ele>32</ele>
        <time>2019-02-22T09:16:48Z</time>
      </trkpt>
      <trkpt lat="48.57025" lon="-2.77372">
        <ele>32</ele>
        <time>2019-02-22T09:16:51Z</time>
      </trkpt>
      <trkpt lat="48.57028" lon="-2.77376">
        <ele>32</ele>
        <time>2019-02-22T09:16:54Z</time>
      </trkpt>
      <trkpt lat="48.5703" lon="-2.77378">
        <ele>33</ele>
        <time>2019-02-22T09:16:57Z</time>
      </trkpt>
      <trkpt lat="48.57034" lon="-2.77382">
        <ele>34</ele>
        <time>2019-02-22T09:17:00Z</time>
      </trkpt>
      <trkpt lat="48.57035" lon="-2.77386">
        <ele>35</ele>
        <time>2019-02-22T09:17:04Z</time>
      </trkpt>
      <trkpt lat="48.5704" lon="-2.77391">
        <ele>36</ele>
        <time>2019-02-22T09:17:07Z</time>
      </trkpt>
      <trkpt lat="48.57043" lon="-2.77395">
        <ele>38</ele>
        <time>2019-02-22T09:17:10Z</time>
      </trkpt>
      <trkpt lat="48.57046" lon="-2.77399">
        <ele>40</ele>
        <time>2019-02-22T09:17:13Z</time>
      </trkpt>
      <trkpt lat="48.57048" lon="-2.77403">
        <ele>40</ele>
        <time>2019-02-22T09:17:16Z</time>
      </trkpt>
      <trkpt lat="48.57049" lon="-2.7741">
        <ele>40</ele>
        <time>2019-02-22T09:17:20Z</time>
      </trkpt>
      <trkpt lat="48.57051" lon="-2.77413">
        <ele>40</ele>
        <time>2019-02-22T09:17:23Z</time>
      </trkpt>
      <trkpt lat="48.57054" lon="-2.77417">
        <ele>40</ele>
        <time>2019-02-22T09:17:26Z</time>
      </trkpt>
      <trkpt lat="48.57057" lon="-2.7742">
        <ele>40</ele>
        <time>2019-02-22T09:17:29Z</time>
      </trkpt>
      <trkpt lat="48.5706" lon="-2.77424">
        <ele>40</ele>
        <time>2019-02-22T09:17:32Z</time>
      </trkpt>
      <trkpt lat="48.57064" lon="-2.77427">
        <ele>40</ele>
        <time>2019-02-22T09:17:35Z</time>
      </trkpt>
      <trkpt lat="48.57066" lon="-2.77431">
        <ele>40</ele>
        <time>2019-02-22T09:17:38Z</time>
      </trkpt>
      <trkpt lat="48.57068" lon="-2.77436">
        <ele>39</ele>
        <time>2019-02-22T09:17:41Z</time>
      </trkpt>
      <trkpt lat="48.57072" lon="-2.77441">
        <ele>37</ele>
        <time>2019-02-22T09:17:44Z</time>
      </trkpt>
      <trkpt lat="48.57075" lon="-2.77447">
        <ele>37</ele>
        <time>2019-02-22T09:17:47Z</time>
      </trkpt>
      <trkpt lat="48.57077" lon="-2.7745">
        <ele>36</ele>
        <time>2019-02-22T09:17:51Z</time>
      </trkpt>
      <trkpt lat="48.5708" lon="-2.77455">
        <ele>36</ele>
        <time>2019-02-22T09:17:55Z</time>
      </trkpt>
      <trkpt lat="48.57082" lon="-2.77459">
        <ele>36</ele>
        <time>2019-02-22T09:17:58Z</time>
      </trkpt>
      <trkpt lat="48.57085" lon="-2.77463">
        <ele>36</ele>
        <time>2019-02-22T09:18:02Z</time>
      </trkpt>
      <trkpt lat="48.57084" lon="-2.77468">
        <ele>36</ele>
        <time>2019-02-22T09:18:06Z</time>
      </trkpt>
      <trkpt lat="48.57083" lon="-2.77473">
        <ele>36</ele>
        <time>2019-02-22T09:18:10Z</time>
      </trkpt>
      <trkpt lat="48.5708" lon="-2.77471">
        <ele>36</ele>
        <time>2019-02-22T09:18:13Z</time>
      </trkpt>
      <trkpt lat="48.57077" lon="-2.7747">
        <ele>36</ele>
        <time>2019-02-22T09:18:16Z</time>
      </trkpt>
      <trkpt lat="48.57073" lon="-2.77465">
        <ele>36</ele>
        <time>2019-02-22T09:18:20Z</time>
      </trkpt>
      <trkpt lat="48.5707" lon="-2.77461">
        <ele>39</ele>
        <time>2019-02-22T09:18:24Z</time>
      </trkpt>
      <trkpt lat="48.57069" lon="-2.7746">
        <ele>40</ele>
        <time>2019-02-22T09:18:27Z</time>
      </trkpt>
      <trkpt lat="48.57065" lon="-2.77455">
        <ele>41</ele>
        <time>2019-02-22T09:18:30Z</time>
      </trkpt>
      <trkpt lat="48.57062" lon="-2.77452">
        <ele>43</ele>
        <time>2019-02-22T09:18:33Z</time>
      </trkpt>
      <trkpt lat="48.57059" lon="-2.77449">
        <ele>46</ele>
        <time>2019-02-22T09:18:37Z</time>
      </trkpt>
      <trkpt lat="48.57059" lon="-2.77447">
        <ele>47</ele>
        <time>2019-02-22T09:18:40Z</time>
      </trkpt>
      <trkpt lat="48.57058" lon="-2.77447">
        <ele>48</ele>
        <time>2019-02-22T09:18:43Z</time>
      </trkpt>
      <trkpt lat="48.57052" lon="-2.77447">
        <ele>48</ele>
        <time>2019-02-22T09:18:47Z</time>
      </trkpt>
      <trkpt lat="48.57046" lon="-2.77447">
        <ele>48</ele>
        <time>2019-02-22T09:18:50Z</time>
      </trkpt>
      <trkpt lat="48.5704" lon="-2.77444">
        <ele>48</ele>
        <time>2019-02-22T09:18:53Z</time>
      </trkpt>
      <trkpt lat="48.57037" lon="-2.77442">
        <ele>48</ele>
        <time>2019-02-22T09:18:56Z</time>
      </trkpt>
      <trkpt lat="48.57032" lon="-2.77439">
        <ele>48</ele>
        <time>2019-02-22T09:19:00Z</time>
      </trkpt>
      <trkpt lat="48.5703" lon="-2.77435">
        <ele>47</ele>
        <time>2019-02-22T09:19:03Z</time>
      </trkpt>
      <trkpt lat="48.57026" lon="-2.77431">
        <ele>47</ele>
        <time>2019-02-22T09:19:06Z</time>
      </trkpt>
      <trkpt lat="48.57021" lon="-2.77429">
        <ele>47</ele>
        <time>2019-02-22T09:19:09Z</time>
      </trkpt>
      <trkpt lat="48.57018" lon="-2.77428">
        <ele>47</ele>
        <time>2019-02-22T09:19:12Z</time>
      </trkpt>
      <trkpt lat="48.57015" lon="-2.77426">
        <ele>47</ele>
        <time>2019-02-22T09:19:15Z</time>
      </trkpt>
      <trkpt lat="48.57013" lon="-2.77424">
        <ele>47</ele>
        <time>2019-02-22T09:19:18Z</time>
      </trkpt>
      <trkpt lat="48.57009" lon="-2.77424">
        <ele>47</ele>
        <time>2019-02-22T09:19:21Z</time>
      </trkpt>
      <trkpt lat="48.57005" lon="-2.77423">
        <ele>47</ele>
        <time>2019-02-22T09:19:24Z</time>
      </trkpt>
      <trkpt lat="48.57" lon="-2.77424">
        <ele>47</ele>
        <time>2019-02-22T09:19:28Z</time>
      </trkpt>
      <trkpt lat="48.56998" lon="-2.77422">
        <ele>46</ele>
        <time>2019-02-22T09:19:32Z</time>
      </trkpt>
      <trkpt lat="48.56994" lon="-2.77421">
        <ele>45</ele>
        <time>2019-02-22T09:19:36Z</time>
      </trkpt>
      <trkpt lat="48.56991" lon="-2.77421">
        <ele>45</ele>
        <time>2019-02-22T09:19:39Z</time>
      </trkpt>
      <trkpt lat="48.56989" lon="-2.77417">
        <ele>45</ele>
        <time>2019-02-22T09:19:43Z</time>
      </trkpt>
      <trkpt lat="48.56986" lon="-2.77416">
        <ele>45</ele>
        <time>2019-02-22T09:19:46Z</time>
      </trkpt>
      <trkpt lat="48.56983" lon="-2.77414">
        <ele>45</ele>
        <time>2019-02-22T09:19:49Z</time>
      </trkpt>
      <trkpt lat="48.5698" lon="-2.77413">
        <ele>45</ele>
        <time>2019-02-22T09:19:52Z</time>
      </trkpt>
      <trkpt lat="48.56976" lon="-2.77412">
        <ele>45</ele>
        <time>2019-02-22T09:19:56Z</time>
      </trkpt>
      <trkpt lat="48.56973" lon="-2.77413">
        <ele>45</ele>
        <time>2019-02-22T09:20:00Z</time>
      </trkpt>
      <trkpt lat="48.5697" lon="-2.77412">
        <ele>45</ele>
        <time>2019-02-22T09:20:03Z</time>
      </trkpt>
      <trkpt lat="48.56965" lon="-2.77411">
        <ele>45</ele>
        <time>2019-02-22T09:20:07Z</time>
      </trkpt>
      <trkpt lat="48.56962" lon="-2.77412">
        <ele>45</ele>
        <time>2019-02-22T09:20:10Z</time>
      </trkpt>
      <trkpt lat="48.56958" lon="-2.77413">
        <ele>45</ele>
        <time>2019-02-22T09:20:13Z</time>
      </trkpt>
      <trkpt lat="48.56954" lon="-2.77415">
        <ele>45</ele>
        <time>2019-02-22T09:20:16Z</time>
      </trkpt>
      <trkpt lat="48.56949" lon="-2.77417">
        <ele>45</ele>
        <time>2019-02-22T09:20:20Z</time>
      </trkpt>
      <trkpt lat="48.56945" lon="-2.77422">
        <ele>45</ele>
        <time>2019-02-22T09:20:24Z</time>
      </trkpt>
      <trkpt lat="48.56941" lon="-2.77426">
        <ele>45</ele>
        <time>2019-02-22T09:20:28Z</time>
      </trkpt>
      <trkpt lat="48.56939" lon="-2.7743">
        <ele>45</ele>
        <time>2019-02-22T09:20:32Z</time>
      </trkpt>
      <trkpt lat="48.56936" lon="-2.77434">
        <ele>45</ele>
        <time>2019-02-22T09:20:36Z</time>
      </trkpt>
      <trkpt lat="48.56936" lon="-2.7744">
        <ele>46</ele>
        <time>2019-02-22T09:20:40Z</time>
      </trkpt>
      <trkpt lat="48.56935" lon="-2.77445">
        <ele>46</ele>
        <time>2019-02-22T09:20:44Z</time>
      </trkpt>
      <trkpt lat="48.56934" lon="-2.7745">
        <ele>48</ele>
        <time>2019-02-22T09:20:48Z</time>
      </trkpt>
      <trkpt lat="48.56934" lon="-2.77454">
        <ele>49</ele>
        <time>2019-02-22T09:20:53Z</time>
      </trkpt>
      <trkpt lat="48.56935" lon="-2.77459">
        <ele>50</ele>
        <time>2019-02-22T09:20:57Z</time>
      </trkpt>
      <trkpt lat="48.56936" lon="-2.77464">
        <ele>50</ele>
        <time>2019-02-22T09:21:01Z</time>
      </trkpt>
      <trkpt lat="48.56936" lon="-2.77469">
        <ele>50</ele>
        <time>2019-02-22T09:21:05Z</time>
      </trkpt>
      <trkpt lat="48.56935" lon="-2.77474">
        <ele>51</ele>
        <time>2019-02-22T09:21:11Z</time>
      </trkpt>
      <trkpt lat="48.56936" lon="-2.77475">
        <ele>51</ele>
        <time>2019-02-22T09:21:21Z</time>
      </trkpt>
      <trkpt lat="48.56937" lon="-2.77476">
        <ele>51</ele>
        <time>2019-02-22T09:21:28Z</time>
      </trkpt>
      <trkpt lat="48.56938" lon="-2.77477">
        <ele>51</ele>
        <time>2019-02-22T09:21:35Z</time>
      </trkpt>
      <trkpt lat="48.56937" lon="-2.77477">
        <ele>50</ele>
        <time>2019-02-22T09:22:06Z</time>
      </trkpt>
      <trkpt lat="48.56938" lon="-2.77478">
        <ele>50</ele>
        <time>2019-02-22T09:22:16Z</time>
      </trkpt>
      <trkpt lat="48.56937" lon="-2.77478">
        <ele>50</ele>
        <time>2019-02-22T09:22:29Z</time>
      </trkpt>
      <trkpt lat="48.56938" lon="-2.77478">
        <ele>52</ele>
        <time>2019-02-22T09:22:44Z</time>
      </trkpt>
      <trkpt lat="48.56938" lon="-2.77481">
        <ele>53</ele>
        <time>2019-02-22T09:22:52Z</time>
      </trkpt>
      <trkpt lat="48.56938" lon="-2.77487">
        <ele>54</ele>
        <time>2019-02-22T09:22:56Z</time>
      </trkpt>
      <trkpt lat="48.56939" lon="-2.77492">
        <ele>54</ele>
        <time>2019-02-22T09:23:00Z</time>
      </trkpt>
      <trkpt lat="48.5694" lon="-2.77497">
        <ele>55</ele>
        <time>2019-02-22T09:23:04Z</time>
      </trkpt>
      <trkpt lat="48.56941" lon="-2.77502">
        <ele>55</ele>
        <time>2019-02-22T09:23:07Z</time>
      </trkpt>
      <trkpt lat="48.56943" lon="-2.77507">
        <ele>56</ele>
        <time>2019-02-22T09:23:10Z</time>
      </trkpt>
      <trkpt lat="48.56944" lon="-2.77512">
        <ele>56</ele>
        <time>2019-02-22T09:23:13Z</time>
      </trkpt>
      <trkpt lat="48.56946" lon="-2.77518">
        <ele>56</ele>
        <time>2019-02-22T09:23:16Z</time>
      </trkpt>
      <trkpt lat="48.56947" lon="-2.77523">
        <ele>56</ele>
        <time>2019-02-22T09:23:19Z</time>
      </trkpt>
      <trkpt lat="48.56948" lon="-2.77529">
        <ele>57</ele>
        <time>2019-02-22T09:23:22Z</time>
      </trkpt>
      <trkpt lat="48.5695" lon="-2.77534">
        <ele>57</ele>
        <time>2019-02-22T09:23:25Z</time>
      </trkpt>
      <trkpt lat="48.56951" lon="-2.77539">
        <ele>58</ele>
        <time>2019-02-22T09:23:28Z</time>
      </trkpt>
      <trkpt lat="48.56953" lon="-2.77544">
        <ele>58</ele>
        <time>2019-02-22T09:23:31Z</time>
      </trkpt>
      <trkpt lat="48.56955" lon="-2.7755">
        <ele>58</ele>
        <time>2019-02-22T09:23:35Z</time>
      </trkpt>
      <trkpt lat="48.56957" lon="-2.77556">
        <ele>59</ele>
        <time>2019-02-22T09:23:39Z</time>
      </trkpt>
      <trkpt lat="48.56959" lon="-2.7756">
        <ele>59</ele>
        <time>2019-02-22T09:23:42Z</time>
      </trkpt>
      <trkpt lat="48.56962" lon="-2.77567">
        <ele>59</ele>
        <time>2019-02-22T09:23:46Z</time>
      </trkpt>
      <trkpt lat="48.56964" lon="-2.77572">
        <ele>59</ele>
        <time>2019-02-22T09:23:50Z</time>
      </trkpt>
      <trkpt lat="48.56966" lon="-2.77577">
        <ele>59</ele>
        <time>2019-02-22T09:23:53Z</time>
      </trkpt>
      <trkpt lat="48.56968" lon="-2.77582">
        <ele>60</ele>
        <time>2019-02-22T09:23:56Z</time>
      </trkpt>
      <trkpt lat="48.56971" lon="-2.77588">
        <ele>60</ele>
        <time>2019-02-22T09:24:00Z</time>
      </trkpt>
      <trkpt lat="48.56973" lon="-2.77594">
        <ele>60</ele>
        <time>2019-02-22T09:24:04Z</time>
      </trkpt>
      <trkpt lat="48.56975" lon="-2.77599">
        <ele>61</ele>
        <time>2019-02-22T09:24:08Z</time>
      </trkpt>
      <trkpt lat="48.56977" lon="-2.77604">
        <ele>61</ele>
        <time>2019-02-22T09:24:11Z</time>
      </trkpt>
      <trkpt lat="48.56979" lon="-2.7761">
        <ele>61</ele>
        <time>2019-02-22T09:24:15Z</time>
      </trkpt>
      <trkpt lat="48.56981" lon="-2.77614">
        <ele>61</ele>
        <time>2019-02-22T09:24:18Z</time>
      </trkpt>
      <trkpt lat="48.56983" lon="-2.7762">
        <ele>61</ele>
        <time>2019-02-22T09:24:22Z</time>
      </trkpt>
      <trkpt lat="48.56986" lon="-2.77627">
        <ele>62</ele>
        <time>2019-02-22T09:24:26Z</time>
      </trkpt>
      <trkpt lat="48.56988" lon="-2.77632">
        <ele>62</ele>
        <time>2019-02-22T09:24:30Z</time>
      </trkpt>
      <trkpt lat="48.56991" lon="-2.77638">
        <ele>62</ele>
        <time>2019-02-22T09:24:34Z</time>
      </trkpt>
      <trkpt lat="48.56994" lon="-2.77644">
        <ele>62</ele>
        <time>2019-02-22T09:24:38Z</time>
      </trkpt>
      <trkpt lat="48.56998" lon="-2.77649">
        <ele>63</ele>
        <time>2019-02-22T09:24:42Z</time>
      </trkpt>
      <trkpt lat="48.57001" lon="-2.77654">
        <ele>64</ele>
        <time>2019-02-22T09:24:46Z</time>
      </trkpt>
      <trkpt lat="48.57005" lon="-2.77657">
        <ele>64</ele>
        <time>2019-02-22T09:24:49Z</time>
      </trkpt>
      <trkpt lat="48.57009" lon="-2.77659">
        <ele>65</ele>
        <time>2019-02-22T09:24:52Z</time>
      </trkpt>
      <trkpt lat="48.57012" lon="-2.77661">
        <ele>65</ele>
        <time>2019-02-22T09:24:55Z</time>
      </trkpt>
      <trkpt lat="48.57016" lon="-2.77663">
        <ele>66</ele>
        <time>2019-02-22T09:24:58Z</time>
      </trkpt>
      <trkpt lat="48.57019" lon="-2.77665">
        <ele>66</ele>
        <time>2019-02-22T09:25:01Z</time>
      </trkpt>
      <trkpt lat="48.57024" lon="-2.77666">
        <ele>67</ele>
        <time>2019-02-22T09:25:04Z</time>
      </trkpt>
      <trkpt lat="48.57029" lon="-2.77668">
        <ele>67</ele>
        <time>2019-02-22T09:25:07Z</time>
      </trkpt>
      <trkpt lat="48.57033" lon="-2.7767">
        <ele>67</ele>
        <time>2019-02-22T09:25:10Z</time>
      </trkpt>
      <trkpt lat="48.57037" lon="-2.77672">
        <ele>67</ele>
        <time>2019-02-22T09:25:13Z</time>
      </trkpt>
      <trkpt lat="48.57041" lon="-2.77674">
        <ele>67</ele>
        <time>2019-02-22T09:25:16Z</time>
      </trkpt>
      <trkpt lat="48.57045" lon="-2.77676">
        <ele>67</ele>
        <time>2019-02-22T09:25:19Z</time>
      </trkpt>
      <trkpt lat="48.5705" lon="-2.7768">
        <ele>67</ele>
        <time>2019-02-22T09:25:23Z</time>
      </trkpt>
      <trkpt lat="48.57055" lon="-2.77684">
        <ele>67</ele>
        <time>2019-02-22T09:25:27Z</time>
      </trkpt>
      <trkpt lat="48.57059" lon="-2.77687">
        <ele>68</ele>
        <time>2019-02-22T09:25:31Z</time>
      </trkpt>
      <trkpt lat="48.57063" lon="-2.77692">
        <ele>69</ele>
        <time>2019-02-22T09:25:35Z</time>
      </trkpt>
      <trkpt lat="48.57066" lon="-2.77694">
        <ele>70</ele>
        <time>2019-02-22T09:25:38Z</time>
      </trkpt>
      <trkpt lat="48.5707" lon="-2.77697">
        <ele>70</ele>
        <time>2019-02-22T09:25:41Z</time>
      </trkpt>
      <trkpt lat="48.57075" lon="-2.77701">
        <ele>71</ele>
        <time>2019-02-22T09:25:45Z</time>
      </trkpt>
      <trkpt lat="48.57078" lon="-2.77704">
        <ele>71</ele>
        <time>2019-02-22T09:25:48Z</time>
      </trkpt>
      <trkpt lat="48.57082" lon="-2.77707">
        <ele>72</ele>
        <time>2019-02-22T09:25:51Z</time>
      </trkpt>
      <trkpt lat="48.57085" lon="-2.77709">
        <ele>73</ele>
        <time>2019-02-22T09:25:54Z</time>
      </trkpt>
      <trkpt lat="48.57089" lon="-2.77712">
        <ele>74</ele>
        <time>2019-02-22T09:25:58Z</time>
      </trkpt>
      <trkpt lat="48.57092" lon="-2.77715">
        <ele>74</ele>
        <time>2019-02-22T09:26:01Z</time>
      </trkpt>
      <trkpt lat="48.57095" lon="-2.77717">
        <ele>75</ele>
        <time>2019-02-22T09:26:04Z</time>
      </trkpt>
      <trkpt lat="48.57098" lon="-2.77721">
        <ele>76</ele>
        <time>2019-02-22T09:26:08Z</time>
      </trkpt>
      <trkpt lat="48.57101" lon="-2.77724">
        <ele>77</ele>
        <time>2019-02-22T09:26:12Z</time>
      </trkpt>
      <trkpt lat="48.57106" lon="-2.77725">
        <ele>77</ele>
        <time>2019-02-22T09:26:15Z</time>
      </trkpt>
      <trkpt lat="48.57109" lon="-2.77727">
        <ele>77</ele>
        <time>2019-02-22T09:26:18Z</time>
      </trkpt>
      <trkpt lat="48.57113" lon="-2.77729">
        <ele>77</ele>
        <time>2019-02-22T09:26:21Z</time>
      </trkpt>
      <trkpt lat="48.57116" lon="-2.77733">
        <ele>77</ele>
        <time>2019-02-22T09:26:25Z</time>
      </trkpt>
      <trkpt lat="48.57119" lon="-2.77735">
        <ele>77</ele>
        <time>2019-02-22T09:26:28Z</time>
      </trkpt>
      <trkpt lat="48.57124" lon="-2.77738">
        <ele>78</ele>
        <time>2019-02-22T09:26:32Z</time>
      </trkpt>
      <trkpt lat="48.57128" lon="-2.77741">
        <ele>79</ele>
        <time>2019-02-22T09:26:36Z</time>
      </trkpt>
      <trkpt lat="48.57132" lon="-2.77743">
        <ele>80</ele>
        <time>2019-02-22T09:26:39Z</time>
      </trkpt>
      <trkpt lat="48.57136" lon="-2.77746">
        <ele>81</ele>
        <time>2019-02-22T09:26:43Z</time>
      </trkpt>
      <trkpt lat="48.57141" lon="-2.7775">
        <ele>82</ele>
        <time>2019-02-22T09:26:47Z</time>
      </trkpt>
      <trkpt lat="48.57144" lon="-2.77753">
        <ele>83</ele>
        <time>2019-02-22T09:26:51Z</time>
      </trkpt>
      <trkpt lat="48.57148" lon="-2.77755">
        <ele>83</ele>
        <time>2019-02-22T09:26:54Z</time>
      </trkpt>
      <trkpt lat="48.57151" lon="-2.77757">
        <ele>83</ele>
        <time>2019-02-22T09:26:57Z</time>
      </trkpt>
      <trkpt lat="48.57156" lon="-2.77759">
        <ele>83</ele>
        <time>2019-02-22T09:27:00Z</time>
      </trkpt>
      <trkpt lat="48.5716" lon="-2.77761">
        <ele>83</ele>
        <time>2019-02-22T09:27:03Z</time>
      </trkpt>
      <trkpt lat="48.57164" lon="-2.77763">
        <ele>83</ele>
        <time>2019-02-22T09:27:06Z</time>
      </trkpt>
      <trkpt lat="48.57169" lon="-2.77764">
        <ele>83</ele>
        <time>2019-02-22T09:27:09Z</time>
      </trkpt>
      <trkpt lat="48.57173" lon="-2.77766">
        <ele>83</ele>
        <time>2019-02-22T09:27:12Z</time>
      </trkpt>
      <trkpt lat="48.57177" lon="-2.77768">
        <ele>83</ele>
        <time>2019-02-22T09:27:15Z</time>
      </trkpt>
      <trkpt lat="48.57181" lon="-2.77769">
        <ele>83</ele>
        <time>2019-02-22T09:27:18Z</time>
      </trkpt>
      <trkpt lat="48.57186" lon="-2.77772">
        <ele>83</ele>
        <time>2019-02-22T09:27:22Z</time>
      </trkpt>
      <trkpt lat="48.5719" lon="-2.77775">
        <ele>83</ele>
        <time>2019-02-22T09:27:26Z</time>
      </trkpt>
      <trkpt lat="48.57193" lon="-2.77778">
        <ele>83</ele>
        <time>2019-02-22T09:27:29Z</time>
      </trkpt>
      <trkpt lat="48.57197" lon="-2.7778">
        <ele>83</ele>
        <time>2019-02-22T09:27:32Z</time>
      </trkpt>
      <trkpt lat="48.572" lon="-2.77783">
        <ele>83</ele>
        <time>2019-02-22T09:27:35Z</time>
      </trkpt>
      <trkpt lat="48.57203" lon="-2.77787">
        <ele>83</ele>
        <time>2019-02-22T09:27:38Z</time>
      </trkpt>
      <trkpt lat="48.57207" lon="-2.77794">
        <ele>83</ele>
        <time>2019-02-22T09:27:42Z</time>
      </trkpt>
      <trkpt lat="48.57212" lon="-2.77799">
        <ele>83</ele>
        <time>2019-02-22T09:27:46Z</time>
      </trkpt>
      <trkpt lat="48.57215" lon="-2.77804">
        <ele>83</ele>
        <time>2019-02-22T09:27:50Z</time>
      </trkpt>
      <trkpt lat="48.57217" lon="-2.77808">
        <ele>84</ele>
        <time>2019-02-22T09:27:53Z</time>
      </trkpt>
      <trkpt lat="48.57221" lon="-2.77815">
        <ele>84</ele>
        <time>2019-02-22T09:27:57Z</time>
      </trkpt>
      <trkpt lat="48.57224" lon="-2.7782">
        <ele>84</ele>
        <time>2019-02-22T09:28:01Z</time>
      </trkpt>
      <trkpt lat="48.57228" lon="-2.77826">
        <ele>85</ele>
        <time>2019-02-22T09:28:05Z</time>
      </trkpt>
      <trkpt lat="48.57231" lon="-2.77832">
        <ele>85</ele>
        <time>2019-02-22T09:28:09Z</time>
      </trkpt>
      <trkpt lat="48.57233" lon="-2.77837">
        <ele>85</ele>
        <time>2019-02-22T09:28:12Z</time>
      </trkpt>
      <trkpt lat="48.57236" lon="-2.77843">
        <ele>85</ele>
        <time>2019-02-22T09:28:15Z</time>
      </trkpt>
      <trkpt lat="48.57238" lon="-2.77849">
        <ele>85</ele>
        <time>2019-02-22T09:28:18Z</time>
      </trkpt>
      <trkpt lat="48.5724" lon="-2.77854">
        <ele>85</ele>
        <time>2019-02-22T09:28:21Z</time>
      </trkpt>
      <trkpt lat="48.57241" lon="-2.7786">
        <ele>85</ele>
        <time>2019-02-22T09:28:24Z</time>
      </trkpt>
      <trkpt lat="48.57243" lon="-2.77867">
        <ele>85</ele>
        <time>2019-02-22T09:28:27Z</time>
      </trkpt>
      <trkpt lat="48.57244" lon="-2.77873">
        <ele>85</ele>
        <time>2019-02-22T09:28:30Z</time>
      </trkpt>
      <trkpt lat="48.57245" lon="-2.77879">
        <ele>85</ele>
        <time>2019-02-22T09:28:33Z</time>
      </trkpt>
      <trkpt lat="48.57246" lon="-2.77886">
        <ele>85</ele>
        <time>2019-02-22T09:28:36Z</time>
      </trkpt>
      <trkpt lat="48.57248" lon="-2.77892">
        <ele>85</ele>
        <time>2019-02-22T09:28:39Z</time>
      </trkpt>
      <trkpt lat="48.57249" lon="-2.77898">
        <ele>85</ele>
        <time>2019-02-22T09:28:42Z</time>
      </trkpt>
      <trkpt lat="48.57251" lon="-2.77904">
        <ele>85</ele>
        <time>2019-02-22T09:28:45Z</time>
      </trkpt>
      <trkpt lat="48.57253" lon="-2.77909">
        <ele>85</ele>
        <time>2019-02-22T09:28:48Z</time>
      </trkpt>
      <trkpt lat="48.57256" lon="-2.77914">
        <ele>86</ele>
        <time>2019-02-22T09:28:51Z</time>
      </trkpt>
      <trkpt lat="48.57259" lon="-2.77918">
        <ele>86</ele>
        <time>2019-02-22T09:28:54Z</time>
      </trkpt>
      <trkpt lat="48.57263" lon="-2.77921">
        <ele>86</ele>
        <time>2019-02-22T09:28:57Z</time>
      </trkpt>
      <trkpt lat="48.57267" lon="-2.77923">
        <ele>86</ele>
        <time>2019-02-22T09:29:00Z</time>
      </trkpt>
      <trkpt lat="48.57271" lon="-2.77926">
        <ele>86</ele>
        <time>2019-02-22T09:29:03Z</time>
      </trkpt>
      <trkpt lat="48.57275" lon="-2.77928">
        <ele>86</ele>
        <time>2019-02-22T09:29:06Z</time>
      </trkpt>
      <trkpt lat="48.5728" lon="-2.7793">
        <ele>86</ele>
        <time>2019-02-22T09:29:09Z</time>
      </trkpt>
      <trkpt lat="48.57284" lon="-2.77933">
        <ele>86</ele>
        <time>2019-02-22T09:29:12Z</time>
      </trkpt>
      <trkpt lat="48.57288" lon="-2.77935">
        <ele>86</ele>
        <time>2019-02-22T09:29:15Z</time>
      </trkpt>
      <trkpt lat="48.57292" lon="-2.77937">
        <ele>86</ele>
        <time>2019-02-22T09:29:18Z</time>
      </trkpt>
      <trkpt lat="48.57296" lon="-2.7794">
        <ele>86</ele>
        <time>2019-02-22T09:29:21Z</time>
      </trkpt>
      <trkpt lat="48.573" lon="-2.77943">
        <ele>87</ele>
        <time>2019-02-22T09:29:24Z</time>
      </trkpt>
      <trkpt lat="48.57304" lon="-2.77946">
        <ele>87</ele>
        <time>2019-02-22T09:29:27Z</time>
      </trkpt>
      <trkpt lat="48.57307" lon="-2.7795">
        <ele>87</ele>
        <time>2019-02-22T09:29:30Z</time>
      </trkpt>
      <trkpt lat="48.57311" lon="-2.77954">
        <ele>87</ele>
        <time>2019-02-22T09:29:33Z</time>
      </trkpt>
      <trkpt lat="48.57315" lon="-2.77959">
        <ele>88</ele>
        <time>2019-02-22T09:29:37Z</time>
      </trkpt>
      <trkpt lat="48.57318" lon="-2.77964">
        <ele>89</ele>
        <time>2019-02-22T09:29:40Z</time>
      </trkpt>
      <trkpt lat="48.57318" lon="-2.77971">
        <ele>89</ele>
        <time>2019-02-22T09:29:43Z</time>
      </trkpt>
      <trkpt lat="48.57317" lon="-2.77977">
        <ele>90</ele>
        <time>2019-02-22T09:29:46Z</time>
      </trkpt>
      <trkpt lat="48.57317" lon="-2.77984">
        <ele>90</ele>
        <time>2019-02-22T09:29:49Z</time>
      </trkpt>
      <trkpt lat="48.57316" lon="-2.7799">
        <ele>91</ele>
        <time>2019-02-22T09:29:52Z</time>
      </trkpt>
      <trkpt lat="48.57316" lon="-2.77996">
        <ele>91</ele>
        <time>2019-02-22T09:29:55Z</time>
      </trkpt>
      <trkpt lat="48.57315" lon="-2.78002">
        <ele>91</ele>
        <time>2019-02-22T09:29:58Z</time>
      </trkpt>
      <trkpt lat="48.57314" lon="-2.78007">
        <ele>91</ele>
        <time>2019-02-22T09:30:01Z</time>
      </trkpt>
      <trkpt lat="48.57312" lon="-2.78014">
        <ele>91</ele>
        <time>2019-02-22T09:30:05Z</time>
      </trkpt>
      <trkpt lat="48.5731" lon="-2.78018">
        <ele>91</ele>
        <time>2019-02-22T09:30:09Z</time>
      </trkpt>
      <trkpt lat="48.5731" lon="-2.78023">
        <ele>91</ele>
        <time>2019-02-22T09:30:12Z</time>
      </trkpt>
      <trkpt lat="48.57311" lon="-2.78028">
        <ele>91</ele>
        <time>2019-02-22T09:30:16Z</time>
      </trkpt>
      <trkpt lat="48.57312" lon="-2.78033">
        <ele>91</ele>
        <time>2019-02-22T09:30:20Z</time>
      </trkpt>
      <trkpt lat="48.57314" lon="-2.78035">
        <ele>91</ele>
        <time>2019-02-22T09:30:23Z</time>
      </trkpt>
      <trkpt lat="48.57318" lon="-2.78038">
        <ele>91</ele>
        <time>2019-02-22T09:30:27Z</time>
      </trkpt>
      <trkpt lat="48.57321" lon="-2.7804">
        <ele>91</ele>
        <time>2019-02-22T09:30:31Z</time>
      </trkpt>
      <trkpt lat="48.57324" lon="-2.78039">
        <ele>91</ele>
        <time>2019-02-22T09:30:36Z</time>
      </trkpt>
      <trkpt lat="48.57328" lon="-2.78038">
        <ele>91</ele>
        <time>2019-02-22T09:30:40Z</time>
      </trkpt>
      <trkpt lat="48.57332" lon="-2.78035">
        <ele>91</ele>
        <time>2019-02-22T09:30:44Z</time>
      </trkpt>
      <trkpt lat="48.57335" lon="-2.78033">
        <ele>91</ele>
        <time>2019-02-22T09:30:47Z</time>
      </trkpt>
      <trkpt lat="48.57339" lon="-2.78031">
        <ele>91</ele>
        <time>2019-02-22T09:30:50Z</time>
      </trkpt>
      <trkpt lat="48.57344" lon="-2.78029">
        <ele>91</ele>
        <time>2019-02-22T09:30:54Z</time>
      </trkpt>
      <trkpt lat="48.5735" lon="-2.78026">
        <ele>91</ele>
        <time>2019-02-22T09:30:58Z</time>
      </trkpt>
      <trkpt lat="48.57355" lon="-2.78023">
        <ele>91</ele>
        <time>2019-02-22T09:31:02Z</time>
      </trkpt>
      <trkpt lat="48.5736" lon="-2.7802">
        <ele>91</ele>
        <time>2019-02-22T09:31:06Z</time>
      </trkpt>
      <trkpt lat="48.57364" lon="-2.78018">
        <ele>91</ele>
        <time>2019-02-22T09:31:09Z</time>
      </trkpt>
      <trkpt lat="48.57369" lon="-2.78015">
        <ele>91</ele>
        <time>2019-02-22T09:31:13Z</time>
      </trkpt>
      <trkpt lat="48.57372" lon="-2.78013">
        <ele>91</ele>
        <time>2019-02-22T09:31:16Z</time>
      </trkpt>
      <trkpt lat="48.57376" lon="-2.7801">
        <ele>91</ele>
        <time>2019-02-22T09:31:19Z</time>
      </trkpt>
      <trkpt lat="48.5738" lon="-2.78008">
        <ele>91</ele>
        <time>2019-02-22T09:31:22Z</time>
      </trkpt>
      <trkpt lat="48.57384" lon="-2.78006">
        <ele>91</ele>
        <time>2019-02-22T09:31:25Z</time>
      </trkpt>
      <trkpt lat="48.57389" lon="-2.78003">
        <ele>91</ele>
        <time>2019-02-22T09:31:29Z</time>
      </trkpt>
      <trkpt lat="48.57393" lon="-2.78">
        <ele>91</ele>
        <time>2019-02-22T09:31:32Z</time>
      </trkpt>
      <trkpt lat="48.57397" lon="-2.77997">
        <ele>91</ele>
        <time>2019-02-22T09:31:35Z</time>
      </trkpt>
      <trkpt lat="48.574" lon="-2.77995">
        <ele>91</ele>
        <time>2019-02-22T09:31:38Z</time>
      </trkpt>
      <trkpt lat="48.57405" lon="-2.77992">
        <ele>91</ele>
        <time>2019-02-22T09:31:42Z</time>
      </trkpt>
      <trkpt lat="48.57409" lon="-2.7799">
        <ele>91</ele>
        <time>2019-02-22T09:31:45Z</time>
      </trkpt>
      <trkpt lat="48.57414" lon="-2.77987">
        <ele>91</ele>
        <time>2019-02-22T09:31:49Z</time>
      </trkpt>
      <trkpt lat="48.57418" lon="-2.77984">
        <ele>91</ele>
        <time>2019-02-22T09:31:52Z</time>
      </trkpt>
      <trkpt lat="48.57423" lon="-2.77981">
        <ele>91</ele>
        <time>2019-02-22T09:31:56Z</time>
      </trkpt>
      <trkpt lat="48.57428" lon="-2.77979">
        <ele>91</ele>
        <time>2019-02-22T09:32:00Z</time>
      </trkpt>
      <trkpt lat="48.57432" lon="-2.77977">
        <ele>91</ele>
        <time>2019-02-22T09:32:03Z</time>
      </trkpt>
      <trkpt lat="48.57435" lon="-2.77975">
        <ele>91</ele>
        <time>2019-02-22T09:32:06Z</time>
      </trkpt>
      <trkpt lat="48.5744" lon="-2.77972">
        <ele>91</ele>
        <time>2019-02-22T09:32:10Z</time>
      </trkpt>
      <trkpt lat="48.57445" lon="-2.77969">
        <ele>91</ele>
        <time>2019-02-22T09:32:14Z</time>
      </trkpt>
      <trkpt lat="48.57448" lon="-2.77967">
        <ele>91</ele>
        <time>2019-02-22T09:32:17Z</time>
      </trkpt>
      <trkpt lat="48.57452" lon="-2.77965">
        <ele>91</ele>
        <time>2019-02-22T09:32:21Z</time>
      </trkpt>
      <trkpt lat="48.57455" lon="-2.77963">
        <ele>91</ele>
        <time>2019-02-22T09:32:25Z</time>
      </trkpt>
      <trkpt lat="48.57459" lon="-2.77961">
        <ele>91</ele>
        <time>2019-02-22T09:32:29Z</time>
      </trkpt>
      <trkpt lat="48.57463" lon="-2.77959">
        <ele>91</ele>
        <time>2019-02-22T09:32:33Z</time>
      </trkpt>
      <trkpt lat="48.57467" lon="-2.77956">
        <ele>91</ele>
        <time>2019-02-22T09:32:37Z</time>
      </trkpt>
      <trkpt lat="48.5747" lon="-2.77954">
        <ele>91</ele>
        <time>2019-02-22T09:32:40Z</time>
      </trkpt>
      <trkpt lat="48.57474" lon="-2.77951">
        <ele>91</ele>
        <time>2019-02-22T09:32:44Z</time>
      </trkpt>
      <trkpt lat="48.57478" lon="-2.77949">
        <ele>91</ele>
        <time>2019-02-22T09:32:48Z</time>
      </trkpt>
      <trkpt lat="48.57482" lon="-2.77947">
        <ele>91</ele>
        <time>2019-02-22T09:32:51Z</time>
      </trkpt>
      <trkpt lat="48.57486" lon="-2.77945">
        <ele>91</ele>
        <time>2019-02-22T09:32:55Z</time>
      </trkpt>
      <trkpt lat="48.57489" lon="-2.77944">
        <ele>91</ele>
        <time>2019-02-22T09:32:58Z</time>
      </trkpt>
      <trkpt lat="48.57494" lon="-2.77942">
        <ele>91</ele>
        <time>2019-02-22T09:33:02Z</time>
      </trkpt>
      <trkpt lat="48.57497" lon="-2.77941">
        <ele>91</ele>
        <time>2019-02-22T09:33:05Z</time>
      </trkpt>
      <trkpt lat="48.57501" lon="-2.77938">
        <ele>91</ele>
        <time>2019-02-22T09:33:09Z</time>
      </trkpt>
      <trkpt lat="48.57505" lon="-2.77936">
        <ele>91</ele>
        <time>2019-02-22T09:33:13Z</time>
      </trkpt>
      <trkpt lat="48.57508" lon="-2.77933">
        <ele>91</ele>
        <time>2019-02-22T09:33:16Z</time>
      </trkpt>
      <trkpt lat="48.57512" lon="-2.77931">
        <ele>91</ele>
        <time>2019-02-22T09:33:19Z</time>
      </trkpt>
      <trkpt lat="48.57515" lon="-2.77929">
        <ele>91</ele>
        <time>2019-02-22T09:33:22Z</time>
      </trkpt>
      <trkpt lat="48.57519" lon="-2.77927">
        <ele>91</ele>
        <time>2019-02-22T09:33:25Z</time>
      </trkpt>
      <trkpt lat="48.57523" lon="-2.77925">
        <ele>91</ele>
        <time>2019-02-22T09:33:28Z</time>
      </trkpt>
      <trkpt lat="48.57528" lon="-2.77922">
        <ele>91</ele>
        <time>2019-02-22T09:33:33Z</time>
      </trkpt>
      <trkpt lat="48.57532" lon="-2.7792">
        <ele>91</ele>
        <time>2019-02-22T09:33:36Z</time>
      </trkpt>
      <trkpt lat="48.57537" lon="-2.77917">
        <ele>91</ele>
        <time>2019-02-22T09:33:40Z</time>
      </trkpt>
      <trkpt lat="48.57541" lon="-2.77914">
        <ele>91</ele>
        <time>2019-02-22T09:33:44Z</time>
      </trkpt>
      <trkpt lat="48.57545" lon="-2.77911">
        <ele>91</ele>
        <time>2019-02-22T09:33:47Z</time>
      </trkpt>
      <trkpt lat="48.57549" lon="-2.77909">
        <ele>91</ele>
        <time>2019-02-22T09:33:50Z</time>
      </trkpt>
      <trkpt lat="48.57552" lon="-2.77907">
        <ele>91</ele>
        <time>2019-02-22T09:33:53Z</time>
      </trkpt>
      <trkpt lat="48.57556" lon="-2.77905">
        <ele>91</ele>
        <time>2019-02-22T09:33:56Z</time>
      </trkpt>
      <trkpt lat="48.5756" lon="-2.77903">
        <ele>91</ele>
        <time>2019-02-22T09:33:59Z</time>
      </trkpt>
      <trkpt lat="48.57563" lon="-2.77901">
        <ele>90</ele>
        <time>2019-02-22T09:34:02Z</time>
      </trkpt>
      <trkpt lat="48.57568" lon="-2.77898">
        <ele>90</ele>
        <time>2019-02-22T09:34:06Z</time>
      </trkpt>
      <trkpt lat="48.57571" lon="-2.77896">
        <ele>90</ele>
        <time>2019-02-22T09:34:09Z</time>
      </trkpt>
      <trkpt lat="48.57574" lon="-2.77894">
        <ele>90</ele>
        <time>2019-02-22T09:34:12Z</time>
      </trkpt>
      <trkpt lat="48.57577" lon="-2.77889">
        <ele>90</ele>
        <time>2019-02-22T09:34:16Z</time>
      </trkpt>
      <trkpt lat="48.57578" lon="-2.77884">
        <ele>89</ele>
        <time>2019-02-22T09:34:20Z</time>
      </trkpt>
      <trkpt lat="48.57577" lon="-2.77879">
        <ele>88</ele>
        <time>2019-02-22T09:34:23Z</time>
      </trkpt>
      <trkpt lat="48.57577" lon="-2.77873">
        <ele>87</ele>
        <time>2019-02-22T09:34:26Z</time>
      </trkpt>
      <trkpt lat="48.57575" lon="-2.77867">
        <ele>87</ele>
        <time>2019-02-22T09:34:30Z</time>
      </trkpt>
      <trkpt lat="48.57574" lon="-2.77862">
        <ele>86</ele>
        <time>2019-02-22T09:34:33Z</time>
      </trkpt>
      <trkpt lat="48.57571" lon="-2.77856">
        <ele>86</ele>
        <time>2019-02-22T09:34:37Z</time>
      </trkpt>
      <trkpt lat="48.57568" lon="-2.77851">
        <ele>86</ele>
        <time>2019-02-22T09:34:40Z</time>
      </trkpt>
      <trkpt lat="48.57565" lon="-2.77844">
        <ele>85</ele>
        <time>2019-02-22T09:34:44Z</time>
      </trkpt>
      <trkpt lat="48.57564" lon="-2.77839">
        <ele>85</ele>
        <time>2019-02-22T09:34:47Z</time>
      </trkpt>
      <trkpt lat="48.57562" lon="-2.77833">
        <ele>85</ele>
        <time>2019-02-22T09:34:50Z</time>
      </trkpt>
      <trkpt lat="48.57561" lon="-2.77825">
        <ele>85</ele>
        <time>2019-02-22T09:34:54Z</time>
      </trkpt>
      <trkpt lat="48.5756" lon="-2.77818">
        <ele>85</ele>
        <time>2019-02-22T09:34:58Z</time>
      </trkpt>
      <trkpt lat="48.57559" lon="-2.77812">
        <ele>85</ele>
        <time>2019-02-22T09:35:01Z</time>
      </trkpt>
      <trkpt lat="48.57558" lon="-2.77804">
        <ele>85</ele>
        <time>2019-02-22T09:35:05Z</time>
      </trkpt>
      <trkpt lat="48.57556" lon="-2.77799">
        <ele>85</ele>
        <time>2019-02-22T09:35:08Z</time>
      </trkpt>
      <trkpt lat="48.57553" lon="-2.77792">
        <ele>85</ele>
        <time>2019-02-22T09:35:12Z</time>
      </trkpt>
      <trkpt lat="48.57549" lon="-2.77788">
        <ele>85</ele>
        <time>2019-02-22T09:35:16Z</time>
      </trkpt>
      <trkpt lat="48.57546" lon="-2.77786">
        <ele>85</ele>
        <time>2019-02-22T09:35:19Z</time>
      </trkpt>
      <trkpt lat="48.57542" lon="-2.77784">
        <ele>85</ele>
        <time>2019-02-22T09:35:22Z</time>
      </trkpt>
      <trkpt lat="48.57539" lon="-2.77782">
        <ele>85</ele>
        <time>2019-02-22T09:35:25Z</time>
      </trkpt>
      <trkpt lat="48.57534" lon="-2.77778">
        <ele>85</ele>
        <time>2019-02-22T09:35:29Z</time>
      </trkpt>
      <trkpt lat="48.57531" lon="-2.77771">
        <ele>85</ele>
        <time>2019-02-22T09:35:33Z</time>
      </trkpt>
      <trkpt lat="48.57529" lon="-2.77766">
        <ele>85</ele>
        <time>2019-02-22T09:35:36Z</time>
      </trkpt>
      <trkpt lat="48.57527" lon="-2.77761">
        <ele>85</ele>
        <time>2019-02-22T09:35:39Z</time>
      </trkpt>
      <trkpt lat="48.57526" lon="-2.77756">
        <ele>85</ele>
        <time>2019-02-22T09:35:42Z</time>
      </trkpt>
      <trkpt lat="48.57525" lon="-2.77751">
        <ele>85</ele>
        <time>2019-02-22T09:35:45Z</time>
      </trkpt>
      <trkpt lat="48.57523" lon="-2.77744">
        <ele>85</ele>
        <time>2019-02-22T09:35:49Z</time>
      </trkpt>
      <trkpt lat="48.57522" lon="-2.77739">
        <ele>85</ele>
        <time>2019-02-22T09:35:52Z</time>
      </trkpt>
      <trkpt lat="48.57521" lon="-2.77734">
        <ele>85</ele>
        <time>2019-02-22T09:35:55Z</time>
      </trkpt>
      <trkpt lat="48.57519" lon="-2.77729">
        <ele>85</ele>
        <time>2019-02-22T09:35:58Z</time>
      </trkpt>
      <trkpt lat="48.57518" lon="-2.77724">
        <ele>85</ele>
        <time>2019-02-22T09:36:01Z</time>
      </trkpt>
      <trkpt lat="48.57518" lon="-2.77715">
        <ele>85</ele>
        <time>2019-02-22T09:36:06Z</time>
      </trkpt>
      <trkpt lat="48.57516" lon="-2.77707">
        <ele>85</ele>
        <time>2019-02-22T09:36:11Z</time>
      </trkpt>
      <trkpt lat="48.57514" lon="-2.77701">
        <ele>85</ele>
        <time>2019-02-22T09:36:15Z</time>
      </trkpt>
      <trkpt lat="48.57511" lon="-2.77695">
        <ele>85</ele>
        <time>2019-02-22T09:36:19Z</time>
      </trkpt>
      <trkpt lat="48.57508" lon="-2.77691">
        <ele>85</ele>
        <time>2019-02-22T09:36:23Z</time>
      </trkpt>
      <trkpt lat="48.57504" lon="-2.77688">
        <ele>85</ele>
        <time>2019-02-22T09:36:27Z</time>
      </trkpt>
      <trkpt lat="48.57501" lon="-2.77684">
        <ele>85</ele>
        <time>2019-02-22T09:36:31Z</time>
      </trkpt>
      <trkpt lat="48.57498" lon="-2.77679">
        <ele>85</ele>
        <time>2019-02-22T09:36:35Z</time>
      </trkpt>
      <trkpt lat="48.57495" lon="-2.77674">
        <ele>85</ele>
        <time>2019-02-22T09:36:39Z</time>
      </trkpt>
      <trkpt lat="48.57491" lon="-2.7767">
        <ele>84</ele>
        <time>2019-02-22T09:36:43Z</time>
      </trkpt>
      <trkpt lat="48.57487" lon="-2.77666">
        <ele>84</ele>
        <time>2019-02-22T09:36:47Z</time>
      </trkpt>
      <trkpt lat="48.57481" lon="-2.77661">
        <ele>84</ele>
        <time>2019-02-22T09:36:52Z</time>
      </trkpt>
      <trkpt lat="48.57477" lon="-2.77657">
        <ele>84</ele>
        <time>2019-02-22T09:36:56Z</time>
      </trkpt>
      <trkpt lat="48.57473" lon="-2.77654">
        <ele>84</ele>
        <time>2019-02-22T09:36:59Z</time>
      </trkpt>
      <trkpt lat="48.57469" lon="-2.77649">
        <ele>83</ele>
        <time>2019-02-22T09:37:03Z</time>
      </trkpt>
      <trkpt lat="48.57465" lon="-2.77642">
        <ele>83</ele>
        <time>2019-02-22T09:37:07Z</time>
      </trkpt>
      <trkpt lat="48.57462" lon="-2.77636">
        <ele>83</ele>
        <time>2019-02-22T09:37:11Z</time>
      </trkpt>
      <trkpt lat="48.5746" lon="-2.7763">
        <ele>82</ele>
        <time>2019-02-22T09:37:15Z</time>
      </trkpt>
      <trkpt lat="48.57457" lon="-2.77625">
        <ele>82</ele>
        <time>2019-02-22T09:37:19Z</time>
      </trkpt>
      <trkpt lat="48.57456" lon="-2.77621">
        <ele>81</ele>
        <time>2019-02-22T09:37:23Z</time>
      </trkpt>
      <trkpt lat="48.57457" lon="-2.77615">
        <ele>80</ele>
        <time>2019-02-22T09:37:27Z</time>
      </trkpt>
      <trkpt lat="48.57455" lon="-2.77613">
        <ele>77</ele>
        <time>2019-02-22T09:38:06Z</time>
      </trkpt>
      <trkpt lat="48.57452" lon="-2.77609">
        <ele>77</ele>
        <time>2019-02-22T09:38:12Z</time>
      </trkpt>
      <trkpt lat="48.57451" lon="-2.77608">
        <ele>76</ele>
        <time>2019-02-22T09:38:24Z</time>
      </trkpt>
      <trkpt lat="48.5745" lon="-2.77604">
        <ele>75</ele>
        <time>2019-02-22T09:38:28Z</time>
      </trkpt>
      <trkpt lat="48.57451" lon="-2.77599">
        <ele>74</ele>
        <time>2019-02-22T09:38:32Z</time>
      </trkpt>
      <trkpt lat="48.5745" lon="-2.77597">
        <ele>74</ele>
        <time>2019-02-22T09:38:35Z</time>
      </trkpt>
      <trkpt lat="48.57449" lon="-2.77598">
        <ele>74</ele>
        <time>2019-02-22T09:38:56Z</time>
      </trkpt>
      <trkpt lat="48.57446" lon="-2.77598">
        <ele>73</ele>
        <time>2019-02-22T09:39:00Z</time>
      </trkpt>
      <trkpt lat="48.57442" lon="-2.77598">
        <ele>72</ele>
        <time>2019-02-22T09:39:04Z</time>
      </trkpt>
      <trkpt lat="48.57441" lon="-2.77599">
        <ele>72</ele>
        <time>2019-02-22T09:39:08Z</time>
      </trkpt>
      <trkpt lat="48.57441" lon="-2.77597">
        <ele>72</ele>
        <time>2019-02-22T09:39:28Z</time>
      </trkpt>
      <trkpt lat="48.5744" lon="-2.77596">
        <ele>72</ele>
        <time>2019-02-22T09:39:33Z</time>
      </trkpt>
      <trkpt lat="48.57438" lon="-2.77598">
        <ele>72</ele>
        <time>2019-02-22T09:39:38Z</time>
      </trkpt>
      <trkpt lat="48.57435" lon="-2.776">
        <ele>72</ele>
        <time>2019-02-22T09:39:42Z</time>
      </trkpt>
      <trkpt lat="48.57432" lon="-2.77602">
        <ele>72</ele>
        <time>2019-02-22T09:39:47Z</time>
      </trkpt>
      <trkpt lat="48.5743" lon="-2.77605">
        <ele>72</ele>
        <time>2019-02-22T09:39:51Z</time>
      </trkpt>
      <trkpt lat="48.57427" lon="-2.77605">
        <ele>72</ele>
        <time>2019-02-22T09:39:56Z</time>
      </trkpt>
      <trkpt lat="48.57424" lon="-2.77604">
        <ele>71</ele>
        <time>2019-02-22T09:40:01Z</time>
      </trkpt>
      <trkpt lat="48.57423" lon="-2.77604">
        <ele>71</ele>
        <time>2019-02-22T09:40:06Z</time>
      </trkpt>
      <trkpt lat="48.57422" lon="-2.77605">
        <ele>70</ele>
        <time>2019-02-22T09:40:12Z</time>
      </trkpt>
      <trkpt lat="48.5742" lon="-2.77606">
        <ele>69</ele>
        <time>2019-02-22T09:40:22Z</time>
      </trkpt>
      <trkpt lat="48.57417" lon="-2.77606">
        <ele>68</ele>
        <time>2019-02-22T09:40:25Z</time>
      </trkpt>
      <trkpt lat="48.57413" lon="-2.77606">
        <ele>68</ele>
        <time>2019-02-22T09:40:28Z</time>
      </trkpt>
      <trkpt lat="48.57409" lon="-2.77606">
        <ele>68</ele>
        <time>2019-02-22T09:40:31Z</time>
      </trkpt>
      <trkpt lat="48.57405" lon="-2.77607">
        <ele>67</ele>
        <time>2019-02-22T09:40:34Z</time>
      </trkpt>
      <trkpt lat="48.57401" lon="-2.77607">
        <ele>67</ele>
        <time>2019-02-22T09:40:37Z</time>
      </trkpt>
      <trkpt lat="48.57396" lon="-2.77607">
        <ele>66</ele>
        <time>2019-02-22T09:40:40Z</time>
      </trkpt>
      <trkpt lat="48.57393" lon="-2.77608">
        <ele>66</ele>
        <time>2019-02-22T09:40:43Z</time>
      </trkpt>
      <trkpt lat="48.57389" lon="-2.77609">
        <ele>66</ele>
        <time>2019-02-22T09:40:46Z</time>
      </trkpt>
      <trkpt lat="48.57386" lon="-2.77607">
        <ele>65</ele>
        <time>2019-02-22T09:40:49Z</time>
      </trkpt>
      <trkpt lat="48.57381" lon="-2.77606">
        <ele>65</ele>
        <time>2019-02-22T09:40:52Z</time>
      </trkpt>
      <trkpt lat="48.57378" lon="-2.77605">
        <ele>65</ele>
        <time>2019-02-22T09:40:55Z</time>
      </trkpt>
      <trkpt lat="48.57373" lon="-2.77605">
        <ele>65</ele>
        <time>2019-02-22T09:40:59Z</time>
      </trkpt>
      <trkpt lat="48.5737" lon="-2.77604">
        <ele>64</ele>
        <time>2019-02-22T09:41:03Z</time>
      </trkpt>
      <trkpt lat="48.57366" lon="-2.77603">
        <ele>63</ele>
        <time>2019-02-22T09:41:07Z</time>
      </trkpt>
      <trkpt lat="48.57363" lon="-2.77603">
        <ele>63</ele>
        <time>2019-02-22T09:41:11Z</time>
      </trkpt>
      <trkpt lat="48.57359" lon="-2.77602">
        <ele>62</ele>
        <time>2019-02-22T09:41:15Z</time>
      </trkpt>
      <trkpt lat="48.57356" lon="-2.776">
        <ele>62</ele>
        <time>2019-02-22T09:41:19Z</time>
      </trkpt>
      <trkpt lat="48.57351" lon="-2.77598">
        <ele>61</ele>
        <time>2019-02-22T09:41:23Z</time>
      </trkpt>
      <trkpt lat="48.57348" lon="-2.77597">
        <ele>61</ele>
        <time>2019-02-22T09:41:26Z</time>
      </trkpt>
      <trkpt lat="48.57344" lon="-2.77597">
        <ele>60</ele>
        <time>2019-02-22T09:41:29Z</time>
      </trkpt>
      <trkpt lat="48.5734" lon="-2.77597">
        <ele>60</ele>
        <time>2019-02-22T09:41:32Z</time>
      </trkpt>
      <trkpt lat="48.57337" lon="-2.77597">
        <ele>59</ele>
        <time>2019-02-22T09:41:35Z</time>
      </trkpt>
      <trkpt lat="48.57332" lon="-2.77596">
        <ele>59</ele>
        <time>2019-02-22T09:41:39Z</time>
      </trkpt>
      <trkpt lat="48.57328" lon="-2.77594">
        <ele>58</ele>
        <time>2019-02-22T09:41:43Z</time>
      </trkpt>
      <trkpt lat="48.57324" lon="-2.77591">
        <ele>57</ele>
        <time>2019-02-22T09:41:47Z</time>
      </trkpt>
      <trkpt lat="48.57321" lon="-2.77589">
        <ele>57</ele>
        <time>2019-02-22T09:41:51Z</time>
      </trkpt>
      <trkpt lat="48.57318" lon="-2.77586">
        <ele>56</ele>
        <time>2019-02-22T09:41:55Z</time>
      </trkpt>
      <trkpt lat="48.57315" lon="-2.77583">
        <ele>55</ele>
        <time>2019-02-22T09:42:00Z</time>
      </trkpt>
      <trkpt lat="48.57312" lon="-2.77582">
        <ele>54</ele>
        <time>2019-02-22T09:42:03Z</time>
      </trkpt>
      <trkpt lat="48.57308" lon="-2.77579">
        <ele>53</ele>
        <time>2019-02-22T09:42:06Z</time>
      </trkpt>
      <trkpt lat="48.57304" lon="-2.77577">
        <ele>53</ele>
        <time>2019-02-22T09:42:10Z</time>
      </trkpt>
      <trkpt lat="48.573" lon="-2.77573">
        <ele>52</ele>
        <time>2019-02-22T09:42:14Z</time>
      </trkpt>
      <trkpt lat="48.57296" lon="-2.77568">
        <ele>51</ele>
        <time>2019-02-22T09:42:18Z</time>
      </trkpt>
      <trkpt lat="48.57292" lon="-2.77566">
        <ele>51</ele>
        <time>2019-02-22T09:42:21Z</time>
      </trkpt>
      <trkpt lat="48.57289" lon="-2.77565">
        <ele>51</ele>
        <time>2019-02-22T09:42:24Z</time>
      </trkpt>
      <trkpt lat="48.57285" lon="-2.77563">
        <ele>51</ele>
        <time>2019-02-22T09:42:27Z</time>
      </trkpt>
      <trkpt lat="48.5728" lon="-2.77562">
        <ele>51</ele>
        <time>2019-02-22T09:42:31Z</time>
      </trkpt>
      <trkpt lat="48.57277" lon="-2.7756">
        <ele>51</ele>
        <time>2019-02-22T09:42:34Z</time>
      </trkpt>
      <trkpt lat="48.57272" lon="-2.77558">
        <ele>50</ele>
        <time>2019-02-22T09:42:37Z</time>
      </trkpt>
      <trkpt lat="48.57269" lon="-2.77557">
        <ele>50</ele>
        <time>2019-02-22T09:42:40Z</time>
      </trkpt>
      <trkpt lat="48.57265" lon="-2.77556">
        <ele>50</ele>
        <time>2019-02-22T09:42:43Z</time>
      </trkpt>
      <trkpt lat="48.5726" lon="-2.77555">
        <ele>50</ele>
        <time>2019-02-22T09:42:46Z</time>
      </trkpt>
      <trkpt lat="48.57256" lon="-2.77554">
        <ele>50</ele>
        <time>2019-02-22T09:42:49Z</time>
      </trkpt>
      <trkpt lat="48.57252" lon="-2.77553">
        <ele>50</ele>
        <time>2019-02-22T09:42:52Z</time>
      </trkpt>
      <trkpt lat="48.57248" lon="-2.77551">
        <ele>50</ele>
        <time>2019-02-22T09:42:55Z</time>
      </trkpt>
      <trkpt lat="48.57244" lon="-2.77549">
        <ele>50</ele>
        <time>2019-02-22T09:42:58Z</time>
      </trkpt>
      <trkpt lat="48.57241" lon="-2.77548">
        <ele>50</ele>
        <time>2019-02-22T09:43:01Z</time>
      </trkpt>
      <trkpt lat="48.57237" lon="-2.77547">
        <ele>50</ele>
        <time>2019-02-22T09:43:04Z</time>
      </trkpt>
      <trkpt lat="48.57233" lon="-2.77546">
        <ele>50</ele>
        <time>2019-02-22T09:43:07Z</time>
      </trkpt>
      <trkpt lat="48.57228" lon="-2.77545">
        <ele>50</ele>
        <time>2019-02-22T09:43:10Z</time>
      </trkpt>
      <trkpt lat="48.57224" lon="-2.77547">
        <ele>50</ele>
        <time>2019-02-22T09:43:14Z</time>
      </trkpt>
      <trkpt lat="48.57222" lon="-2.77549">
        <ele>50</ele>
        <time>2019-02-22T09:43:18Z</time>
      </trkpt>
      <trkpt lat="48.57219" lon="-2.77553">
        <ele>50</ele>
        <time>2019-02-22T09:43:22Z</time>
      </trkpt>
      <trkpt lat="48.57216" lon="-2.77556">
        <ele>50</ele>
        <time>2019-02-22T09:43:26Z</time>
      </trkpt>
      <trkpt lat="48.57213" lon="-2.77559">
        <ele>50</ele>
        <time>2019-02-22T09:43:30Z</time>
      </trkpt>
      <trkpt lat="48.57209" lon="-2.77561">
        <ele>50</ele>
        <time>2019-02-22T09:43:34Z</time>
      </trkpt>
      <trkpt lat="48.57206" lon="-2.77563">
        <ele>50</ele>
        <time>2019-02-22T09:43:37Z</time>
      </trkpt>
      <trkpt lat="48.57202" lon="-2.77563">
        <ele>50</ele>
        <time>2019-02-22T09:43:40Z</time>
      </trkpt>
      <trkpt lat="48.57198" lon="-2.77563">
        <ele>50</ele>
        <time>2019-02-22T09:43:43Z</time>
      </trkpt>
      <trkpt lat="48.57195" lon="-2.77562">
        <ele>50</ele>
        <time>2019-02-22T09:43:46Z</time>
      </trkpt>
      <trkpt lat="48.57191" lon="-2.77562">
        <ele>50</ele>
        <time>2019-02-22T09:43:49Z</time>
      </trkpt>
      <trkpt lat="48.57187" lon="-2.77561">
        <ele>50</ele>
        <time>2019-02-22T09:43:52Z</time>
      </trkpt>
      <trkpt lat="48.57183" lon="-2.77561">
        <ele>50</ele>
        <time>2019-02-22T09:43:55Z</time>
      </trkpt>
      <trkpt lat="48.57179" lon="-2.7756">
        <ele>50</ele>
        <time>2019-02-22T09:43:58Z</time>
      </trkpt>
      <trkpt lat="48.57176" lon="-2.77559">
        <ele>50</ele>
        <time>2019-02-22T09:44:01Z</time>
      </trkpt>
      <trkpt lat="48.57172" lon="-2.77558">
        <ele>50</ele>
        <time>2019-02-22T09:44:04Z</time>
      </trkpt>
      <trkpt lat="48.57168" lon="-2.77557">
        <ele>50</ele>
        <time>2019-02-22T09:44:07Z</time>
      </trkpt>
      <trkpt lat="48.57164" lon="-2.77555">
        <ele>50</ele>
        <time>2019-02-22T09:44:11Z</time>
      </trkpt>
      <trkpt lat="48.57161" lon="-2.77553">
        <ele>50</ele>
        <time>2019-02-22T09:44:14Z</time>
      </trkpt>
      <trkpt lat="48.57157" lon="-2.77551">
        <ele>50</ele>
        <time>2019-02-22T09:44:17Z</time>
      </trkpt>
      <trkpt lat="48.57153" lon="-2.7755">
        <ele>50</ele>
        <time>2019-02-22T09:44:20Z</time>
      </trkpt>
      <trkpt lat="48.5715" lon="-2.77548">
        <ele>50</ele>
        <time>2019-02-22T09:44:23Z</time>
      </trkpt>
      <trkpt lat="48.57146" lon="-2.77544">
        <ele>50</ele>
        <time>2019-02-22T09:44:27Z</time>
      </trkpt>
      <trkpt lat="48.57143" lon="-2.77541">
        <ele>50</ele>
        <time>2019-02-22T09:44:31Z</time>
      </trkpt>
      <trkpt lat="48.57142" lon="-2.77538">
        <ele>51</ele>
        <time>2019-02-22T09:44:36Z</time>
      </trkpt>
      <trkpt lat="48.57139" lon="-2.77534">
        <ele>51</ele>
        <time>2019-02-22T09:44:40Z</time>
      </trkpt>
      <trkpt lat="48.57136" lon="-2.77528">
        <ele>51</ele>
        <time>2019-02-22T09:44:44Z</time>
      </trkpt>
      <trkpt lat="48.57134" lon="-2.77523">
        <ele>51</ele>
        <time>2019-02-22T09:44:48Z</time>
      </trkpt>
      <trkpt lat="48.57132" lon="-2.77518">
        <ele>51</ele>
        <time>2019-02-22T09:44:52Z</time>
      </trkpt>
      <trkpt lat="48.5713" lon="-2.77515">
        <ele>51</ele>
        <time>2019-02-22T09:44:56Z</time>
      </trkpt>
      <trkpt lat="48.57128" lon="-2.7751">
        <ele>51</ele>
        <time>2019-02-22T09:45:00Z</time>
      </trkpt>
      <trkpt lat="48.57125" lon="-2.77506">
        <ele>50</ele>
        <time>2019-02-22T09:45:04Z</time>
      </trkpt>
      <trkpt lat="48.57122" lon="-2.77502">
        <ele>49</ele>
        <time>2019-02-22T09:45:08Z</time>
      </trkpt>
      <trkpt lat="48.5712" lon="-2.77498">
        <ele>49</ele>
        <time>2019-02-22T09:45:12Z</time>
      </trkpt>
      <trkpt lat="48.57117" lon="-2.77495">
        <ele>49</ele>
        <time>2019-02-22T09:45:17Z</time>
      </trkpt>
      <trkpt lat="48.57114" lon="-2.77492">
        <ele>49</ele>
        <time>2019-02-22T09:45:20Z</time>
      </trkpt>
      <trkpt lat="48.57111" lon="-2.77491">
        <ele>48</ele>
        <time>2019-02-22T09:45:23Z</time>
      </trkpt>
      <trkpt lat="48.57111" lon="-2.77489">
        <ele>48</ele>
        <time>2019-02-22T09:45:36Z</time>
      </trkpt>
      <trkpt lat="48.5711" lon="-2.77488">
        <ele>48</ele>
        <time>2019-02-22T09:45:41Z</time>
      </trkpt>
      <trkpt lat="48.57107" lon="-2.77484">
        <ele>48</ele>
        <time>2019-02-22T09:45:45Z</time>
      </trkpt>
      <trkpt lat="48.57104" lon="-2.77481">
        <ele>47</ele>
        <time>2019-02-22T09:45:49Z</time>
      </trkpt>
      <trkpt lat="48.57101" lon="-2.77477">
        <ele>47</ele>
        <time>2019-02-22T09:45:57Z</time>
      </trkpt>
      <trkpt lat="48.57101" lon="-2.77474">
        <ele>47</ele>
        <time>2019-02-22T09:46:01Z</time>
      </trkpt>
      <trkpt lat="48.57099" lon="-2.77473">
        <ele>47</ele>
        <time>2019-02-22T09:46:04Z</time>
      </trkpt>
      <trkpt lat="48.57098" lon="-2.77472">
        <ele>47</ele>
        <time>2019-02-22T09:46:09Z</time>
      </trkpt>
      <trkpt lat="48.57097" lon="-2.7747">
        <ele>47</ele>
        <time>2019-02-22T09:46:13Z</time>
      </trkpt>
      <trkpt lat="48.57095" lon="-2.77469">
        <ele>47</ele>
        <time>2019-02-22T09:46:16Z</time>
      </trkpt>
      <trkpt lat="48.57093" lon="-2.77466">
        <ele>47</ele>
        <time>2019-02-22T09:46:20Z</time>
      </trkpt>
      <trkpt lat="48.57092" lon="-2.77464">
        <ele>47</ele>
        <time>2019-02-22T09:46:23Z</time>
      </trkpt>
      <trkpt lat="48.57089" lon="-2.7746">
        <ele>47</ele>
        <time>2019-02-22T09:46:27Z</time>
      </trkpt>
      <trkpt lat="48.57085" lon="-2.77455">
        <ele>47</ele>
        <time>2019-02-22T09:46:31Z</time>
      </trkpt>
      <trkpt lat="48.57083" lon="-2.77452">
        <ele>46</ele>
        <time>2019-02-22T09:46:35Z</time>
      </trkpt>
      <trkpt lat="48.57079" lon="-2.77447">
        <ele>45</ele>
        <time>2019-02-22T09:46:39Z</time>
      </trkpt>
      <trkpt lat="48.57075" lon="-2.77442">
        <ele>44</ele>
        <time>2019-02-22T09:46:43Z</time>
      </trkpt>
      <trkpt lat="48.57071" lon="-2.77436">
        <ele>43</ele>
        <time>2019-02-22T09:46:47Z</time>
      </trkpt>
      <trkpt lat="48.57068" lon="-2.77432">
        <ele>41</ele>
        <time>2019-02-22T09:46:51Z</time>
      </trkpt>
      <trkpt lat="48.57064" lon="-2.77427">
        <ele>40</ele>
        <time>2019-02-22T09:46:55Z</time>
      </trkpt>
      <trkpt lat="48.57061" lon="-2.77423">
        <ele>40</ele>
        <time>2019-02-22T09:46:58Z</time>
      </trkpt>
      <trkpt lat="48.57057" lon="-2.77418">
        <ele>40</ele>
        <time>2019-02-22T09:47:02Z</time>
      </trkpt>
      <trkpt lat="48.57055" lon="-2.77413">
        <ele>39</ele>
        <time>2019-02-22T09:47:06Z</time>
      </trkpt>
      <trkpt lat="48.57052" lon="-2.77409">
        <ele>39</ele>
        <time>2019-02-22T09:47:09Z</time>
      </trkpt>
      <trkpt lat="48.57049" lon="-2.77403">
        <ele>39</ele>
        <time>2019-02-22T09:47:13Z</time>
      </trkpt>
      <trkpt lat="48.57046" lon="-2.77397">
        <ele>39</ele>
        <time>2019-02-22T09:47:17Z</time>
      </trkpt>
      <trkpt lat="48.57043" lon="-2.77392">
        <ele>39</ele>
        <time>2019-02-22T09:47:21Z</time>
      </trkpt>
      <trkpt lat="48.5704" lon="-2.77387">
        <ele>39</ele>
        <time>2019-02-22T09:47:25Z</time>
      </trkpt>
      <trkpt lat="48.57039" lon="-2.77385">
        <ele>39</ele>
        <time>2019-02-22T09:47:28Z</time>
      </trkpt>
      <trkpt lat="48.57036" lon="-2.77381">
        <ele>39</ele>
        <time>2019-02-22T09:47:31Z</time>
      </trkpt>
      <trkpt lat="48.57033" lon="-2.77378">
        <ele>39</ele>
        <time>2019-02-22T09:47:34Z</time>
      </trkpt>
      <trkpt lat="48.5703" lon="-2.77373">
        <ele>39</ele>
        <time>2019-02-22T09:47:38Z</time>
      </trkpt>
      <trkpt lat="48.57027" lon="-2.77369">
        <ele>38</ele>
        <time>2019-02-22T09:47:41Z</time>
      </trkpt>
      <trkpt lat="48.57024" lon="-2.77365">
        <ele>38</ele>
        <time>2019-02-22T09:47:44Z</time>
      </trkpt>
      <trkpt lat="48.57021" lon="-2.77361">
        <ele>37</ele>
        <time>2019-02-22T09:47:47Z</time>
      </trkpt>
      <trkpt lat="48.57019" lon="-2.77358">
        <ele>37</ele>
        <time>2019-02-22T09:47:50Z</time>
      </trkpt>
      <trkpt lat="48.57015" lon="-2.77354">
        <ele>36</ele>
        <time>2019-02-22T09:47:53Z</time>
      </trkpt>
      <trkpt lat="48.57011" lon="-2.7735">
        <ele>34</ele>
        <time>2019-02-22T09:47:56Z</time>
      </trkpt>
      <trkpt lat="48.57007" lon="-2.77348">
        <ele>33</ele>
        <time>2019-02-22T09:48:00Z</time>
      </trkpt>
      <trkpt lat="48.57003" lon="-2.77346">
        <ele>32</ele>
        <time>2019-02-22T09:48:04Z</time>
      </trkpt>
      <trkpt lat="48.56999" lon="-2.77343">
        <ele>32</ele>
        <time>2019-02-22T09:48:07Z</time>
      </trkpt>
      <trkpt lat="48.56996" lon="-2.77341">
        <ele>32</ele>
        <time>2019-02-22T09:48:10Z</time>
      </trkpt>
      <trkpt lat="48.56992" lon="-2.77339">
        <ele>32</ele>
        <time>2019-02-22T09:48:13Z</time>
      </trkpt>
      <trkpt lat="48.56989" lon="-2.77338">
        <ele>32</ele>
        <time>2019-02-22T09:48:16Z</time>
      </trkpt>
      <trkpt lat="48.56985" lon="-2.77336">
        <ele>32</ele>
        <time>2019-02-22T09:48:19Z</time>
      </trkpt>
      <trkpt lat="48.56981" lon="-2.77334">
        <ele>31</ele>
        <time>2019-02-22T09:48:22Z</time>
      </trkpt>
      <trkpt lat="48.56977" lon="-2.77332">
        <ele>31</ele>
        <time>2019-02-22T09:48:25Z</time>
      </trkpt>
      <trkpt lat="48.56973" lon="-2.7733">
        <ele>31</ele>
        <time>2019-02-22T09:48:28Z</time>
      </trkpt>
      <trkpt lat="48.56969" lon="-2.77329">
        <ele>31</ele>
        <time>2019-02-22T09:48:31Z</time>
      </trkpt>
      <trkpt lat="48.56966" lon="-2.77327">
        <ele>31</ele>
        <time>2019-02-22T09:48:34Z</time>
      </trkpt>
      <trkpt lat="48.56963" lon="-2.77326">
        <ele>30</ele>
        <time>2019-02-22T09:48:37Z</time>
      </trkpt>
      <trkpt lat="48.56959" lon="-2.77326">
        <ele>30</ele>
        <time>2019-02-22T09:48:40Z</time>
      </trkpt>
      <trkpt lat="48.56955" lon="-2.77325">
        <ele>30</ele>
        <time>2019-02-22T09:48:44Z</time>
      </trkpt>
      <trkpt lat="48.56951" lon="-2.77325">
        <ele>29</ele>
        <time>2019-02-22T09:48:47Z</time>
      </trkpt>
      <trkpt lat="48.56947" lon="-2.77326">
        <ele>28</ele>
        <time>2019-02-22T09:48:51Z</time>
      </trkpt>
      <trkpt lat="48.56942" lon="-2.77329">
        <ele>27</ele>
        <time>2019-02-22T09:48:55Z</time>
      </trkpt>
      <trkpt lat="48.56938" lon="-2.77331">
        <ele>26</ele>
        <time>2019-02-22T09:48:59Z</time>
      </trkpt>
      <trkpt lat="48.56935" lon="-2.77334">
        <ele>26</ele>
        <time>2019-02-22T09:49:03Z</time>
      </trkpt>
      <trkpt lat="48.56932" lon="-2.77336">
        <ele>25</ele>
        <time>2019-02-22T09:49:07Z</time>
      </trkpt>
      <trkpt lat="48.56929" lon="-2.77338">
        <ele>25</ele>
        <time>2019-02-22T09:49:10Z</time>
      </trkpt>
      <trkpt lat="48.56925" lon="-2.7734">
        <ele>24</ele>
        <time>2019-02-22T09:49:13Z</time>
      </trkpt>
      <trkpt lat="48.56922" lon="-2.77343">
        <ele>23</ele>
        <time>2019-02-22T09:49:16Z</time>
      </trkpt>
      <trkpt lat="48.56918" lon="-2.77346">
        <ele>22</ele>
        <time>2019-02-22T09:49:20Z</time>
      </trkpt>
      <trkpt lat="48.56914" lon="-2.77348">
        <ele>22</ele>
        <time>2019-02-22T09:49:24Z</time>
      </trkpt>
      <trkpt lat="48.56911" lon="-2.77345">
        <ele>22</ele>
        <time>2019-02-22T09:49:28Z</time>
      </trkpt>
      <trkpt lat="48.56913" lon="-2.77342">
        <ele>21</ele>
        <time>2019-02-22T09:49:32Z</time>
      </trkpt>
      <trkpt lat="48.56915" lon="-2.77341">
        <ele>21</ele>
        <time>2019-02-22T09:49:37Z</time>
      </trkpt>
      <trkpt lat="48.56918" lon="-2.77338">
        <ele>21</ele>
        <time>2019-02-22T09:49:41Z</time>
      </trkpt>
      <trkpt lat="48.56922" lon="-2.77335">
        <ele>21</ele>
        <time>2019-02-22T09:49:45Z</time>
      </trkpt>
      <trkpt lat="48.56925" lon="-2.77332">
        <ele>21</ele>
        <time>2019-02-22T09:49:49Z</time>
      </trkpt>
      <trkpt lat="48.56929" lon="-2.77329">
        <ele>21</ele>
        <time>2019-02-22T09:49:53Z</time>
      </trkpt>
      <trkpt lat="48.56932" lon="-2.77326">
        <ele>21</ele>
        <time>2019-02-22T09:49:57Z</time>
      </trkpt>
      <trkpt lat="48.56934" lon="-2.77325">
        <ele>21</ele>
        <time>2019-02-22T09:50:00Z</time>
      </trkpt>
      <trkpt lat="48.56938" lon="-2.77322">
        <ele>21</ele>
        <time>2019-02-22T09:50:04Z</time>
      </trkpt>
      <trkpt lat="48.56942" lon="-2.77319">
        <ele>21</ele>
        <time>2019-02-22T09:50:08Z</time>
      </trkpt>
      <trkpt lat="48.56946" lon="-2.77317">
        <ele>21</ele>
        <time>2019-02-22T09:50:11Z</time>
      </trkpt>
      <trkpt lat="48.5695" lon="-2.77315">
        <ele>21</ele>
        <time>2019-02-22T09:50:14Z</time>
      </trkpt>
      <trkpt lat="48.56953" lon="-2.77313">
        <ele>21</ele>
        <time>2019-02-22T09:50:17Z</time>
      </trkpt>
      <trkpt lat="48.56957" lon="-2.77311">
        <ele>21</ele>
        <time>2019-02-22T09:50:20Z</time>
      </trkpt>
      <trkpt lat="48.5696" lon="-2.77309">
        <ele>21</ele>
        <time>2019-02-22T09:50:23Z</time>
      </trkpt>
      <trkpt lat="48.56963" lon="-2.77308">
        <ele>21</ele>
        <time>2019-02-22T09:50:26Z</time>
      </trkpt>
      <trkpt lat="48.56967" lon="-2.77307">
        <ele>21</ele>
        <time>2019-02-22T09:50:29Z</time>
      </trkpt>
      <trkpt lat="48.56971" lon="-2.77306">
        <ele>21</ele>
        <time>2019-02-22T09:50:32Z</time>
      </trkpt>
      <trkpt lat="48.56974" lon="-2.77305">
        <ele>21</ele>
        <time>2019-02-22T09:50:35Z</time>
      </trkpt>
      <trkpt lat="48.56979" lon="-2.77304">
        <ele>21</ele>
        <time>2019-02-22T09:50:38Z</time>
      </trkpt>
      <trkpt lat="48.56982" lon="-2.77303">
        <ele>21</ele>
        <time>2019-02-22T09:50:41Z</time>
      </trkpt>
      <trkpt lat="48.56987" lon="-2.77302">
        <ele>21</ele>
        <time>2019-02-22T09:50:44Z</time>
      </trkpt>
      <trkpt lat="48.5699" lon="-2.773">
        <ele>21</ele>
        <time>2019-02-22T09:50:47Z</time>
      </trkpt>
      <trkpt lat="48.56994" lon="-2.77299">
        <ele>21</ele>
        <time>2019-02-22T09:50:50Z</time>
      </trkpt>
      <trkpt lat="48.56998" lon="-2.77298">
        <ele>21</ele>
        <time>2019-02-22T09:50:53Z</time>
      </trkpt>
      <trkpt lat="48.57002" lon="-2.77297">
        <ele>21</ele>
        <time>2019-02-22T09:50:57Z</time>
      </trkpt>
      <trkpt lat="48.57006" lon="-2.77295">
        <ele>23</ele>
        <time>2019-02-22T09:51:00Z</time>
      </trkpt>
      <trkpt lat="48.5701" lon="-2.77293">
        <ele>25</ele>
        <time>2019-02-22T09:51:04Z</time>
      </trkpt>
      <trkpt lat="48.57013" lon="-2.77291">
        <ele>26</ele>
        <time>2019-02-22T09:51:07Z</time>
      </trkpt>
      <trkpt lat="48.57017" lon="-2.7729">
        <ele>27</ele>
        <time>2019-02-22T09:51:10Z</time>
      </trkpt>
      <trkpt lat="48.5702" lon="-2.77288">
        <ele>28</ele>
        <time>2019-02-22T09:51:13Z</time>
      </trkpt>
      <trkpt lat="48.57024" lon="-2.77287">
        <ele>29</ele>
        <time>2019-02-22T09:51:16Z</time>
      </trkpt>
      <trkpt lat="48.57027" lon="-2.77287">
        <ele>29</ele>
        <time>2019-02-22T09:51:19Z</time>
      </trkpt>
      <trkpt lat="48.57031" lon="-2.77285">
        <ele>29</ele>
        <time>2019-02-22T09:51:23Z</time>
      </trkpt>
      <trkpt lat="48.57035" lon="-2.77285">
        <ele>29</ele>
        <time>2019-02-22T09:51:26Z</time>
      </trkpt>
      <trkpt lat="48.5704" lon="-2.77285">
        <ele>29</ele>
        <time>2019-02-22T09:51:30Z</time>
      </trkpt>
      <trkpt lat="48.57042" lon="-2.77283">
        <ele>28</ele>
        <time>2019-02-22T09:51:33Z</time>
      </trkpt>
      <trkpt lat="48.57047" lon="-2.77283">
        <ele>25</ele>
        <time>2019-02-22T09:51:36Z</time>
      </trkpt>
      <trkpt lat="48.5705" lon="-2.77282">
        <ele>21</ele>
        <time>2019-02-22T09:51:40Z</time>
      </trkpt>
      <trkpt lat="48.57055" lon="-2.7728">
        <ele>19</ele>
        <time>2019-02-22T09:51:44Z</time>
      </trkpt>
      <trkpt lat="48.57058" lon="-2.77278">
        <ele>19</ele>
        <time>2019-02-22T09:51:47Z</time>
      </trkpt>
      <trkpt lat="48.57059" lon="-2.77273">
        <ele>19</ele>
        <time>2019-02-22T09:51:50Z</time>
      </trkpt>
      <trkpt lat="48.57058" lon="-2.77268">
        <ele>19</ele>
        <time>2019-02-22T09:51:53Z</time>
      </trkpt>
      <trkpt lat="48.57059" lon="-2.77263">
        <ele>18</ele>
        <time>2019-02-22T09:51:56Z</time>
      </trkpt>
      <trkpt lat="48.57058" lon="-2.77258">
        <ele>17</ele>
        <time>2019-02-22T09:51:59Z</time>
      </trkpt>
      <trkpt lat="48.57056" lon="-2.77252">
        <ele>16</ele>
        <time>2019-02-22T09:52:03Z</time>
      </trkpt>
      <trkpt lat="48.57055" lon="-2.77246">
        <ele>14</ele>
        <time>2019-02-22T09:52:06Z</time>
      </trkpt>
      <trkpt lat="48.57053" lon="-2.77241">
        <ele>13</ele>
        <time>2019-02-22T09:52:09Z</time>
      </trkpt>
      <trkpt lat="48.57051" lon="-2.77236">
        <ele>12</ele>
        <time>2019-02-22T09:52:12Z</time>
      </trkpt>
      <trkpt lat="48.57049" lon="-2.7723">
        <ele>11</ele>
        <time>2019-02-22T09:52:15Z</time>
      </trkpt>
      <trkpt lat="48.57047" lon="-2.77224">
        <ele>11</ele>
        <time>2019-02-22T09:52:18Z</time>
      </trkpt>
      <trkpt lat="48.57045" lon="-2.77219">
        <ele>10</ele>
        <time>2019-02-22T09:52:21Z</time>
      </trkpt>
      <trkpt lat="48.57043" lon="-2.77214">
        <ele>10</ele>
        <time>2019-02-22T09:52:24Z</time>
      </trkpt>
      <trkpt lat="48.57042" lon="-2.77212">
        <ele>9</ele>
        <time>2019-02-22T09:52:31Z</time>
      </trkpt>
      <trkpt lat="48.57042" lon="-2.77207">
        <ele>9</ele>
        <time>2019-02-22T09:52:34Z</time>
      </trkpt>
      <trkpt lat="48.57039" lon="-2.77201">
        <ele>9</ele>
        <time>2019-02-22T09:52:38Z</time>
      </trkpt>
      <trkpt lat="48.57037" lon="-2.77196">
        <ele>9</ele>
        <time>2019-02-22T09:52:42Z</time>
      </trkpt>
      <trkpt lat="48.57035" lon="-2.77191">
        <ele>9</ele>
        <time>2019-02-22T09:52:46Z</time>
      </trkpt>
      <trkpt lat="48.57033" lon="-2.77186">
        <ele>9</ele>
        <time>2019-02-22T09:52:50Z</time>
      </trkpt>
      <trkpt lat="48.57032" lon="-2.7718">
        <ele>9</ele>
        <time>2019-02-22T09:52:54Z</time>
      </trkpt>
      <trkpt lat="48.5703" lon="-2.77174">
        <ele>9</ele>
        <time>2019-02-22T09:52:58Z</time>
      </trkpt>
      <trkpt lat="48.57028" lon="-2.77168">
        <ele>9</ele>
        <time>2019-02-22T09:53:02Z</time>
      </trkpt>
      <trkpt lat="48.57026" lon="-2.77164">
        <ele>9</ele>
        <time>2019-02-22T09:53:05Z</time>
      </trkpt>
      <trkpt lat="48.57024" lon="-2.77159">
        <ele>9</ele>
        <time>2019-02-22T09:53:08Z</time>
      </trkpt>
      <trkpt lat="48.57021" lon="-2.77154">
        <ele>9</ele>
        <time>2019-02-22T09:53:11Z</time>
      </trkpt>
      <trkpt lat="48.57019" lon="-2.77148">
        <ele>9</ele>
        <time>2019-02-22T09:53:15Z</time>
      </trkpt>
      <trkpt lat="48.57016" lon="-2.77143">
        <ele>9</ele>
        <time>2019-02-22T09:53:18Z</time>
      </trkpt>
      <trkpt lat="48.57014" lon="-2.77138">
        <ele>9</ele>
        <time>2019-02-22T09:53:21Z</time>
      </trkpt>
      <trkpt lat="48.57013" lon="-2.77134">
        <ele>9</ele>
        <time>2019-02-22T09:53:24Z</time>
      </trkpt>
      <trkpt lat="48.57012" lon="-2.7713">
        <ele>9</ele>
        <time>2019-02-22T09:53:28Z</time>
      </trkpt>
      <trkpt lat="48.57011" lon="-2.77125">
        <ele>9</ele>
        <time>2019-02-22T09:53:31Z</time>
      </trkpt>
      <trkpt lat="48.57009" lon="-2.7712">
        <ele>9</ele>
        <time>2019-02-22T09:53:34Z</time>
      </trkpt>
      <trkpt lat="48.57007" lon="-2.77115">
        <ele>9</ele>
        <time>2019-02-22T09:53:37Z</time>
      </trkpt>
      <trkpt lat="48.57006" lon="-2.7711">
        <ele>9</ele>
        <time>2019-02-22T09:53:40Z</time>
      </trkpt>
      <trkpt lat="48.57004" lon="-2.77104">
        <ele>9</ele>
        <time>2019-02-22T09:53:43Z</time>
      </trkpt>
      <trkpt lat="48.57002" lon="-2.771">
        <ele>9</ele>
        <time>2019-02-22T09:53:46Z</time>
      </trkpt>
      <trkpt lat="48.56999" lon="-2.77094">
        <ele>9</ele>
        <time>2019-02-22T09:53:50Z</time>
      </trkpt>
      <trkpt lat="48.56997" lon="-2.77088">
        <ele>9</ele>
        <time>2019-02-22T09:53:53Z</time>
      </trkpt>
      <trkpt lat="48.56996" lon="-2.77086">
        <ele>9</ele>
        <time>2019-02-22T09:53:56Z</time>
      </trkpt>
      <trkpt lat="48.56993" lon="-2.77082">
        <ele>9</ele>
        <time>2019-02-22T09:53:59Z</time>
      </trkpt>
      <trkpt lat="48.56991" lon="-2.77077">
        <ele>9</ele>
        <time>2019-02-22T09:54:02Z</time>
      </trkpt>
      <trkpt lat="48.56988" lon="-2.77072">
        <ele>9</ele>
        <time>2019-02-22T09:54:05Z</time>
      </trkpt>
      <trkpt lat="48.56986" lon="-2.77066">
        <ele>9</ele>
        <time>2019-02-22T09:54:08Z</time>
      </trkpt>
      <trkpt lat="48.56984" lon="-2.77061">
        <ele>9</ele>
        <time>2019-02-22T09:54:11Z</time>
      </trkpt>
      <trkpt lat="48.56982" lon="-2.77055">
        <ele>9</ele>
        <time>2019-02-22T09:54:14Z</time>
      </trkpt>
      <trkpt lat="48.5698" lon="-2.77049">
        <ele>9</ele>
        <time>2019-02-22T09:54:17Z</time>
      </trkpt>
      <trkpt lat="48.56978" lon="-2.77044">
        <ele>8</ele>
        <time>2019-02-22T09:54:20Z</time>
      </trkpt>
      <trkpt lat="48.56976" lon="-2.77039">
        <ele>8</ele>
        <time>2019-02-22T09:54:23Z</time>
      </trkpt>
      <trkpt lat="48.56975" lon="-2.77033">
        <ele>8</ele>
        <time>2019-02-22T09:54:26Z</time>
      </trkpt>
      <trkpt lat="48.56973" lon="-2.77028">
        <ele>8</ele>
        <time>2019-02-22T09:54:29Z</time>
      </trkpt>
      <trkpt lat="48.56972" lon="-2.77022">
        <ele>8</ele>
        <time>2019-02-22T09:54:32Z</time>
      </trkpt>
      <trkpt lat="48.56971" lon="-2.77016">
        <ele>8</ele>
        <time>2019-02-22T09:54:35Z</time>
      </trkpt>
      <trkpt lat="48.56969" lon="-2.7701">
        <ele>8</ele>
        <time>2019-02-22T09:54:38Z</time>
      </trkpt>
      <trkpt lat="48.56967" lon="-2.77005">
        <ele>8</ele>
        <time>2019-02-22T09:54:41Z</time>
      </trkpt>
      <trkpt lat="48.56966" lon="-2.76999">
        <ele>8</ele>
        <time>2019-02-22T09:54:44Z</time>
      </trkpt>
      <trkpt lat="48.56964" lon="-2.76994">
        <ele>7</ele>
        <time>2019-02-22T09:54:47Z</time>
      </trkpt>
      <trkpt lat="48.56962" lon="-2.7699">
        <ele>7</ele>
        <time>2019-02-22T09:54:50Z</time>
      </trkpt>
      <trkpt lat="48.56959" lon="-2.76983">
        <ele>7</ele>
        <time>2019-02-22T09:54:54Z</time>
      </trkpt>
      <trkpt lat="48.56956" lon="-2.76977">
        <ele>7</ele>
        <time>2019-02-22T09:54:58Z</time>
      </trkpt>
      <trkpt lat="48.56952" lon="-2.76972">
        <ele>7</ele>
        <time>2019-02-22T09:55:02Z</time>
      </trkpt>
      <trkpt lat="48.56949" lon="-2.76969">
        <ele>7</ele>
        <time>2019-02-22T09:55:06Z</time>
      </trkpt>
      <trkpt lat="48.56948" lon="-2.76966">
        <ele>7</ele>
        <time>2019-02-22T09:55:13Z</time>
      </trkpt>
      <trkpt lat="48.56945" lon="-2.76962">
        <ele>7</ele>
        <time>2019-02-22T09:55:16Z</time>
      </trkpt>
      <trkpt lat="48.56944" lon="-2.76958">
        <ele>7</ele>
        <time>2019-02-22T09:55:19Z</time>
      </trkpt>
      <trkpt lat="48.56942" lon="-2.76953">
        <ele>7</ele>
        <time>2019-02-22T09:55:23Z</time>
      </trkpt>
      <trkpt lat="48.5694" lon="-2.76952">
        <ele>7</ele>
        <time>2019-02-22T09:55:41Z</time>
      </trkpt>
      <trkpt lat="48.56938" lon="-2.76947">
        <ele>7</ele>
        <time>2019-02-22T09:55:44Z</time>
      </trkpt>
      <trkpt lat="48.56936" lon="-2.76942">
        <ele>7</ele>
        <time>2019-02-22T09:55:48Z</time>
      </trkpt>
      <trkpt lat="48.56935" lon="-2.76938">
        <ele>7</ele>
        <time>2019-02-22T09:55:51Z</time>
      </trkpt>
      <trkpt lat="48.56934" lon="-2.76933">
        <ele>7</ele>
        <time>2019-02-22T09:55:54Z</time>
      </trkpt>
      <trkpt lat="48.56933" lon="-2.76927">
        <ele>7</ele>
        <time>2019-02-22T09:55:58Z</time>
      </trkpt>
      <trkpt lat="48.56931" lon="-2.76922">
        <ele>7</ele>
        <time>2019-02-22T09:56:01Z</time>
      </trkpt>
      <trkpt lat="48.56929" lon="-2.76916">
        <ele>7</ele>
        <time>2019-02-22T09:56:05Z</time>
      </trkpt>
      <trkpt lat="48.56926" lon="-2.7691">
        <ele>7</ele>
        <time>2019-02-22T09:56:09Z</time>
      </trkpt>
      <trkpt lat="48.56925" lon="-2.76906">
        <ele>7</ele>
        <time>2019-02-22T09:56:12Z</time>
      </trkpt>
      <trkpt lat="48.56923" lon="-2.76902">
        <ele>7</ele>
        <time>2019-02-22T09:56:15Z</time>
      </trkpt>
      <trkpt lat="48.5692" lon="-2.76895">
        <ele>7</ele>
        <time>2019-02-22T09:56:19Z</time>
      </trkpt>
      <trkpt lat="48.56917" lon="-2.76889">
        <ele>7</ele>
        <time>2019-02-22T09:56:23Z</time>
      </trkpt>
      <trkpt lat="48.56914" lon="-2.76884">
        <ele>7</ele>
        <time>2019-02-22T09:56:27Z</time>
      </trkpt>
      <trkpt lat="48.56911" lon="-2.76878">
        <ele>7</ele>
        <time>2019-02-22T09:56:31Z</time>
      </trkpt>
      <trkpt lat="48.56908" lon="-2.76875">
        <ele>7</ele>
        <time>2019-02-22T09:56:35Z</time>
      </trkpt>
      <trkpt lat="48.56906" lon="-2.7687">
        <ele>7</ele>
        <time>2019-02-22T09:56:39Z</time>
      </trkpt>
      <trkpt lat="48.56902" lon="-2.76867">
        <ele>7</ele>
        <time>2019-02-22T09:56:43Z</time>
      </trkpt>
      <trkpt lat="48.56898" lon="-2.76864">
        <ele>7</ele>
        <time>2019-02-22T09:56:47Z</time>
      </trkpt>
      <trkpt lat="48.56896" lon="-2.76859">
        <ele>7</ele>
        <time>2019-02-22T09:56:50Z</time>
      </trkpt>
      <trkpt lat="48.56894" lon="-2.76854">
        <ele>7</ele>
        <time>2019-02-22T09:56:54Z</time>
      </trkpt>
      <trkpt lat="48.56893" lon="-2.7685">
        <ele>7</ele>
        <time>2019-02-22T09:56:58Z</time>
      </trkpt>
      <trkpt lat="48.56891" lon="-2.76845">
        <ele>7</ele>
        <time>2019-02-22T09:57:02Z</time>
      </trkpt>
      <trkpt lat="48.56889" lon="-2.76839">
        <ele>7</ele>
        <time>2019-02-22T09:57:06Z</time>
      </trkpt>
      <trkpt lat="48.56887" lon="-2.76833">
        <ele>7</ele>
        <time>2019-02-22T09:57:10Z</time>
      </trkpt>
      <trkpt lat="48.56885" lon="-2.76829">
        <ele>7</ele>
        <time>2019-02-22T09:57:14Z</time>
      </trkpt>
      <trkpt lat="48.56884" lon="-2.76824">
        <ele>7</ele>
        <time>2019-02-22T09:57:17Z</time>
      </trkpt>
      <trkpt lat="48.56883" lon="-2.76818">
        <ele>7</ele>
        <time>2019-02-22T09:57:21Z</time>
      </trkpt>
      <trkpt lat="48.56882" lon="-2.76814">
        <ele>7</ele>
        <time>2019-02-22T09:57:24Z</time>
      </trkpt>
      <trkpt lat="48.56882" lon="-2.76809">
        <ele>7</ele>
        <time>2019-02-22T09:57:27Z</time>
      </trkpt>
      <trkpt lat="48.56882" lon="-2.76803">
        <ele>7</ele>
        <time>2019-02-22T09:57:30Z</time>
      </trkpt>
      <trkpt lat="48.56882" lon="-2.76798">
        <ele>7</ele>
        <time>2019-02-22T09:57:33Z</time>
      </trkpt>
      <trkpt lat="48.56882" lon="-2.76792">
        <ele>7</ele>
        <time>2019-02-22T09:57:36Z</time>
      </trkpt>
      <trkpt lat="48.56882" lon="-2.76787">
        <ele>7</ele>
        <time>2019-02-22T09:57:39Z</time>
      </trkpt>
      <trkpt lat="48.56881" lon="-2.76782">
        <ele>7</ele>
        <time>2019-02-22T09:57:42Z</time>
      </trkpt>
      <trkpt lat="48.56879" lon="-2.76777">
        <ele>7</ele>
        <time>2019-02-22T09:57:45Z</time>
      </trkpt>
      <trkpt lat="48.56878" lon="-2.76772">
        <ele>7</ele>
        <time>2019-02-22T09:57:49Z</time>
      </trkpt>
      <trkpt lat="48.56877" lon="-2.76767">
        <ele>7</ele>
        <time>2019-02-22T09:57:52Z</time>
      </trkpt>
      <trkpt lat="48.56876" lon="-2.76762">
        <ele>7</ele>
        <time>2019-02-22T09:57:55Z</time>
      </trkpt>
      <trkpt lat="48.56874" lon="-2.76756">
        <ele>7</ele>
        <time>2019-02-22T09:57:59Z</time>
      </trkpt>
      <trkpt lat="48.56873" lon="-2.76751">
        <ele>7</ele>
        <time>2019-02-22T09:58:02Z</time>
      </trkpt>
      <trkpt lat="48.56871" lon="-2.76746">
        <ele>7</ele>
        <time>2019-02-22T09:58:05Z</time>
      </trkpt>
      <trkpt lat="48.5687" lon="-2.76743">
        <ele>7</ele>
        <time>2019-02-22T09:58:09Z</time>
      </trkpt>
      <trkpt lat="48.56868" lon="-2.76738">
        <ele>7</ele>
        <time>2019-02-22T09:58:12Z</time>
      </trkpt>
      <trkpt lat="48.56866" lon="-2.76733">
        <ele>7</ele>
        <time>2019-02-22T09:58:15Z</time>
      </trkpt>
      <trkpt lat="48.56865" lon="-2.76729">
        <ele>7</ele>
        <time>2019-02-22T09:58:18Z</time>
      </trkpt>
      <trkpt lat="48.56863" lon="-2.76724">
        <ele>7</ele>
        <time>2019-02-22T09:58:22Z</time>
      </trkpt>
      <trkpt lat="48.56861" lon="-2.76719">
        <ele>7</ele>
        <time>2019-02-22T09:58:25Z</time>
      </trkpt>
      <trkpt lat="48.56859" lon="-2.76715">
        <ele>7</ele>
        <time>2019-02-22T09:58:28Z</time>
      </trkpt>
      <trkpt lat="48.56856" lon="-2.76711">
        <ele>7</ele>
        <time>2019-02-22T09:58:32Z</time>
      </trkpt>
      <trkpt lat="48.56854" lon="-2.76707">
        <ele>7</ele>
        <time>2019-02-22T09:58:36Z</time>
      </trkpt>
      <trkpt lat="48.56853" lon="-2.76702">
        <ele>7</ele>
        <time>2019-02-22T09:58:39Z</time>
      </trkpt>
      <trkpt lat="48.56852" lon="-2.76697">
        <ele>7</ele>
        <time>2019-02-22T09:58:42Z</time>
      </trkpt>
      <trkpt lat="48.5685" lon="-2.76692">
        <ele>7</ele>
        <time>2019-02-22T09:58:45Z</time>
      </trkpt>
      <trkpt lat="48.56849" lon="-2.76687">
        <ele>7</ele>
        <time>2019-02-22T09:58:48Z</time>
      </trkpt>
      <trkpt lat="48.56846" lon="-2.76682">
        <ele>7</ele>
        <time>2019-02-22T09:58:51Z</time>
      </trkpt>
      <trkpt lat="48.56844" lon="-2.76677">
        <ele>7</ele>
        <time>2019-02-22T09:58:54Z</time>
      </trkpt>
      <trkpt lat="48.56842" lon="-2.76672">
        <ele>7</ele>
        <time>2019-02-22T09:58:57Z</time>
      </trkpt>
      <trkpt lat="48.56838" lon="-2.76666">
        <ele>7</ele>
        <time>2019-02-22T09:59:01Z</time>
      </trkpt>
      <trkpt lat="48.56836" lon="-2.76661">
        <ele>7</ele>
        <time>2019-02-22T09:59:04Z</time>
      </trkpt>
      <trkpt lat="48.56834" lon="-2.76656">
        <ele>7</ele>
        <time>2019-02-22T09:59:07Z</time>
      </trkpt>
      <trkpt lat="48.56831" lon="-2.76651">
        <ele>7</ele>
        <time>2019-02-22T09:59:10Z</time>
      </trkpt>
      <trkpt lat="48.56829" lon="-2.76645">
        <ele>7</ele>
        <time>2019-02-22T09:59:13Z</time>
      </trkpt>
      <trkpt lat="48.56826" lon="-2.7664">
        <ele>7</ele>
        <time>2019-02-22T09:59:16Z</time>
      </trkpt>
      <trkpt lat="48.56824" lon="-2.76635">
        <ele>7</ele>
        <time>2019-02-22T09:59:19Z</time>
      </trkpt>
      <trkpt lat="48.56822" lon="-2.76629">
        <ele>7</ele>
        <time>2019-02-22T09:59:22Z</time>
      </trkpt>
      <trkpt lat="48.5682" lon="-2.76624">
        <ele>7</ele>
        <time>2019-02-22T09:59:25Z</time>
      </trkpt>
      <trkpt lat="48.56818" lon="-2.76619">
        <ele>7</ele>
        <time>2019-02-22T09:59:28Z</time>
      </trkpt>
      <trkpt lat="48.56816" lon="-2.76613">
        <ele>7</ele>
        <time>2019-02-22T09:59:31Z</time>
      </trkpt>
      <trkpt lat="48.56813" lon="-2.76607">
        <ele>7</ele>
        <time>2019-02-22T09:59:35Z</time>
      </trkpt>
      <trkpt lat="48.56811" lon="-2.76602">
        <ele>7</ele>
        <time>2019-02-22T09:59:38Z</time>
      </trkpt>
      <trkpt lat="48.56809" lon="-2.76597">
        <ele>7</ele>
        <time>2019-02-22T09:59:41Z</time>
      </trkpt>
      <trkpt lat="48.56807" lon="-2.76591">
        <ele>7</ele>
        <time>2019-02-22T09:59:44Z</time>
      </trkpt>
      <trkpt lat="48.56805" lon="-2.76586">
        <ele>7</ele>
        <time>2019-02-22T09:59:47Z</time>
      </trkpt>
      <trkpt lat="48.56802" lon="-2.76581">
        <ele>7</ele>
        <time>2019-02-22T09:59:50Z</time>
      </trkpt>
      <trkpt lat="48.568" lon="-2.76575">
        <ele>7</ele>
        <time>2019-02-22T09:59:53Z</time>
      </trkpt>
      <trkpt lat="48.56798" lon="-2.7657">
        <ele>7</ele>
        <time>2019-02-22T09:59:56Z</time>
      </trkpt>
      <trkpt lat="48.56797" lon="-2.76565">
        <ele>7</ele>
        <time>2019-02-22T09:59:59Z</time>
      </trkpt>
      <trkpt lat="48.56795" lon="-2.76559">
        <ele>7</ele>
        <time>2019-02-22T10:00:02Z</time>
      </trkpt>
      <trkpt lat="48.56793" lon="-2.76554">
        <ele>7</ele>
        <time>2019-02-22T10:00:05Z</time>
      </trkpt>
      <trkpt lat="48.56792" lon="-2.76548">
        <ele>7</ele>
        <time>2019-02-22T10:00:08Z</time>
      </trkpt>
      <trkpt lat="48.56791" lon="-2.76543">
        <ele>7</ele>
        <time>2019-02-22T10:00:11Z</time>
      </trkpt>
      <trkpt lat="48.56788" lon="-2.76537">
        <ele>7</ele>
        <time>2019-02-22T10:00:15Z</time>
      </trkpt>
      <trkpt lat="48.56786" lon="-2.76533">
        <ele>7</ele>
        <time>2019-02-22T10:00:18Z</time>
      </trkpt>
      <trkpt lat="48.56784" lon="-2.76527">
        <ele>7</ele>
        <time>2019-02-22T10:00:22Z</time>
      </trkpt>
      <trkpt lat="48.56783" lon="-2.76521">
        <ele>7</ele>
        <time>2019-02-22T10:00:26Z</time>
      </trkpt>
      <trkpt lat="48.56782" lon="-2.76516">
        <ele>7</ele>
        <time>2019-02-22T10:00:30Z</time>
      </trkpt>
      <trkpt lat="48.56782" lon="-2.76511">
        <ele>7</ele>
        <time>2019-02-22T10:00:34Z</time>
      </trkpt>
      <trkpt lat="48.56782" lon="-2.7651">
        <ele>7</ele>
        <time>2019-02-22T10:00:37Z</time>
      </trkpt>
      <trkpt lat="48.56781" lon="-2.76508">
        <ele>7</ele>
        <time>2019-02-22T10:00:41Z</time>
      </trkpt>
      <trkpt lat="48.5678" lon="-2.76506">
        <ele>7</ele>
        <time>2019-02-22T10:00:45Z</time>
      </trkpt>
      <trkpt lat="48.56783" lon="-2.76504">
        <ele>7</ele>
        <time>2019-02-22T10:00:49Z</time>
      </trkpt>
      <trkpt lat="48.56787" lon="-2.76502">
        <ele>7</ele>
        <time>2019-02-22T10:00:53Z</time>
      </trkpt>
      <trkpt lat="48.56789" lon="-2.76498">
        <ele>7</ele>
        <time>2019-02-22T10:00:56Z</time>
      </trkpt>
      <trkpt lat="48.56789" lon="-2.76491">
        <ele>7</ele>
        <time>2019-02-22T10:00:59Z</time>
      </trkpt>
      <trkpt lat="48.56787" lon="-2.76486">
        <ele>6</ele>
        <time>2019-02-22T10:01:02Z</time>
      </trkpt>
      <trkpt lat="48.56784" lon="-2.76483">
        <ele>6</ele>
        <time>2019-02-22T10:01:05Z</time>
      </trkpt>
      <trkpt lat="48.56781" lon="-2.7648">
        <ele>6</ele>
        <time>2019-02-22T10:01:09Z</time>
      </trkpt>
      <trkpt lat="48.56777" lon="-2.76479">
        <ele>6</ele>
        <time>2019-02-22T10:01:13Z</time>
      </trkpt>
      <trkpt lat="48.56774" lon="-2.76478">
        <ele>6</ele>
        <time>2019-02-22T10:01:16Z</time>
      </trkpt>
      <trkpt lat="48.5677" lon="-2.76479">
        <ele>6</ele>
        <time>2019-02-22T10:01:20Z</time>
      </trkpt>
      <trkpt lat="48.56767" lon="-2.7648">
        <ele>6</ele>
        <time>2019-02-22T10:01:23Z</time>
      </trkpt>
      <trkpt lat="48.56764" lon="-2.76482">
        <ele>6</ele>
        <time>2019-02-22T10:01:26Z</time>
      </trkpt>
      <trkpt lat="48.5676" lon="-2.76484">
        <ele>6</ele>
        <time>2019-02-22T10:01:29Z</time>
      </trkpt>
      <trkpt lat="48.56757" lon="-2.76485">
        <ele>6</ele>
        <time>2019-02-22T10:01:32Z</time>
      </trkpt>
      <trkpt lat="48.56753" lon="-2.76486">
        <ele>6</ele>
        <time>2019-02-22T10:01:35Z</time>
      </trkpt>
      <trkpt lat="48.56749" lon="-2.76488">
        <ele>6</ele>
        <time>2019-02-22T10:01:38Z</time>
      </trkpt>
      <trkpt lat="48.56745" lon="-2.76487">
        <ele>6</ele>
        <time>2019-02-22T10:01:41Z</time>
      </trkpt>
      <trkpt lat="48.56741" lon="-2.76487">
        <ele>6</ele>
        <time>2019-02-22T10:01:44Z</time>
      </trkpt>
      <trkpt lat="48.56737" lon="-2.76485">
        <ele>6</ele>
        <time>2019-02-22T10:01:47Z</time>
      </trkpt>
      <trkpt lat="48.56733" lon="-2.76483">
        <ele>6</ele>
        <time>2019-02-22T10:01:50Z</time>
      </trkpt>
      <trkpt lat="48.56729" lon="-2.76481">
        <ele>6</ele>
        <time>2019-02-22T10:01:53Z</time>
      </trkpt>
      <trkpt lat="48.56725" lon="-2.76478">
        <ele>6</ele>
        <time>2019-02-22T10:01:56Z</time>
      </trkpt>
      <trkpt lat="48.56721" lon="-2.76473">
        <ele>6</ele>
        <time>2019-02-22T10:01:59Z</time>
      </trkpt>
      <trkpt lat="48.56718" lon="-2.76469">
        <ele>6</ele>
        <time>2019-02-22T10:02:02Z</time>
      </trkpt>
      <trkpt lat="48.56715" lon="-2.76466">
        <ele>6</ele>
        <time>2019-02-22T10:02:05Z</time>
      </trkpt>
      <trkpt lat="48.56711" lon="-2.76463">
        <ele>6</ele>
        <time>2019-02-22T10:02:08Z</time>
      </trkpt>
      <trkpt lat="48.56707" lon="-2.76459">
        <ele>6</ele>
        <time>2019-02-22T10:02:11Z</time>
      </trkpt>
      <trkpt lat="48.56703" lon="-2.76454">
        <ele>6</ele>
        <time>2019-02-22T10:02:15Z</time>
      </trkpt>
      <trkpt lat="48.56699" lon="-2.76448">
        <ele>6</ele>
        <time>2019-02-22T10:02:19Z</time>
      </trkpt>
      <trkpt lat="48.56696" lon="-2.76444">
        <ele>6</ele>
        <time>2019-02-22T10:02:22Z</time>
      </trkpt>
      <trkpt lat="48.56692" lon="-2.76439">
        <ele>6</ele>
        <time>2019-02-22T10:02:25Z</time>
      </trkpt>
      <trkpt lat="48.5669" lon="-2.76434">
        <ele>6</ele>
        <time>2019-02-22T10:02:28Z</time>
      </trkpt>
      <trkpt lat="48.56687" lon="-2.76429">
        <ele>6</ele>
        <time>2019-02-22T10:02:31Z</time>
      </trkpt>
      <trkpt lat="48.56684" lon="-2.76423">
        <ele>6</ele>
        <time>2019-02-22T10:02:34Z</time>
      </trkpt>
      <trkpt lat="48.56682" lon="-2.76418">
        <ele>6</ele>
        <time>2019-02-22T10:02:37Z</time>
      </trkpt>
      <trkpt lat="48.56679" lon="-2.76413">
        <ele>6</ele>
        <time>2019-02-22T10:02:40Z</time>
      </trkpt>
      <trkpt lat="48.56677" lon="-2.76408">
        <ele>6</ele>
        <time>2019-02-22T10:02:43Z</time>
      </trkpt>
      <trkpt lat="48.56674" lon="-2.76402">
        <ele>6</ele>
        <time>2019-02-22T10:02:46Z</time>
      </trkpt>
      <trkpt lat="48.56672" lon="-2.76397">
        <ele>6</ele>
        <time>2019-02-22T10:02:49Z</time>
      </trkpt>
      <trkpt lat="48.5667" lon="-2.76391">
        <ele>6</ele>
        <time>2019-02-22T10:02:52Z</time>
      </trkpt>
      <trkpt lat="48.56667" lon="-2.76386">
        <ele>6</ele>
        <time>2019-02-22T10:02:55Z</time>
      </trkpt>
      <trkpt lat="48.56665" lon="-2.76381">
        <ele>6</ele>
        <time>2019-02-22T10:02:58Z</time>
      </trkpt>
      <trkpt lat="48.56663" lon="-2.76375">
        <ele>6</ele>
        <time>2019-02-22T10:03:01Z</time>
      </trkpt>
      <trkpt lat="48.56661" lon="-2.76369">
        <ele>6</ele>
        <time>2019-02-22T10:03:04Z</time>
      </trkpt>
      <trkpt lat="48.56659" lon="-2.76363">
        <ele>6</ele>
        <time>2019-02-22T10:03:07Z</time>
      </trkpt>
      <trkpt lat="48.56657" lon="-2.76358">
        <ele>6</ele>
        <time>2019-02-22T10:03:10Z</time>
      </trkpt>
      <trkpt lat="48.56655" lon="-2.76352">
        <ele>6</ele>
        <time>2019-02-22T10:03:13Z</time>
      </trkpt>
      <trkpt lat="48.56653" lon="-2.76346">
        <ele>6</ele>
        <time>2019-02-22T10:03:16Z</time>
      </trkpt>
      <trkpt lat="48.56652" lon="-2.76341">
        <ele>6</ele>
        <time>2019-02-22T10:03:19Z</time>
      </trkpt>
      <trkpt lat="48.56649" lon="-2.76335">
        <ele>6</ele>
        <time>2019-02-22T10:03:22Z</time>
      </trkpt>
      <trkpt lat="48.56647" lon="-2.7633">
        <ele>6</ele>
        <time>2019-02-22T10:03:25Z</time>
      </trkpt>
      <trkpt lat="48.56645" lon="-2.76325">
        <ele>6</ele>
        <time>2019-02-22T10:03:28Z</time>
      </trkpt>
      <trkpt lat="48.56643" lon="-2.76318">
        <ele>6</ele>
        <time>2019-02-22T10:03:32Z</time>
      </trkpt>
      <trkpt lat="48.56641" lon="-2.76312">
        <ele>6</ele>
        <time>2019-02-22T10:03:35Z</time>
      </trkpt>
      <trkpt lat="48.56639" lon="-2.76307">
        <ele>6</ele>
        <time>2019-02-22T10:03:38Z</time>
      </trkpt>
      <trkpt lat="48.56637" lon="-2.76301">
        <ele>6</ele>
        <time>2019-02-22T10:03:41Z</time>
      </trkpt>
      <trkpt lat="48.56635" lon="-2.76295">
        <ele>6</ele>
        <time>2019-02-22T10:03:44Z</time>
      </trkpt>
      <trkpt lat="48.56633" lon="-2.7629">
        <ele>6</ele>
        <time>2019-02-22T10:03:47Z</time>
      </trkpt>
      <trkpt lat="48.56631" lon="-2.76284">
        <ele>7</ele>
        <time>2019-02-22T10:03:50Z</time>
      </trkpt>
      <trkpt lat="48.56629" lon="-2.76278">
        <ele>7</ele>
        <time>2019-02-22T10:03:53Z</time>
      </trkpt>
      <trkpt lat="48.56628" lon="-2.76273">
        <ele>7</ele>
        <time>2019-02-22T10:03:56Z</time>
      </trkpt>
      <trkpt lat="48.56627" lon="-2.76267">
        <ele>7</ele>
        <time>2019-02-22T10:03:59Z</time>
      </trkpt>
      <trkpt lat="48.56625" lon="-2.7626">
        <ele>7</ele>
        <time>2019-02-22T10:04:03Z</time>
      </trkpt>
      <trkpt lat="48.56623" lon="-2.76255">
        <ele>7</ele>
        <time>2019-02-22T10:04:06Z</time>
      </trkpt>
      <trkpt lat="48.5662" lon="-2.76253">
        <ele>7</ele>
        <time>2019-02-22T10:04:09Z</time>
      </trkpt>
      <trkpt lat="48.56618" lon="-2.76257">
        <ele>7</ele>
        <time>2019-02-22T10:04:12Z</time>
      </trkpt>
      <trkpt lat="48.56617" lon="-2.76263">
        <ele>7</ele>
        <time>2019-02-22T10:04:15Z</time>
      </trkpt>
      <trkpt lat="48.56617" lon="-2.76269">
        <ele>7</ele>
        <time>2019-02-22T10:04:18Z</time>
      </trkpt>
      <trkpt lat="48.56618" lon="-2.76274">
        <ele>7</ele>
        <time>2019-02-22T10:04:21Z</time>
      </trkpt>
      <trkpt lat="48.56618" lon="-2.76278">
        <ele>7</ele>
        <time>2019-02-22T10:04:24Z</time>
      </trkpt>
      <trkpt lat="48.56618" lon="-2.7628">
        <ele>9</ele>
        <time>2019-02-22T10:04:36Z</time>
      </trkpt>
      <trkpt lat="48.56616" lon="-2.76283">
        <ele>9</ele>
        <time>2019-02-22T10:04:39Z</time>
      </trkpt>
      <trkpt lat="48.56613" lon="-2.76284">
        <ele>9</ele>
        <time>2019-02-22T10:04:44Z</time>
      </trkpt>
      <trkpt lat="48.56612" lon="-2.76282">
        <ele>9</ele>
        <time>2019-02-22T10:04:47Z</time>
      </trkpt>
      <trkpt lat="48.5661" lon="-2.76278">
        <ele>9</ele>
        <time>2019-02-22T10:04:51Z</time>
      </trkpt>
      <trkpt lat="48.56608" lon="-2.76272">
        <ele>9</ele>
        <time>2019-02-22T10:04:55Z</time>
      </trkpt>
      <trkpt lat="48.56605" lon="-2.76267">
        <ele>10</ele>
        <time>2019-02-22T10:04:59Z</time>
      </trkpt>
      <trkpt lat="48.56602" lon="-2.76262">
        <ele>10</ele>
        <time>2019-02-22T10:05:03Z</time>
      </trkpt>
      <trkpt lat="48.56599" lon="-2.76263">
        <ele>10</ele>
        <time>2019-02-22T10:05:07Z</time>
      </trkpt>
      <trkpt lat="48.56598" lon="-2.76267">
        <ele>10</ele>
        <time>2019-02-22T10:05:11Z</time>
      </trkpt>
      <trkpt lat="48.56598" lon="-2.76273">
        <ele>10</ele>
        <time>2019-02-22T10:05:15Z</time>
      </trkpt>
      <trkpt lat="48.56598" lon="-2.76277">
        <ele>10</ele>
        <time>2019-02-22T10:05:19Z</time>
      </trkpt>
      <trkpt lat="48.56597" lon="-2.76282">
        <ele>11</ele>
        <time>2019-02-22T10:05:23Z</time>
      </trkpt>
      <trkpt lat="48.56594" lon="-2.76284">
        <ele>11</ele>
        <time>2019-02-22T10:05:26Z</time>
      </trkpt>
      <trkpt lat="48.56589" lon="-2.76284">
        <ele>12</ele>
        <time>2019-02-22T10:05:30Z</time>
      </trkpt>
      <trkpt lat="48.56586" lon="-2.76286">
        <ele>12</ele>
        <time>2019-02-22T10:05:33Z</time>
      </trkpt>
      <trkpt lat="48.56582" lon="-2.76287">
        <ele>13</ele>
        <time>2019-02-22T10:05:36Z</time>
      </trkpt>
      <trkpt lat="48.56578" lon="-2.7629">
        <ele>13</ele>
        <time>2019-02-22T10:05:40Z</time>
      </trkpt>
      <trkpt lat="48.56575" lon="-2.76294">
        <ele>14</ele>
        <time>2019-02-22T10:05:44Z</time>
      </trkpt>
      <trkpt lat="48.56573" lon="-2.76298">
        <ele>14</ele>
        <time>2019-02-22T10:05:47Z</time>
      </trkpt>
      <trkpt lat="48.56573" lon="-2.76304">
        <ele>15</ele>
        <time>2019-02-22T10:05:50Z</time>
      </trkpt>
      <trkpt lat="48.56573" lon="-2.76309">
        <ele>15</ele>
        <time>2019-02-22T10:05:53Z</time>
      </trkpt>
      <trkpt lat="48.56573" lon="-2.76315">
        <ele>15</ele>
        <time>2019-02-22T10:05:56Z</time>
      </trkpt>
      <trkpt lat="48.56574" lon="-2.76318">
        <ele>15</ele>
        <time>2019-02-22T10:05:59Z</time>
      </trkpt>
      <trkpt lat="48.56575" lon="-2.76321">
        <ele>15</ele>
        <time>2019-02-22T10:06:03Z</time>
      </trkpt>
      <trkpt lat="48.56575" lon="-2.76327">
        <ele>16</ele>
        <time>2019-02-22T10:06:06Z</time>
      </trkpt>
      <trkpt lat="48.56572" lon="-2.76332">
        <ele>16</ele>
        <time>2019-02-22T10:06:10Z</time>
      </trkpt>
      <trkpt lat="48.56569" lon="-2.76335">
        <ele>17</ele>
        <time>2019-02-22T10:06:14Z</time>
      </trkpt>
      <trkpt lat="48.56565" lon="-2.76337">
        <ele>17</ele>
        <time>2019-02-22T10:06:18Z</time>
      </trkpt>
      <trkpt lat="48.56562" lon="-2.76339">
        <ele>18</ele>
        <time>2019-02-22T10:06:21Z</time>
      </trkpt>
      <trkpt lat="48.56559" lon="-2.7634">
        <ele>18</ele>
        <time>2019-02-22T10:06:24Z</time>
      </trkpt>
      <trkpt lat="48.56554" lon="-2.76341">
        <ele>19</ele>
        <time>2019-02-22T10:06:28Z</time>
      </trkpt>
      <trkpt lat="48.56551" lon="-2.76343">
        <ele>20</ele>
        <time>2019-02-22T10:06:31Z</time>
      </trkpt>
      <trkpt lat="48.56547" lon="-2.76346">
        <ele>21</ele>
        <time>2019-02-22T10:06:35Z</time>
      </trkpt>
      <trkpt lat="48.56546" lon="-2.76351">
        <ele>22</ele>
        <time>2019-02-22T10:06:39Z</time>
      </trkpt>
      <trkpt lat="48.56545" lon="-2.76353">
        <ele>22</ele>
        <time>2019-02-22T10:06:42Z</time>
      </trkpt>
      <trkpt lat="48.56545" lon="-2.76358">
        <ele>23</ele>
        <time>2019-02-22T10:06:46Z</time>
      </trkpt>
      <trkpt lat="48.56543" lon="-2.76363">
        <ele>23</ele>
        <time>2019-02-22T10:06:50Z</time>
      </trkpt>
      <trkpt lat="48.56541" lon="-2.76369">
        <ele>24</ele>
        <time>2019-02-22T10:06:54Z</time>
      </trkpt>
      <trkpt lat="48.56539" lon="-2.76373">
        <ele>25</ele>
        <time>2019-02-22T10:07:00Z</time>
      </trkpt>
      <trkpt lat="48.56535" lon="-2.76376">
        <ele>25</ele>
        <time>2019-02-22T10:07:04Z</time>
      </trkpt>
      <trkpt lat="48.56532" lon="-2.76378">
        <ele>25</ele>
        <time>2019-02-22T10:07:07Z</time>
      </trkpt>
      <trkpt lat="48.56529" lon="-2.76379">
        <ele>26</ele>
        <time>2019-02-22T10:07:10Z</time>
      </trkpt>
      <trkpt lat="48.56525" lon="-2.76382">
        <ele>26</ele>
        <time>2019-02-22T10:07:14Z</time>
      </trkpt>
      <trkpt lat="48.56521" lon="-2.76385">
        <ele>27</ele>
        <time>2019-02-22T10:07:18Z</time>
      </trkpt>
      <trkpt lat="48.56517" lon="-2.76388">
        <ele>27</ele>
        <time>2019-02-22T10:07:21Z</time>
      </trkpt>
      <trkpt lat="48.56513" lon="-2.7639">
        <ele>28</ele>
        <time>2019-02-22T10:07:25Z</time>
      </trkpt>
      <trkpt lat="48.5651" lon="-2.76392">
        <ele>29</ele>
        <time>2019-02-22T10:07:28Z</time>
      </trkpt>
      <trkpt lat="48.56506" lon="-2.76394">
        <ele>30</ele>
        <time>2019-02-22T10:07:31Z</time>
      </trkpt>
      <trkpt lat="48.56504" lon="-2.76397">
        <ele>30</ele>
        <time>2019-02-22T10:07:34Z</time>
      </trkpt>
      <trkpt lat="48.56499" lon="-2.764">
        <ele>30</ele>
        <time>2019-02-22T10:07:38Z</time>
      </trkpt>
      <trkpt lat="48.56496" lon="-2.76404">
        <ele>30</ele>
        <time>2019-02-22T10:07:42Z</time>
      </trkpt>
      <trkpt lat="48.56491" lon="-2.76407">
        <ele>31</ele>
        <time>2019-02-22T10:07:46Z</time>
      </trkpt>
      <trkpt lat="48.56488" lon="-2.76411">
        <ele>31</ele>
        <time>2019-02-22T10:07:50Z</time>
      </trkpt>
      <trkpt lat="48.56485" lon="-2.76415">
        <ele>31</ele>
        <time>2019-02-22T10:07:54Z</time>
      </trkpt>
      <trkpt lat="48.56481" lon="-2.76418">
        <ele>31</ele>
        <time>2019-02-22T10:07:58Z</time>
      </trkpt>
      <trkpt lat="48.56477" lon="-2.7642">
        <ele>31</ele>
        <time>2019-02-22T10:08:02Z</time>
      </trkpt>
      <trkpt lat="48.56475" lon="-2.76424">
        <ele>32</ele>
        <time>2019-02-22T10:08:06Z</time>
      </trkpt>
      <trkpt lat="48.56472" lon="-2.76428">
        <ele>32</ele>
        <time>2019-02-22T10:08:10Z</time>
      </trkpt>
      <trkpt lat="48.5647" lon="-2.76432">
        <ele>32</ele>
        <time>2019-02-22T10:08:14Z</time>
      </trkpt>
      <trkpt lat="48.56467" lon="-2.76436">
        <ele>33</ele>
        <time>2019-02-22T10:08:18Z</time>
      </trkpt>
      <trkpt lat="48.56465" lon="-2.7644">
        <ele>34</ele>
        <time>2019-02-22T10:08:22Z</time>
      </trkpt>
      <trkpt lat="48.56463" lon="-2.76444">
        <ele>35</ele>
        <time>2019-02-22T10:08:26Z</time>
      </trkpt>
      <trkpt lat="48.56461" lon="-2.76447">
        <ele>37</ele>
        <time>2019-02-22T10:08:30Z</time>
      </trkpt>
      <trkpt lat="48.56459" lon="-2.76451">
        <ele>38</ele>
        <time>2019-02-22T10:08:34Z</time>
      </trkpt>
      <trkpt lat="48.56457" lon="-2.76455">
        <ele>40</ele>
        <time>2019-02-22T10:08:39Z</time>
      </trkpt>
      <trkpt lat="48.56456" lon="-2.76458">
        <ele>41</ele>
        <time>2019-02-22T10:08:42Z</time>
      </trkpt>
      <trkpt lat="48.56455" lon="-2.76462">
        <ele>43</ele>
        <time>2019-02-22T10:08:45Z</time>
      </trkpt>
      <trkpt lat="48.56453" lon="-2.76467">
        <ele>46</ele>
        <time>2019-02-22T10:08:49Z</time>
      </trkpt>
      <trkpt lat="48.56451" lon="-2.76472">
        <ele>49</ele>
        <time>2019-02-22T10:08:53Z</time>
      </trkpt>
      <trkpt lat="48.56449" lon="-2.76478">
        <ele>51</ele>
        <time>2019-02-22T10:08:57Z</time>
      </trkpt>
      <trkpt lat="48.56448" lon="-2.76482">
        <ele>53</ele>
        <time>2019-02-22T10:09:00Z</time>
      </trkpt>
      <trkpt lat="48.56446" lon="-2.76488">
        <ele>54</ele>
        <time>2019-02-22T10:09:04Z</time>
      </trkpt>
      <trkpt lat="48.56444" lon="-2.76493">
        <ele>55</ele>
        <time>2019-02-22T10:09:08Z</time>
      </trkpt>
      <trkpt lat="48.56442" lon="-2.76498">
        <ele>57</ele>
        <time>2019-02-22T10:09:12Z</time>
      </trkpt>
      <trkpt lat="48.56441" lon="-2.76502">
        <ele>58</ele>
        <time>2019-02-22T10:09:16Z</time>
      </trkpt>
      <trkpt lat="48.56438" lon="-2.76507">
        <ele>58</ele>
        <time>2019-02-22T10:09:20Z</time>
      </trkpt>
      <trkpt lat="48.56435" lon="-2.76508">
        <ele>58</ele>
        <time>2019-02-22T10:09:23Z</time>
      </trkpt>
      <trkpt lat="48.56432" lon="-2.76508">
        <ele>58</ele>
        <time>2019-02-22T10:09:26Z</time>
      </trkpt>
      <trkpt lat="48.56427" lon="-2.76507">
        <ele>58</ele>
        <time>2019-02-22T10:09:30Z</time>
      </trkpt>
      <trkpt lat="48.56423" lon="-2.76505">
        <ele>58</ele>
        <time>2019-02-22T10:09:34Z</time>
      </trkpt>
      <trkpt lat="48.56421" lon="-2.76505">
        <ele>58</ele>
        <time>2019-02-22T10:09:37Z</time>
      </trkpt>
      <trkpt lat="48.56418" lon="-2.76502">
        <ele>58</ele>
        <time>2019-02-22T10:09:41Z</time>
      </trkpt>
      <trkpt lat="48.56415" lon="-2.76499">
        <ele>58</ele>
        <time>2019-02-22T10:09:45Z</time>
      </trkpt>
      <trkpt lat="48.56412" lon="-2.76499">
        <ele>58</ele>
        <time>2019-02-22T10:09:49Z</time>
      </trkpt>
      <trkpt lat="48.56409" lon="-2.76497">
        <ele>58</ele>
        <time>2019-02-22T10:09:56Z</time>
      </trkpt>
      <trkpt lat="48.5641" lon="-2.76497">
        <ele>58</ele>
        <time>2019-02-22T10:10:14Z</time>
      </trkpt>
      <trkpt lat="48.56411" lon="-2.76497">
        <ele>59</ele>
        <time>2019-02-22T10:10:28Z</time>
      </trkpt>
      <trkpt lat="48.56411" lon="-2.76496">
        <ele>59</ele>
        <time>2019-02-22T10:11:07Z</time>
      </trkpt>
      <trkpt lat="48.5641" lon="-2.76494">
        <ele>60</ele>
        <time>2019-02-22T10:11:41Z</time>
      </trkpt>
      <trkpt lat="48.56409" lon="-2.76491">
        <ele>60</ele>
        <time>2019-02-22T10:12:18Z</time>
      </trkpt>
      <trkpt lat="48.56406" lon="-2.76486">
        <ele>60</ele>
        <time>2019-02-22T10:12:22Z</time>
      </trkpt>
      <trkpt lat="48.56404" lon="-2.76482">
        <ele>60</ele>
        <time>2019-02-22T10:12:25Z</time>
      </trkpt>
      <trkpt lat="48.56403" lon="-2.76477">
        <ele>60</ele>
        <time>2019-02-22T10:12:28Z</time>
      </trkpt>
      <trkpt lat="48.56403" lon="-2.76472">
        <ele>60</ele>
        <time>2019-02-22T10:12:31Z</time>
      </trkpt>
      <trkpt lat="48.56402" lon="-2.76467">
        <ele>60</ele>
        <time>2019-02-22T10:12:34Z</time>
      </trkpt>
      <trkpt lat="48.56401" lon="-2.76462">
        <ele>60</ele>
        <time>2019-02-22T10:12:37Z</time>
      </trkpt>
      <trkpt lat="48.56401" lon="-2.76456">
        <ele>60</ele>
        <time>2019-02-22T10:12:40Z</time>
      </trkpt>
      <trkpt lat="48.56401" lon="-2.7645">
        <ele>60</ele>
        <time>2019-02-22T10:12:43Z</time>
      </trkpt>
      <trkpt lat="48.56401" lon="-2.76445">
        <ele>60</ele>
        <time>2019-02-22T10:12:46Z</time>
      </trkpt>
      <trkpt lat="48.56401" lon="-2.76439">
        <ele>60</ele>
        <time>2019-02-22T10:12:49Z</time>
      </trkpt>
      <trkpt lat="48.564" lon="-2.76434">
        <ele>60</ele>
        <time>2019-02-22T10:12:52Z</time>
      </trkpt>
      <trkpt lat="48.56401" lon="-2.76429">
        <ele>60</ele>
        <time>2019-02-22T10:12:55Z</time>
      </trkpt>
      <trkpt lat="48.56402" lon="-2.76424">
        <ele>60</ele>
        <time>2019-02-22T10:12:58Z</time>
      </trkpt>
      <trkpt lat="48.56402" lon="-2.76418">
        <ele>60</ele>
        <time>2019-02-22T10:13:01Z</time>
      </trkpt>
      <trkpt lat="48.56404" lon="-2.76413">
        <ele>60</ele>
        <time>2019-02-22T10:13:04Z</time>
      </trkpt>
      <trkpt lat="48.56405" lon="-2.76409">
        <ele>60</ele>
        <time>2019-02-22T10:13:07Z</time>
      </trkpt>
      <trkpt lat="48.56406" lon="-2.76403">
        <ele>60</ele>
        <time>2019-02-22T10:13:10Z</time>
      </trkpt>
      <trkpt lat="48.56406" lon="-2.76397">
        <ele>60</ele>
        <time>2019-02-22T10:13:13Z</time>
      </trkpt>
      <trkpt lat="48.56406" lon="-2.76392">
        <ele>60</ele>
        <time>2019-02-22T10:13:16Z</time>
      </trkpt>
      <trkpt lat="48.56405" lon="-2.76387">
        <ele>60</ele>
        <time>2019-02-22T10:13:19Z</time>
      </trkpt>
      <trkpt lat="48.56403" lon="-2.76382">
        <ele>60</ele>
        <time>2019-02-22T10:13:23Z</time>
      </trkpt>
      <trkpt lat="48.56403" lon="-2.76378">
        <ele>60</ele>
        <time>2019-02-22T10:13:26Z</time>
      </trkpt>
      <trkpt lat="48.56404" lon="-2.76374">
        <ele>60</ele>
        <time>2019-02-22T10:13:29Z</time>
      </trkpt>
      <trkpt lat="48.56405" lon="-2.76369">
        <ele>60</ele>
        <time>2019-02-22T10:13:32Z</time>
      </trkpt>
      <trkpt lat="48.56403" lon="-2.76364">
        <ele>60</ele>
        <time>2019-02-22T10:13:36Z</time>
      </trkpt>
      <trkpt lat="48.56401" lon="-2.76359">
        <ele>60</ele>
        <time>2019-02-22T10:13:39Z</time>
      </trkpt>
      <trkpt lat="48.56397" lon="-2.76356">
        <ele>60</ele>
        <time>2019-02-22T10:13:43Z</time>
      </trkpt>
      <trkpt lat="48.56394" lon="-2.76359">
        <ele>60</ele>
        <time>2019-02-22T10:13:47Z</time>
      </trkpt>
      <trkpt lat="48.56392" lon="-2.76365">
        <ele>60</ele>
        <time>2019-02-22T10:13:51Z</time>
      </trkpt>
      <trkpt lat="48.5639" lon="-2.76371">
        <ele>60</ele>
        <time>2019-02-22T10:13:55Z</time>
      </trkpt>
      <trkpt lat="48.56387" lon="-2.76377">
        <ele>61</ele>
        <time>2019-02-22T10:13:59Z</time>
      </trkpt>
      <trkpt lat="48.56384" lon="-2.76381">
        <ele>62</ele>
        <time>2019-02-22T10:14:03Z</time>
      </trkpt>
      <trkpt lat="48.5638" lon="-2.76384">
        <ele>62</ele>
        <time>2019-02-22T10:14:06Z</time>
      </trkpt>
      <trkpt lat="48.56377" lon="-2.76385">
        <ele>63</ele>
        <time>2019-02-22T10:14:09Z</time>
      </trkpt>
      <trkpt lat="48.56374" lon="-2.76385">
        <ele>64</ele>
        <time>2019-02-22T10:14:12Z</time>
      </trkpt>
      <trkpt lat="48.5637" lon="-2.76385">
        <ele>64</ele>
        <time>2019-02-22T10:14:15Z</time>
      </trkpt>
      <trkpt lat="48.56366" lon="-2.76384">
        <ele>65</ele>
        <time>2019-02-22T10:14:18Z</time>
      </trkpt>
      <trkpt lat="48.56363" lon="-2.76382">
        <ele>65</ele>
        <time>2019-02-22T10:14:21Z</time>
      </trkpt>
      <trkpt lat="48.56358" lon="-2.7638">
        <ele>65</ele>
        <time>2019-02-22T10:14:25Z</time>
      </trkpt>
      <trkpt lat="48.56354" lon="-2.76378">
        <ele>66</ele>
        <time>2019-02-22T10:14:28Z</time>
      </trkpt>
      <trkpt lat="48.5635" lon="-2.76374">
        <ele>66</ele>
        <time>2019-02-22T10:14:32Z</time>
      </trkpt>
      <trkpt lat="48.56347" lon="-2.76368">
        <ele>66</ele>
        <time>2019-02-22T10:14:36Z</time>
      </trkpt>
      <trkpt lat="48.56345" lon="-2.76361">
        <ele>66</ele>
        <time>2019-02-22T10:14:40Z</time>
      </trkpt>
      <trkpt lat="48.56342" lon="-2.76355">
        <ele>66</ele>
        <time>2019-02-22T10:14:44Z</time>
      </trkpt>
      <trkpt lat="48.5634" lon="-2.7635">
        <ele>66</ele>
        <time>2019-02-22T10:14:47Z</time>
      </trkpt>
      <trkpt lat="48.56335" lon="-2.76344">
        <ele>66</ele>
        <time>2019-02-22T10:14:51Z</time>
      </trkpt>
      <trkpt lat="48.56333" lon="-2.7634">
        <ele>66</ele>
        <time>2019-02-22T10:14:54Z</time>
      </trkpt>
      <trkpt lat="48.5633" lon="-2.76335">
        <ele>66</ele>
        <time>2019-02-22T10:14:57Z</time>
      </trkpt>
      <trkpt lat="48.56327" lon="-2.76331">
        <ele>66</ele>
        <time>2019-02-22T10:15:00Z</time>
      </trkpt>
      <trkpt lat="48.56323" lon="-2.76326">
        <ele>66</ele>
        <time>2019-02-22T10:15:04Z</time>
      </trkpt>
      <trkpt lat="48.56319" lon="-2.76321">
        <ele>66</ele>
        <time>2019-02-22T10:15:08Z</time>
      </trkpt>
      <trkpt lat="48.56316" lon="-2.76316">
        <ele>66</ele>
        <time>2019-02-22T10:15:11Z</time>
      </trkpt>
      <trkpt lat="48.56311" lon="-2.76311">
        <ele>66</ele>
        <time>2019-02-22T10:15:15Z</time>
      </trkpt>
      <trkpt lat="48.56308" lon="-2.76308">
        <ele>66</ele>
        <time>2019-02-22T10:15:18Z</time>
      </trkpt>
      <trkpt lat="48.56305" lon="-2.76304">
        <ele>66</ele>
        <time>2019-02-22T10:15:21Z</time>
      </trkpt>
      <trkpt lat="48.56301" lon="-2.76297">
        <ele>66</ele>
        <time>2019-02-22T10:15:25Z</time>
      </trkpt>
      <trkpt lat="48.56299" lon="-2.76292">
        <ele>66</ele>
        <time>2019-02-22T10:15:28Z</time>
      </trkpt>
      <trkpt lat="48.56299" lon="-2.76286">
        <ele>66</ele>
        <time>2019-02-22T10:15:31Z</time>
      </trkpt>
      <trkpt lat="48.563" lon="-2.7628">
        <ele>66</ele>
        <time>2019-02-22T10:15:34Z</time>
      </trkpt>
      <trkpt lat="48.563" lon="-2.76274">
        <ele>66</ele>
        <time>2019-02-22T10:15:37Z</time>
      </trkpt>
      <trkpt lat="48.563" lon="-2.7627">
        <ele>66</ele>
        <time>2019-02-22T10:15:41Z</time>
      </trkpt>
      <trkpt lat="48.563" lon="-2.76268">
        <ele>67</ele>
        <time>2019-02-22T10:15:58Z</time>
      </trkpt>
      <trkpt lat="48.56298" lon="-2.76266">
        <ele>67</ele>
        <time>2019-02-22T10:16:01Z</time>
      </trkpt>
      <trkpt lat="48.56295" lon="-2.76265">
        <ele>67</ele>
        <time>2019-02-22T10:16:04Z</time>
      </trkpt>
      <trkpt lat="48.5629" lon="-2.76262">
        <ele>67</ele>
        <time>2019-02-22T10:16:08Z</time>
      </trkpt>
      <trkpt lat="48.56287" lon="-2.7626">
        <ele>67</ele>
        <time>2019-02-22T10:16:12Z</time>
      </trkpt>
      <trkpt lat="48.56283" lon="-2.76258">
        <ele>67</ele>
        <time>2019-02-22T10:16:15Z</time>
      </trkpt>
      <trkpt lat="48.56279" lon="-2.76254">
        <ele>67</ele>
        <time>2019-02-22T10:16:19Z</time>
      </trkpt>
      <trkpt lat="48.56276" lon="-2.76251">
        <ele>67</ele>
        <time>2019-02-22T10:16:22Z</time>
      </trkpt>
      <trkpt lat="48.56273" lon="-2.76246">
        <ele>67</ele>
        <time>2019-02-22T10:16:26Z</time>
      </trkpt>
      <trkpt lat="48.5627" lon="-2.76241">
        <ele>67</ele>
        <time>2019-02-22T10:16:30Z</time>
      </trkpt>
      <trkpt lat="48.56268" lon="-2.76236">
        <ele>67</ele>
        <time>2019-02-22T10:16:33Z</time>
      </trkpt>
      <trkpt lat="48.56266" lon="-2.76232">
        <ele>67</ele>
        <time>2019-02-22T10:16:36Z</time>
      </trkpt>
      <trkpt lat="48.56263" lon="-2.76223">
        <ele>67</ele>
        <time>2019-02-22T10:16:41Z</time>
      </trkpt>
      <trkpt lat="48.56261" lon="-2.76219">
        <ele>67</ele>
        <time>2019-02-22T10:16:44Z</time>
      </trkpt>
      <trkpt lat="48.56257" lon="-2.76214">
        <ele>67</ele>
        <time>2019-02-22T10:16:48Z</time>
      </trkpt>
      <trkpt lat="48.56253" lon="-2.76208">
        <ele>67</ele>
        <time>2019-02-22T10:16:52Z</time>
      </trkpt>
      <trkpt lat="48.56252" lon="-2.76203">
        <ele>67</ele>
        <time>2019-02-22T10:16:55Z</time>
      </trkpt>
      <trkpt lat="48.56248" lon="-2.76197">
        <ele>67</ele>
        <time>2019-02-22T10:16:59Z</time>
      </trkpt>
      <trkpt lat="48.56247" lon="-2.76192">
        <ele>67</ele>
        <time>2019-02-22T10:17:02Z</time>
      </trkpt>
      <trkpt lat="48.56245" lon="-2.76186">
        <ele>67</ele>
        <time>2019-02-22T10:17:06Z</time>
      </trkpt>
      <trkpt lat="48.56242" lon="-2.7618">
        <ele>67</ele>
        <time>2019-02-22T10:17:10Z</time>
      </trkpt>
      <trkpt lat="48.56238" lon="-2.76175">
        <ele>67</ele>
        <time>2019-02-22T10:17:14Z</time>
      </trkpt>
      <trkpt lat="48.56234" lon="-2.76169">
        <ele>67</ele>
        <time>2019-02-22T10:17:18Z</time>
      </trkpt>
      <trkpt lat="48.56231" lon="-2.76165">
        <ele>67</ele>
        <time>2019-02-22T10:17:21Z</time>
      </trkpt>
      <trkpt lat="48.56228" lon="-2.7616">
        <ele>67</ele>
        <time>2019-02-22T10:17:25Z</time>
      </trkpt>
      <trkpt lat="48.56225" lon="-2.76154">
        <ele>67</ele>
        <time>2019-02-22T10:17:29Z</time>
      </trkpt>
      <trkpt lat="48.56222" lon="-2.76149">
        <ele>67</ele>
        <time>2019-02-22T10:17:32Z</time>
      </trkpt>
      <trkpt lat="48.56219" lon="-2.76146">
        <ele>67</ele>
        <time>2019-02-22T10:17:35Z</time>
      </trkpt>
      <trkpt lat="48.56216" lon="-2.76142">
        <ele>67</ele>
        <time>2019-02-22T10:17:39Z</time>
      </trkpt>
      <trkpt lat="48.56212" lon="-2.76137">
        <ele>67</ele>
        <time>2019-02-22T10:17:43Z</time>
      </trkpt>
      <trkpt lat="48.56211" lon="-2.76136">
        <ele>67</ele>
        <time>2019-02-22T10:17:50Z</time>
      </trkpt>
      <trkpt lat="48.56208" lon="-2.76133">
        <ele>67</ele>
        <time>2019-02-22T10:17:54Z</time>
      </trkpt>
      <trkpt lat="48.56204" lon="-2.76132">
        <ele>67</ele>
        <time>2019-02-22T10:17:58Z</time>
      </trkpt>
      <trkpt lat="48.56201" lon="-2.7613">
        <ele>67</ele>
        <time>2019-02-22T10:18:02Z</time>
      </trkpt>
      <trkpt lat="48.56198" lon="-2.76127">
        <ele>67</ele>
        <time>2019-02-22T10:18:05Z</time>
      </trkpt>
      <trkpt lat="48.56194" lon="-2.76122">
        <ele>67</ele>
        <time>2019-02-22T10:18:09Z</time>
      </trkpt>
      <trkpt lat="48.56191" lon="-2.76116">
        <ele>67</ele>
        <time>2019-02-22T10:18:13Z</time>
      </trkpt>
      <trkpt lat="48.56187" lon="-2.76112">
        <ele>67</ele>
        <time>2019-02-22T10:18:17Z</time>
      </trkpt>
      <trkpt lat="48.56184" lon="-2.76107">
        <ele>67</ele>
        <time>2019-02-22T10:18:21Z</time>
      </trkpt>
      <trkpt lat="48.56182" lon="-2.76102">
        <ele>67</ele>
        <time>2019-02-22T10:18:25Z</time>
      </trkpt>
      <trkpt lat="48.5618" lon="-2.76097">
        <ele>67</ele>
        <time>2019-02-22T10:18:39Z</time>
      </trkpt>
      <trkpt lat="48.56179" lon="-2.76094">
        <ele>67</ele>
        <time>2019-02-22T10:18:44Z</time>
      </trkpt>
      <trkpt lat="48.56179" lon="-2.76092">
        <ele>67</ele>
        <time>2019-02-22T10:18:48Z</time>
      </trkpt>
      <trkpt lat="48.56178" lon="-2.7609">
        <ele>67</ele>
        <time>2019-02-22T10:18:51Z</time>
      </trkpt>
      <trkpt lat="48.56178" lon="-2.76088">
        <ele>67</ele>
        <time>2019-02-22T10:18:54Z</time>
      </trkpt>
      <trkpt lat="48.56177" lon="-2.76087">
        <ele>67</ele>
        <time>2019-02-22T10:19:15Z</time>
      </trkpt>
      <trkpt lat="48.56176" lon="-2.76087">
        <ele>67</ele>
        <time>2019-02-22T10:19:36Z</time>
      </trkpt>
      <trkpt lat="48.56174" lon="-2.76084">
        <ele>67</ele>
        <time>2019-02-22T10:19:43Z</time>
      </trkpt>
      <trkpt lat="48.5617" lon="-2.76082">
        <ele>67</ele>
        <time>2019-02-22T10:19:47Z</time>
      </trkpt>
      <trkpt lat="48.5617" lon="-2.76082">
        <ele>67</ele>
        <time>2019-02-22T10:19:52Z</time>
      </trkpt>
      <trkpt lat="48.56173" lon="-2.76084">
        <ele>67</ele>
        <time>2019-02-22T10:19:57Z</time>
      </trkpt>
      <trkpt lat="48.56175" lon="-2.76087">
        <ele>67</ele>
        <time>2019-02-22T10:20:02Z</time>
      </trkpt>
      <trkpt lat="48.56176" lon="-2.76087">
        <ele>67</ele>
        <time>2019-02-22T10:20:05Z</time>
      </trkpt>
      <trkpt lat="48.56179" lon="-2.76087">
        <ele>67</ele>
        <time>2019-02-22T10:20:11Z</time>
      </trkpt>
      <trkpt lat="48.5618" lon="-2.76085">
        <ele>67</ele>
        <time>2019-02-22T10:20:14Z</time>
      </trkpt>
      <trkpt lat="48.56181" lon="-2.7608">
        <ele>67</ele>
        <time>2019-02-22T10:20:18Z</time>
      </trkpt>
      <trkpt lat="48.56183" lon="-2.76075">
        <ele>67</ele>
        <time>2019-02-22T10:20:22Z</time>
      </trkpt>
      <trkpt lat="48.56184" lon="-2.76071">
        <ele>67</ele>
        <time>2019-02-22T10:20:26Z</time>
      </trkpt>
      <trkpt lat="48.56187" lon="-2.76067">
        <ele>67</ele>
        <time>2019-02-22T10:20:30Z</time>
      </trkpt>
      <trkpt lat="48.56189" lon="-2.76064">
        <ele>66</ele>
        <time>2019-02-22T10:20:34Z</time>
      </trkpt>
      <trkpt lat="48.56192" lon="-2.7606">
        <ele>66</ele>
        <time>2019-02-22T10:20:39Z</time>
      </trkpt>
      <trkpt lat="48.56193" lon="-2.76055">
        <ele>66</ele>
        <time>2019-02-22T10:20:43Z</time>
      </trkpt>
      <trkpt lat="48.56194" lon="-2.7605">
        <ele>64</ele>
        <time>2019-02-22T10:20:47Z</time>
      </trkpt>
      <trkpt lat="48.56195" lon="-2.76045">
        <ele>64</ele>
        <time>2019-02-22T10:20:51Z</time>
      </trkpt>
      <trkpt lat="48.56195" lon="-2.7604">
        <ele>63</ele>
        <time>2019-02-22T10:20:55Z</time>
      </trkpt>
      <trkpt lat="48.56196" lon="-2.76036">
        <ele>62</ele>
        <time>2019-02-22T10:20:58Z</time>
      </trkpt>
      <trkpt lat="48.56198" lon="-2.76033">
        <ele>62</ele>
        <time>2019-02-22T10:21:02Z</time>
      </trkpt>
      <trkpt lat="48.56198" lon="-2.76027">
        <ele>61</ele>
        <time>2019-02-22T10:21:06Z</time>
      </trkpt>
      <trkpt lat="48.56198" lon="-2.76021">
        <ele>60</ele>
        <time>2019-02-22T10:21:10Z</time>
      </trkpt>
      <trkpt lat="48.56198" lon="-2.76015">
        <ele>60</ele>
        <time>2019-02-22T10:21:14Z</time>
      </trkpt>
      <trkpt lat="48.56198" lon="-2.76009">
        <ele>60</ele>
        <time>2019-02-22T10:21:18Z</time>
      </trkpt>
      <trkpt lat="48.56199" lon="-2.76006">
        <ele>60</ele>
        <time>2019-02-22T10:21:22Z</time>
      </trkpt>
      <trkpt lat="48.56199" lon="-2.76001">
        <ele>59</ele>
        <time>2019-02-22T10:21:26Z</time>
      </trkpt>
      <trkpt lat="48.56201" lon="-2.75996">
        <ele>59</ele>
        <time>2019-02-22T10:21:31Z</time>
      </trkpt>
      <trkpt lat="48.56203" lon="-2.75994">
        <ele>59</ele>
        <time>2019-02-22T10:21:34Z</time>
      </trkpt>
      <trkpt lat="48.56203" lon="-2.7599">
        <ele>59</ele>
        <time>2019-02-22T10:21:38Z</time>
      </trkpt>
      <trkpt lat="48.56203" lon="-2.75985">
        <ele>59</ele>
        <time>2019-02-22T10:21:42Z</time>
      </trkpt>
      <trkpt lat="48.56203" lon="-2.75981">
        <ele>57</ele>
        <time>2019-02-22T10:21:47Z</time>
      </trkpt>
      <trkpt lat="48.56202" lon="-2.75976">
        <ele>55</ele>
        <time>2019-02-22T10:21:52Z</time>
      </trkpt>
      <trkpt lat="48.56202" lon="-2.75971">
        <ele>53</ele>
        <time>2019-02-22T10:21:56Z</time>
      </trkpt>
      <trkpt lat="48.56201" lon="-2.75965">
        <ele>52</ele>
        <time>2019-02-22T10:21:59Z</time>
      </trkpt>
      <trkpt lat="48.562" lon="-2.7596">
        <ele>51</ele>
        <time>2019-02-22T10:22:02Z</time>
      </trkpt>
      <trkpt lat="48.56201" lon="-2.75953">
        <ele>51</ele>
        <time>2019-02-22T10:22:07Z</time>
      </trkpt>
      <trkpt lat="48.562" lon="-2.75949">
        <ele>51</ele>
        <time>2019-02-22T10:22:11Z</time>
      </trkpt>
      <trkpt lat="48.562" lon="-2.75943">
        <ele>51</ele>
        <time>2019-02-22T10:22:15Z</time>
      </trkpt>
      <trkpt lat="48.562" lon="-2.75938">
        <ele>51</ele>
        <time>2019-02-22T10:22:18Z</time>
      </trkpt>
      <trkpt lat="48.56199" lon="-2.75932">
        <ele>51</ele>
        <time>2019-02-22T10:22:21Z</time>
      </trkpt>
      <trkpt lat="48.562" lon="-2.75926">
        <ele>51</ele>
        <time>2019-02-22T10:22:25Z</time>
      </trkpt>
      <trkpt lat="48.562" lon="-2.7592">
        <ele>51</ele>
        <time>2019-02-22T10:22:29Z</time>
      </trkpt>
      <trkpt lat="48.562" lon="-2.75915">
        <ele>51</ele>
        <time>2019-02-22T10:22:33Z</time>
      </trkpt>
      <trkpt lat="48.56199" lon="-2.75908">
        <ele>51</ele>
        <time>2019-02-22T10:22:37Z</time>
      </trkpt>
      <trkpt lat="48.56198" lon="-2.75904">
        <ele>51</ele>
        <time>2019-02-22T10:22:40Z</time>
      </trkpt>
      <trkpt lat="48.562" lon="-2.75899">
        <ele>51</ele>
        <time>2019-02-22T10:22:44Z</time>
      </trkpt>
      <trkpt lat="48.56201" lon="-2.75894">
        <ele>51</ele>
        <time>2019-02-22T10:22:48Z</time>
      </trkpt>
      <trkpt lat="48.56202" lon="-2.75888">
        <ele>51</ele>
        <time>2019-02-22T10:22:52Z</time>
      </trkpt>
      <trkpt lat="48.56204" lon="-2.75882">
        <ele>51</ele>
        <time>2019-02-22T10:22:56Z</time>
      </trkpt>
      <trkpt lat="48.56206" lon="-2.75874">
        <ele>51</ele>
        <time>2019-02-22T10:23:01Z</time>
      </trkpt>
      <trkpt lat="48.56207" lon="-2.7587">
        <ele>51</ele>
        <time>2019-02-22T10:23:05Z</time>
      </trkpt>
      <trkpt lat="48.56208" lon="-2.75865">
        <ele>50</ele>
        <time>2019-02-22T10:23:09Z</time>
      </trkpt>
      <trkpt lat="48.5621" lon="-2.75861">
        <ele>50</ele>
        <time>2019-02-22T10:23:13Z</time>
      </trkpt>
      <trkpt lat="48.56208" lon="-2.75857">
        <ele>49</ele>
        <time>2019-02-22T10:23:18Z</time>
      </trkpt>
      <trkpt lat="48.56207" lon="-2.75853">
        <ele>48</ele>
        <time>2019-02-22T10:23:24Z</time>
      </trkpt>
      <trkpt lat="48.56207" lon="-2.75849">
        <ele>47</ele>
        <time>2019-02-22T10:23:28Z</time>
      </trkpt>
      <trkpt lat="48.56207" lon="-2.75844">
        <ele>46</ele>
        <time>2019-02-22T10:23:32Z</time>
      </trkpt>
      <trkpt lat="48.56208" lon="-2.7584">
        <ele>46</ele>
        <time>2019-02-22T10:23:35Z</time>
      </trkpt>
      <trkpt lat="48.56207" lon="-2.75834">
        <ele>45</ele>
        <time>2019-02-22T10:23:39Z</time>
      </trkpt>
      <trkpt lat="48.56207" lon="-2.75828">
        <ele>44</ele>
        <time>2019-02-22T10:23:43Z</time>
      </trkpt>
      <trkpt lat="48.56207" lon="-2.75823">
        <ele>44</ele>
        <time>2019-02-22T10:23:48Z</time>
      </trkpt>
      <trkpt lat="48.56207" lon="-2.75821">
        <ele>43</ele>
        <time>2019-02-22T10:23:51Z</time>
      </trkpt>
      <trkpt lat="48.56207" lon="-2.75816">
        <ele>42</ele>
        <time>2019-02-22T10:23:54Z</time>
      </trkpt>
      <trkpt lat="48.56206" lon="-2.75811">
        <ele>42</ele>
        <time>2019-02-22T10:23:57Z</time>
      </trkpt>
      <trkpt lat="48.56206" lon="-2.75806">
        <ele>41</ele>
        <time>2019-02-22T10:24:00Z</time>
      </trkpt>
      <trkpt lat="48.56206" lon="-2.758">
        <ele>40</ele>
        <time>2019-02-22T10:24:03Z</time>
      </trkpt>
      <trkpt lat="48.56206" lon="-2.75795">
        <ele>39</ele>
        <time>2019-02-22T10:24:07Z</time>
      </trkpt>
      <trkpt lat="48.56206" lon="-2.75789">
        <ele>39</ele>
        <time>2019-02-22T10:24:11Z</time>
      </trkpt>
      <trkpt lat="48.56206" lon="-2.75783">
        <ele>38</ele>
        <time>2019-02-22T10:24:15Z</time>
      </trkpt>
      <trkpt lat="48.56207" lon="-2.75778">
        <ele>38</ele>
        <time>2019-02-22T10:24:19Z</time>
      </trkpt>
      <trkpt lat="48.56207" lon="-2.75772">
        <ele>37</ele>
        <time>2019-02-22T10:24:23Z</time>
      </trkpt>
      <trkpt lat="48.56208" lon="-2.75766">
        <ele>36</ele>
        <time>2019-02-22T10:24:27Z</time>
      </trkpt>
      <trkpt lat="48.56208" lon="-2.75761">
        <ele>35</ele>
        <time>2019-02-22T10:24:31Z</time>
      </trkpt>
      <trkpt lat="48.5621" lon="-2.75755">
        <ele>33</ele>
        <time>2019-02-22T10:24:35Z</time>
      </trkpt>
      <trkpt lat="48.5621" lon="-2.75749">
        <ele>32</ele>
        <time>2019-02-22T10:24:39Z</time>
      </trkpt>
      <trkpt lat="48.5621" lon="-2.75745">
        <ele>31</ele>
        <time>2019-02-22T10:24:42Z</time>
      </trkpt>
      <trkpt lat="48.56211" lon="-2.75739">
        <ele>30</ele>
        <time>2019-02-22T10:24:46Z</time>
      </trkpt>
      <trkpt lat="48.56212" lon="-2.75733">
        <ele>29</ele>
        <time>2019-02-22T10:24:50Z</time>
      </trkpt>
      <trkpt lat="48.56212" lon="-2.75729">
        <ele>29</ele>
        <time>2019-02-22T10:24:58Z</time>
      </trkpt>
      <trkpt lat="48.56211" lon="-2.75724">
        <ele>28</ele>
        <time>2019-02-22T10:25:02Z</time>
      </trkpt>
      <trkpt lat="48.56211" lon="-2.75719">
        <ele>28</ele>
        <time>2019-02-22T10:25:05Z</time>
      </trkpt>
      <trkpt lat="48.5621" lon="-2.75714">
        <ele>27</ele>
        <time>2019-02-22T10:25:08Z</time>
      </trkpt>
      <trkpt lat="48.56208" lon="-2.75708">
        <ele>27</ele>
        <time>2019-02-22T10:25:12Z</time>
      </trkpt>
      <trkpt lat="48.56207" lon="-2.75702">
        <ele>27</ele>
        <time>2019-02-22T10:25:16Z</time>
      </trkpt>
      <trkpt lat="48.56204" lon="-2.75696">
        <ele>26</ele>
        <time>2019-02-22T10:25:20Z</time>
      </trkpt>
      <trkpt lat="48.56202" lon="-2.75691">
        <ele>25</ele>
        <time>2019-02-22T10:25:24Z</time>
      </trkpt>
      <trkpt lat="48.562" lon="-2.75685">
        <ele>24</ele>
        <time>2019-02-22T10:25:28Z</time>
      </trkpt>
      <trkpt lat="48.56199" lon="-2.75679">
        <ele>23</ele>
        <time>2019-02-22T10:25:32Z</time>
      </trkpt>
      <trkpt lat="48.56197" lon="-2.75673">
        <ele>23</ele>
        <time>2019-02-22T10:25:36Z</time>
      </trkpt>
      <trkpt lat="48.56195" lon="-2.75668">
        <ele>22</ele>
        <time>2019-02-22T10:25:40Z</time>
      </trkpt>
      <trkpt lat="48.56193" lon="-2.75663">
        <ele>22</ele>
        <time>2019-02-22T10:25:44Z</time>
      </trkpt>
      <trkpt lat="48.56192" lon="-2.75661">
        <ele>21</ele>
        <time>2019-02-22T10:25:47Z</time>
      </trkpt>
      <trkpt lat="48.56192" lon="-2.75659">
        <ele>21</ele>
        <time>2019-02-22T10:25:50Z</time>
      </trkpt>
      <trkpt lat="48.56191" lon="-2.75657">
        <ele>20</ele>
        <time>2019-02-22T10:26:02Z</time>
      </trkpt>
      <trkpt lat="48.56191" lon="-2.75654">
        <ele>20</ele>
        <time>2019-02-22T10:26:05Z</time>
      </trkpt>
      <trkpt lat="48.56192" lon="-2.75649">
        <ele>20</ele>
        <time>2019-02-22T10:26:09Z</time>
      </trkpt>
      <trkpt lat="48.56193" lon="-2.75643">
        <ele>19</ele>
        <time>2019-02-22T10:26:13Z</time>
      </trkpt>
      <trkpt lat="48.56197" lon="-2.75641">
        <ele>19</ele>
        <time>2019-02-22T10:26:17Z</time>
      </trkpt>
      <trkpt lat="48.562" lon="-2.75639">
        <ele>19</ele>
        <time>2019-02-22T10:26:21Z</time>
      </trkpt>
      <trkpt lat="48.56203" lon="-2.75638">
        <ele>19</ele>
        <time>2019-02-22T10:26:25Z</time>
      </trkpt>
      <trkpt lat="48.56207" lon="-2.75637">
        <ele>18</ele>
        <time>2019-02-22T10:26:29Z</time>
      </trkpt>
      <trkpt lat="48.5621" lon="-2.75637">
        <ele>18</ele>
        <time>2019-02-22T10:26:33Z</time>
      </trkpt>
      <trkpt lat="48.56214" lon="-2.75637">
        <ele>18</ele>
        <time>2019-02-22T10:26:37Z</time>
      </trkpt>
      <trkpt lat="48.56218" lon="-2.75637">
        <ele>18</ele>
        <time>2019-02-22T10:26:41Z</time>
      </trkpt>
      <trkpt lat="48.56221" lon="-2.75636">
        <ele>18</ele>
        <time>2019-02-22T10:27:05Z</time>
      </trkpt>
      <trkpt lat="48.56222" lon="-2.75636">
        <ele>18</ele>
        <time>2019-02-22T10:27:34Z</time>
      </trkpt>
      <trkpt lat="48.56223" lon="-2.75636">
        <ele>18</ele>
        <time>2019-02-22T10:27:51Z</time>
      </trkpt>
      <trkpt lat="48.56224" lon="-2.75636">
        <ele>18</ele>
        <time>2019-02-22T10:28:01Z</time>
      </trkpt>
      <trkpt lat="48.56225" lon="-2.75634">
        <ele>18</ele>
        <time>2019-02-22T10:28:04Z</time>
      </trkpt>
      <trkpt lat="48.56227" lon="-2.75631">
        <ele>18</ele>
        <time>2019-02-22T10:28:09Z</time>
      </trkpt>
      <trkpt lat="48.56229" lon="-2.75631">
        <ele>18</ele>
        <time>2019-02-22T10:28:12Z</time>
      </trkpt>
      <trkpt lat="48.56231" lon="-2.7563">
        <ele>18</ele>
        <time>2019-02-22T10:28:16Z</time>
      </trkpt>
      <trkpt lat="48.56232" lon="-2.75628">
        <ele>18</ele>
        <time>2019-02-22T10:28:19Z</time>
      </trkpt>
      <trkpt lat="48.56234" lon="-2.75626">
        <ele>18</ele>
        <time>2019-02-22T10:28:23Z</time>
      </trkpt>
      <trkpt lat="48.56236" lon="-2.75625">
        <ele>18</ele>
        <time>2019-02-22T10:28:26Z</time>
      </trkpt>
      <trkpt lat="48.56239" lon="-2.75625">
        <ele>18</ele>
        <time>2019-02-22T10:28:30Z</time>
      </trkpt>
      <trkpt lat="48.56243" lon="-2.75625">
        <ele>18</ele>
        <time>2019-02-22T10:28:34Z</time>
      </trkpt>
      <trkpt lat="48.56246" lon="-2.75625">
        <ele>18</ele>
        <time>2019-02-22T10:28:38Z</time>
      </trkpt>
      <trkpt lat="48.56249" lon="-2.75624">
        <ele>18</ele>
        <time>2019-02-22T10:28:42Z</time>
      </trkpt>
      <trkpt lat="48.56252" lon="-2.75622">
        <ele>18</ele>
        <time>2019-02-22T10:28:46Z</time>
      </trkpt>
      <trkpt lat="48.56255" lon="-2.75622">
        <ele>18</ele>
        <time>2019-02-22T10:28:50Z</time>
      </trkpt>
      <trkpt lat="48.56258" lon="-2.75622">
        <ele>18</ele>
        <time>2019-02-22T10:29:21Z</time>
      </trkpt>
      <trkpt lat="48.56256" lon="-2.75623">
        <ele>18</ele>
        <time>2019-02-22T10:29:59Z</time>
      </trkpt>
      <trkpt lat="48.56255" lon="-2.75623">
        <ele>18</ele>
        <time>2019-02-22T10:30:34Z</time>
      </trkpt>
      <trkpt lat="48.56254" lon="-2.75623">
        <ele>18</ele>
        <time>2019-02-22T10:30:37Z</time>
      </trkpt>
      <trkpt lat="48.56253" lon="-2.75623">
        <ele>18</ele>
        <time>2019-02-22T10:30:40Z</time>
      </trkpt>
      <trkpt lat="48.56251" lon="-2.75623">
        <ele>18</ele>
        <time>2019-02-22T10:30:43Z</time>
      </trkpt>
      <trkpt lat="48.5625" lon="-2.75624">
        <ele>18</ele>
        <time>2019-02-22T10:30:46Z</time>
      </trkpt>
      <trkpt lat="48.56249" lon="-2.75625">
        <ele>18</ele>
        <time>2019-02-22T10:30:49Z</time>
      </trkpt>
      <trkpt lat="48.56246" lon="-2.75624">
        <ele>18</ele>
        <time>2019-02-22T10:30:53Z</time>
      </trkpt>
      <trkpt lat="48.56244" lon="-2.75625">
        <ele>18</ele>
        <time>2019-02-22T10:30:57Z</time>
      </trkpt>
      <trkpt lat="48.5624" lon="-2.75625">
        <ele>18</ele>
        <time>2019-02-22T10:31:01Z</time>
      </trkpt>
      <trkpt lat="48.56237" lon="-2.75625">
        <ele>18</ele>
        <time>2019-02-22T10:31:04Z</time>
      </trkpt>
      <trkpt lat="48.56234" lon="-2.75627">
        <ele>18</ele>
        <time>2019-02-22T10:31:08Z</time>
      </trkpt>
      <trkpt lat="48.5623" lon="-2.75627">
        <ele>18</ele>
        <time>2019-02-22T10:31:12Z</time>
      </trkpt>
      <trkpt lat="48.56226" lon="-2.75628">
        <ele>18</ele>
        <time>2019-02-22T10:31:16Z</time>
      </trkpt>
      <trkpt lat="48.56223" lon="-2.75631">
        <ele>18</ele>
        <time>2019-02-22T10:31:20Z</time>
      </trkpt>
      <trkpt lat="48.5622" lon="-2.75634">
        <ele>18</ele>
        <time>2019-02-22T10:31:24Z</time>
      </trkpt>
      <trkpt lat="48.56216" lon="-2.75635">
        <ele>18</ele>
        <time>2019-02-22T10:31:28Z</time>
      </trkpt>
      <trkpt lat="48.56212" lon="-2.75636">
        <ele>18</ele>
        <time>2019-02-22T10:31:32Z</time>
      </trkpt>
      <trkpt lat="48.56208" lon="-2.75636">
        <ele>18</ele>
        <time>2019-02-22T10:31:36Z</time>
      </trkpt>
      <trkpt lat="48.56205" lon="-2.75636">
        <ele>18</ele>
        <time>2019-02-22T10:31:39Z</time>
      </trkpt>
      <trkpt lat="48.56202" lon="-2.75638">
        <ele>18</ele>
        <time>2019-02-22T10:31:42Z</time>
      </trkpt>
      <trkpt lat="48.56199" lon="-2.7564">
        <ele>18</ele>
        <time>2019-02-22T10:31:45Z</time>
      </trkpt>
      <trkpt lat="48.56195" lon="-2.75642">
        <ele>18</ele>
        <time>2019-02-22T10:31:49Z</time>
      </trkpt>
      <trkpt lat="48.56191" lon="-2.75645">
        <ele>18</ele>
        <time>2019-02-22T10:31:53Z</time>
      </trkpt>
      <trkpt lat="48.56187" lon="-2.75646">
        <ele>18</ele>
        <time>2019-02-22T10:31:56Z</time>
      </trkpt>
      <trkpt lat="48.56184" lon="-2.75646">
        <ele>18</ele>
        <time>2019-02-22T10:31:59Z</time>
      </trkpt>
      <trkpt lat="48.5618" lon="-2.75646">
        <ele>18</ele>
        <time>2019-02-22T10:32:02Z</time>
      </trkpt>
      <trkpt lat="48.56177" lon="-2.75646">
        <ele>18</ele>
        <time>2019-02-22T10:32:05Z</time>
      </trkpt>
      <trkpt lat="48.56173" lon="-2.75647">
        <ele>18</ele>
        <time>2019-02-22T10:32:08Z</time>
      </trkpt>
      <trkpt lat="48.56171" lon="-2.75648">
        <ele>18</ele>
        <time>2019-02-22T10:32:12Z</time>
      </trkpt>
      <trkpt lat="48.56167" lon="-2.75649">
        <ele>18</ele>
        <time>2019-02-22T10:32:16Z</time>
      </trkpt>
      <trkpt lat="48.56164" lon="-2.7565">
        <ele>18</ele>
        <time>2019-02-22T10:32:19Z</time>
      </trkpt>
      <trkpt lat="48.5616" lon="-2.75652">
        <ele>18</ele>
        <time>2019-02-22T10:32:23Z</time>
      </trkpt>
      <trkpt lat="48.56157" lon="-2.75653">
        <ele>18</ele>
        <time>2019-02-22T10:32:27Z</time>
      </trkpt>
      <trkpt lat="48.56153" lon="-2.75655">
        <ele>18</ele>
        <time>2019-02-22T10:32:31Z</time>
      </trkpt>
      <trkpt lat="48.56149" lon="-2.75656">
        <ele>18</ele>
        <time>2019-02-22T10:32:35Z</time>
      </trkpt>
      <trkpt lat="48.56145" lon="-2.75659">
        <ele>18</ele>
        <time>2019-02-22T10:32:39Z</time>
      </trkpt>
      <trkpt lat="48.56141" lon="-2.75661">
        <ele>18</ele>
        <time>2019-02-22T10:32:43Z</time>
      </trkpt>
      <trkpt lat="48.56137" lon="-2.75665">
        <ele>18</ele>
        <time>2019-02-22T10:32:47Z</time>
      </trkpt>
      <trkpt lat="48.56136" lon="-2.7567">
        <ele>18</ele>
        <time>2019-02-22T10:32:51Z</time>
      </trkpt>
      <trkpt lat="48.56133" lon="-2.75674">
        <ele>18</ele>
        <time>2019-02-22T10:32:55Z</time>
      </trkpt>
      <trkpt lat="48.56129" lon="-2.75676">
        <ele>18</ele>
        <time>2019-02-22T10:32:58Z</time>
      </trkpt>
      <trkpt lat="48.56126" lon="-2.75679">
        <ele>18</ele>
        <time>2019-02-22T10:33:02Z</time>
      </trkpt>
      <trkpt lat="48.56121" lon="-2.75682">
        <ele>18</ele>
        <time>2019-02-22T10:33:06Z</time>
      </trkpt>
      <trkpt lat="48.56117" lon="-2.75684">
        <ele>18</ele>
        <time>2019-02-22T10:33:10Z</time>
      </trkpt>
      <trkpt lat="48.56113" lon="-2.75687">
        <ele>18</ele>
        <time>2019-02-22T10:33:14Z</time>
      </trkpt>
      <trkpt lat="48.5611" lon="-2.75689">
        <ele>19</ele>
        <time>2019-02-22T10:33:18Z</time>
      </trkpt>
      <trkpt lat="48.56106" lon="-2.75692">
        <ele>19</ele>
        <time>2019-02-22T10:33:22Z</time>
      </trkpt>
      <trkpt lat="48.56103" lon="-2.75693">
        <ele>20</ele>
        <time>2019-02-22T10:33:25Z</time>
      </trkpt>
      <trkpt lat="48.561" lon="-2.75696">
        <ele>21</ele>
        <time>2019-02-22T10:33:30Z</time>
      </trkpt>
      <trkpt lat="48.56098" lon="-2.75698">
        <ele>23</ele>
        <time>2019-02-22T10:33:33Z</time>
      </trkpt>
      <trkpt lat="48.56095" lon="-2.757">
        <ele>24</ele>
        <time>2019-02-22T10:33:37Z</time>
      </trkpt>
      <trkpt lat="48.56093" lon="-2.75701">
        <ele>25</ele>
        <time>2019-02-22T10:33:40Z</time>
      </trkpt>
      <trkpt lat="48.56091" lon="-2.75705">
        <ele>27</ele>
        <time>2019-02-22T10:33:44Z</time>
      </trkpt>
      <trkpt lat="48.56088" lon="-2.75709">
        <ele>28</ele>
        <time>2019-02-22T10:33:48Z</time>
      </trkpt>
      <trkpt lat="48.56084" lon="-2.75713">
        <ele>28</ele>
        <time>2019-02-22T10:33:52Z</time>
      </trkpt>
      <trkpt lat="48.5608" lon="-2.75716">
        <ele>28</ele>
        <time>2019-02-22T10:33:56Z</time>
      </trkpt>
      <trkpt lat="48.56078" lon="-2.75718">
        <ele>28</ele>
        <time>2019-02-22T10:33:59Z</time>
      </trkpt>
      <trkpt lat="48.56075" lon="-2.75722">
        <ele>28</ele>
        <time>2019-02-22T10:34:03Z</time>
      </trkpt>
      <trkpt lat="48.56073" lon="-2.75726">
        <ele>28</ele>
        <time>2019-02-22T10:34:07Z</time>
      </trkpt>
      <trkpt lat="48.5607" lon="-2.75729">
        <ele>28</ele>
        <time>2019-02-22T10:34:10Z</time>
      </trkpt>
      <trkpt lat="48.56066" lon="-2.75732">
        <ele>28</ele>
        <time>2019-02-22T10:34:14Z</time>
      </trkpt>
      <trkpt lat="48.56061" lon="-2.75734">
        <ele>28</ele>
        <time>2019-02-22T10:34:18Z</time>
      </trkpt>
      <trkpt lat="48.56057" lon="-2.75736">
        <ele>29</ele>
        <time>2019-02-22T10:34:22Z</time>
      </trkpt>
      <trkpt lat="48.56055" lon="-2.7574">
        <ele>30</ele>
        <time>2019-02-22T10:34:26Z</time>
      </trkpt>
      <trkpt lat="48.56052" lon="-2.75743">
        <ele>31</ele>
        <time>2019-02-22T10:34:29Z</time>
      </trkpt>
      <trkpt lat="48.56048" lon="-2.75747">
        <ele>31</ele>
        <time>2019-02-22T10:34:33Z</time>
      </trkpt>
      <trkpt lat="48.56045" lon="-2.75751">
        <ele>31</ele>
        <time>2019-02-22T10:34:36Z</time>
      </trkpt>
      <trkpt lat="48.56042" lon="-2.75755">
        <ele>31</ele>
        <time>2019-02-22T10:34:39Z</time>
      </trkpt>
      <trkpt lat="48.56039" lon="-2.75758">
        <ele>31</ele>
        <time>2019-02-22T10:34:42Z</time>
      </trkpt>
      <trkpt lat="48.56036" lon="-2.7576">
        <ele>31</ele>
        <time>2019-02-22T10:34:46Z</time>
      </trkpt>
      <trkpt lat="48.56034" lon="-2.75763">
        <ele>31</ele>
        <time>2019-02-22T10:34:49Z</time>
      </trkpt>
      <trkpt lat="48.5603" lon="-2.75766">
        <ele>31</ele>
        <time>2019-02-22T10:34:53Z</time>
      </trkpt>
      <trkpt lat="48.56026" lon="-2.75768">
        <ele>31</ele>
        <time>2019-02-22T10:34:57Z</time>
      </trkpt>
      <trkpt lat="48.56022" lon="-2.7577">
        <ele>31</ele>
        <time>2019-02-22T10:35:00Z</time>
      </trkpt>
      <trkpt lat="48.56018" lon="-2.75775">
        <ele>31</ele>
        <time>2019-02-22T10:35:04Z</time>
      </trkpt>
      <trkpt lat="48.56015" lon="-2.75778">
        <ele>34</ele>
        <time>2019-02-22T10:35:08Z</time>
      </trkpt>
      <trkpt lat="48.56012" lon="-2.75781">
        <ele>35</ele>
        <time>2019-02-22T10:35:11Z</time>
      </trkpt>
      <trkpt lat="48.56009" lon="-2.75784">
        <ele>36</ele>
        <time>2019-02-22T10:35:15Z</time>
      </trkpt>
      <trkpt lat="48.56007" lon="-2.75787">
        <ele>37</ele>
        <time>2019-02-22T10:35:19Z</time>
      </trkpt>
      <trkpt lat="48.56004" lon="-2.7579">
        <ele>37</ele>
        <time>2019-02-22T10:35:23Z</time>
      </trkpt>
      <trkpt lat="48.56002" lon="-2.75795">
        <ele>37</ele>
        <time>2019-02-22T10:35:27Z</time>
      </trkpt>
      <trkpt lat="48.56" lon="-2.75798">
        <ele>37</ele>
        <time>2019-02-22T10:35:31Z</time>
      </trkpt>
      <trkpt lat="48.55997" lon="-2.75801">
        <ele>37</ele>
        <time>2019-02-22T10:35:35Z</time>
      </trkpt>
      <trkpt lat="48.55994" lon="-2.75804">
        <ele>37</ele>
        <time>2019-02-22T10:35:39Z</time>
      </trkpt>
      <trkpt lat="48.55991" lon="-2.75805">
        <ele>37</ele>
        <time>2019-02-22T10:35:43Z</time>
      </trkpt>
      <trkpt lat="48.55986" lon="-2.75809">
        <ele>37</ele>
        <time>2019-02-22T10:35:47Z</time>
      </trkpt>
      <trkpt lat="48.55983" lon="-2.75811">
        <ele>37</ele>
        <time>2019-02-22T10:35:50Z</time>
      </trkpt>
      <trkpt lat="48.5598" lon="-2.75813">
        <ele>37</ele>
        <time>2019-02-22T10:35:53Z</time>
      </trkpt>
      <trkpt lat="48.55977" lon="-2.75816">
        <ele>38</ele>
        <time>2019-02-22T10:35:57Z</time>
      </trkpt>
      <trkpt lat="48.55973" lon="-2.7582">
        <ele>39</ele>
        <time>2019-02-22T10:36:01Z</time>
      </trkpt>
      <trkpt lat="48.55971" lon="-2.75825">
        <ele>41</ele>
        <time>2019-02-22T10:36:06Z</time>
      </trkpt>
      <trkpt lat="48.55972" lon="-2.75831">
        <ele>43</ele>
        <time>2019-02-22T10:36:10Z</time>
      </trkpt>
      <trkpt lat="48.55973" lon="-2.75833">
        <ele>44</ele>
        <time>2019-02-22T10:36:13Z</time>
      </trkpt>
      <trkpt lat="48.55974" lon="-2.75838">
        <ele>46</ele>
        <time>2019-02-22T10:36:17Z</time>
      </trkpt>
      <trkpt lat="48.55975" lon="-2.75843">
        <ele>47</ele>
        <time>2019-02-22T10:36:21Z</time>
      </trkpt>
      <trkpt lat="48.55974" lon="-2.75846">
        <ele>47</ele>
        <time>2019-02-22T10:36:25Z</time>
      </trkpt>
      <trkpt lat="48.55973" lon="-2.7585">
        <ele>47</ele>
        <time>2019-02-22T10:36:32Z</time>
      </trkpt>
      <trkpt lat="48.55973" lon="-2.75854">
        <ele>47</ele>
        <time>2019-02-22T10:36:36Z</time>
      </trkpt>
      <trkpt lat="48.55973" lon="-2.75859">
        <ele>47</ele>
        <time>2019-02-22T10:36:40Z</time>
      </trkpt>
      <trkpt lat="48.55973" lon="-2.75864">
        <ele>47</ele>
        <time>2019-02-22T10:36:44Z</time>
      </trkpt>
      <trkpt lat="48.55972" lon="-2.75868">
        <ele>47</ele>
        <time>2019-02-22T10:36:48Z</time>
      </trkpt>
      <trkpt lat="48.55973" lon="-2.75872">
        <ele>47</ele>
        <time>2019-02-22T10:36:54Z</time>
      </trkpt>
      <trkpt lat="48.55973" lon="-2.75874">
        <ele>47</ele>
        <time>2019-02-22T10:36:58Z</time>
      </trkpt>
      <trkpt lat="48.55974" lon="-2.75876">
        <ele>47</ele>
        <time>2019-02-22T10:37:01Z</time>
      </trkpt>
      <trkpt lat="48.55974" lon="-2.75877">
        <ele>47</ele>
        <time>2019-02-22T10:37:04Z</time>
      </trkpt>
      <trkpt lat="48.55974" lon="-2.75879">
        <ele>47</ele>
        <time>2019-02-22T10:37:09Z</time>
      </trkpt>
      <trkpt lat="48.55973" lon="-2.75878">
        <ele>47</ele>
        <time>2019-02-22T10:37:17Z</time>
      </trkpt>
      <trkpt lat="48.55972" lon="-2.75877">
        <ele>47</ele>
        <time>2019-02-22T10:37:26Z</time>
      </trkpt>
      <trkpt lat="48.55973" lon="-2.75878">
        <ele>47</ele>
        <time>2019-02-22T10:37:30Z</time>
      </trkpt>
      <trkpt lat="48.55974" lon="-2.7588">
        <ele>47</ele>
        <time>2019-02-22T10:37:35Z</time>
      </trkpt>
      <trkpt lat="48.55973" lon="-2.75878">
        <ele>47</ele>
        <time>2019-02-22T10:37:47Z</time>
      </trkpt>
      <trkpt lat="48.55974" lon="-2.75879">
        <ele>47</ele>
        <time>2019-02-22T10:37:50Z</time>
      </trkpt>
      <trkpt lat="48.55977" lon="-2.75879">
        <ele>47</ele>
        <time>2019-02-22T10:37:53Z</time>
      </trkpt>
      <trkpt lat="48.55979" lon="-2.75879">
        <ele>47</ele>
        <time>2019-02-22T10:37:56Z</time>
      </trkpt>
      <trkpt lat="48.5598" lon="-2.75875">
        <ele>48</ele>
        <time>2019-02-22T10:38:00Z</time>
      </trkpt>
      <trkpt lat="48.5598" lon="-2.75874">
        <ele>48</ele>
        <time>2019-02-22T10:38:06Z</time>
      </trkpt>
      <trkpt lat="48.55978" lon="-2.75872">
        <ele>48</ele>
        <time>2019-02-22T10:38:11Z</time>
      </trkpt>
      <trkpt lat="48.55977" lon="-2.7587">
        <ele>48</ele>
        <time>2019-02-22T10:38:17Z</time>
      </trkpt>
      <trkpt lat="48.55976" lon="-2.75871">
        <ele>44</ele>
        <time>2019-02-22T10:38:21Z</time>
      </trkpt>
      <trkpt lat="48.55975" lon="-2.75871">
        <ele>40</ele>
        <time>2019-02-22T10:38:25Z</time>
      </trkpt>
      <trkpt lat="48.55974" lon="-2.75874">
        <ele>37</ele>
        <time>2019-02-22T10:38:28Z</time>
      </trkpt>
      <trkpt lat="48.55973" lon="-2.75875">
        <ele>33</ele>
        <time>2019-02-22T10:38:32Z</time>
      </trkpt>
      <trkpt lat="48.55974" lon="-2.75874">
        <ele>30</ele>
        <time>2019-02-22T10:38:41Z</time>
      </trkpt>
      <trkpt lat="48.55973" lon="-2.75875">
        <ele>35</ele>
        <time>2019-02-22T10:38:48Z</time>
      </trkpt>
      <trkpt lat="48.55972" lon="-2.75876">
        <ele>42</ele>
        <time>2019-02-22T10:38:55Z</time>
      </trkpt>
      <trkpt lat="48.55971" lon="-2.75877">
        <ele>47</ele>
        <time>2019-02-22T10:39:00Z</time>
      </trkpt>
      <trkpt lat="48.55971" lon="-2.7588">
        <ele>50</ele>
        <time>2019-02-22T10:39:05Z</time>
      </trkpt>
      <trkpt lat="48.55972" lon="-2.75879">
        <ele>51</ele>
        <time>2019-02-22T10:39:06Z</time>
      </trkpt>
    </trkseg>
  </trk>
</gpx>